[[{"header":{"parameterUnit":"m.s-1","parameterCategory":1,"la1":30.6,"la2":29.2853,"lo1":-89.7004,"lo2":-87.6739,"dy":0.0162,"dx":0.0183,"nx":112,"ny":82,"refTime":"2023-04-29T00:00:00:Z","depth":0,"parameterNumber":2,"parameterNumberName":"U-component_of_WINDS"},"data":[0.0,0.0,0.0,0.0,0.0,0.0,0.0,0.0,0.0,0.0,0.0,0.0,0.0,0.0,0.0,0.0,0.0,0.0,0.0,0.0,0.0,0.0,0.0,0.0,0.0,0.0,0.0,0.0,0.0,0.0,0.0,0.0,0.0,0.0,0.0,0.0,0.0,0.0,0.0,0.0,0.0,0.0,0.0,0.0,0.0,0.0,0.0,0.0,0.0,0.0,0.0,0.0,0.0,0.0,0.0,0.0,0.0,0.0,0.0,0.0,0.0,0.0,0.0,0.0,0.0,0.0,0.0,0.0,0.0,0.0,0.0,0.0,0.0,0.0,0.0,0.0,0.0,0.0,0.0,0.0,0.0,0.0,0.0,0.0,0.0,0.0,0.0,0.0,0.0,0.0,0.0,1.4247,1.5153,1.5667,1.5673,1.591,1.5394,1.3872,0.0,0.0,0.0,0.0,0.0,0.0,0.0,0.0,0.0,0.0,0.0,0.0,0.0,0.0,0.0,0.0,0.0,0.0,0.0,0.0,0.0,0.0,0.0,0.0,0.0,0.0,0.0,0.0,0.0,0.0,0.0,0.0,0.0,0.0,0.0,0.0,0.0,0.0,0.0,0.0,0.0,0.0,0.0,0.0,0.0,0.0,0.0,0.0,0.0,0.0,0.0,0.0,0.0,0.0,0.0,0.0,0.0,0.0,0.0,0.0,0.0,0.0,0.0,0.0,0.0,0.0,0.0,0.0,0.0,0.0,0.0,0.0,0.0,0.0,0.0,0.0,0.0,0.0,0.0,0.0,0.0,0.0,0.0,0.0,0.0,0.0,0.0,0.0,0.0,0.0,0.0,0.0,0.0,0.0,0.0,0.0,0.0,0.0,0.0,0.0,0.0,0.0,0.0,0.0,1.369,1.442,1.4952,1.5401,1.5658,1.4949,1.4236,1.375,0.0,0.0,0.0,0.0,0.0,0.0,0.0,0.0,0.0,0.0,0.0,0.0,0.0,0.0,0.0,0.0,0.0,0.0,0.0,0.0,0.0,0.0,0.0,0.0,0.0,0.0,0.0,0.0,0.0,0.0,0.0,0.0,0.0,0.0,0.0,0.0,0.0,0.0,0.0,0.0,0.0,0.0,0.0,0.0,0.0,0.0,0.0,0.0,0.0,0.0,0.0,0.0,0.0,0.0,0.0,0.0,0.0,0.0,0.0,0.0,0.0,0.0,0.0,0.0,0.0,0.0,0.0,0.0,0.0,0.0,0.0,0.0,0.0,0.0,0.0,0.0,0.0,0.0,0.0,0.0,0.0,0.0,0.0,0.0,0.0,0.0,0.0,0.0,0.0,0.0,0.0,0.0,0.0,0.0,0.0,0.0,0.0,0.0,0.0,0.0,0.0,0.0,0.0,1.3997,1.481,1.4538,1.5124,1.5459,1.5145,1.4437,1.3827,1.3455,1.3076,0.0,0.0,0.0,0.0,0.0,0.0,0.0,0.0,0.0,0.0,0.0,0.0,0.0,0.0,0.0,0.0,0.0,0.0,0.0,0.0,0.0,0.0,0.0,0.0,0.0,0.0,0.0,0.0,0.0,0.0,0.0,0.0,0.0,0.0,0.0,0.0,0.0,0.0,0.0,0.0,0.0,0.0,0.0,0.0,0.0,0.0,0.0,0.0,0.0,0.0,0.0,0.0,0.0,0.0,0.0,0.0,0.0,0.0,0.0,0.0,0.0,0.0,0.0,0.0,0.0,0.0,0.0,0.0,0.0,0.0,0.0,0.0,0.0,0.0,0.0,0.0,0.0,0.0,0.0,0.0,0.0,0.0,0.0,0.0,0.0,0.0,0.0,0.0,0.0,0.0,0.0,0.0,0.0,0.0,0.0,0.0,0.0,0.0,0.0,0.0,0.0,0.0,1.4519,1.5185,1.43,1.5079,1.5249,1.4334,1.3806,1.3307,1.2778,1.2024,0.0,0.0,0.0,0.0,0.0,0.0,0.0,0.0,0.0,0.0,0.0,0.0,0.0,0.0,0.0,0.0,0.0,0.0,0.0,0.0,0.0,0.0,0.0,0.0,0.0,0.0,0.0,0.0,0.0,0.0,0.0,0.0,0.0,0.0,0.0,0.0,0.0,0.0,0.0,0.0,0.0,0.0,0.0,0.0,0.0,0.0,0.0,0.0,0.0,0.0,0.0,0.0,0.0,0.0,0.0,0.0,0.0,0.0,0.0,0.0,0.0,0.0,0.0,0.0,0.0,0.0,0.0,0.0,0.0,0.0,0.0,0.0,0.0,0.0,0.0,0.0,0.0,0.0,0.0,0.0,0.0,0.0,0.0,0.0,0.0,0.0,0.0,0.0,0.0,0.0,0.0,0.0,0.0,0.0,0.0,0.0,0.0,0.0,0.0,0.0,0.0,0.0,1.4127,1.4206,1.3445,1.4287,1.4407,1.3314,1.2699,1.2122,1.1407,1.1407,0.0,0.0,0.0,0.0,0.0,0.0,0.0,0.0,0.0,0.0,0.0,0.0,0.0,0.0,0.0,0.0,0.0,0.0,0.0,0.0,0.0,0.0,0.0,0.0,0.0,0.0,0.0,0.0,0.0,0.0,0.0,0.0,0.0,0.0,0.0,0.0,0.0,0.0,0.0,0.0,0.0,0.0,0.0,0.0,0.0,0.0,0.0,0.0,0.0,0.0,0.0,0.0,0.0,0.0,0.0,0.0,0.0,0.0,0.0,0.0,0.0,0.0,0.0,0.0,0.0,0.0,0.0,0.0,0.0,0.0,0.0,0.0,0.0,0.0,0.0,0.0,0.0,0.0,0.0,0.0,0.0,0.0,0.0,0.0,0.0,0.0,0.0,0.0,0.0,0.0,0.0,0.0,0.0,0.0,0.0,0.0,0.0,0.0,0.0,0.0,0.0,0.0,1.4332,1.4614,0.0,1.4005,1.3758,1.2365,1.2045,1.1714,1.1173,0.0,0.0,0.0,0.0,0.0,0.0,0.0,0.0,0.0,0.0,0.0,0.0,0.0,0.0,0.0,0.0,0.0,0.0,0.0,0.0,0.0,0.0,0.0,0.0,0.0,0.0,0.0,0.0,0.0,0.0,0.0,0.0,0.0,0.0,0.0,0.0,0.0,0.0,0.0,0.0,0.0,0.0,0.0,0.0,0.0,0.0,0.0,0.0,0.0,0.0,0.0,0.0,0.0,0.0,0.0,0.0,0.0,0.0,0.0,0.0,0.0,0.0,0.0,0.0,0.0,0.0,0.0,0.0,0.0,0.0,0.0,0.0,0.0,0.0,0.0,0.0,0.0,0.0,0.0,0.0,0.0,0.0,0.0,0.0,0.0,0.0,0.0,0.0,0.0,0.0,0.0,0.0,0.0,0.0,0.0,0.0,0.0,0.0,0.0,0.0,0.0,0.0,1.3137,1.4201,1.453,0.0,1.3665,1.3151,1.1585,1.1437,1.1232,1.0739,0.0,0.0,0.0,0.0,0.0,0.0,0.0,0.0,0.0,0.0,0.0,0.0,0.0,0.0,0.0,0.0,0.0,0.0,0.0,0.0,0.0,0.0,0.0,0.0,0.0,0.0,0.0,0.0,0.0,0.0,0.0,0.0,0.0,0.0,0.0,0.0,0.0,0.0,0.0,0.0,0.0,0.0,0.0,0.0,0.0,0.0,0.0,0.0,0.0,0.0,0.0,0.0,0.0,0.0,0.0,0.0,0.0,0.0,0.0,0.0,0.0,0.0,0.0,0.0,0.0,0.0,0.0,0.0,0.0,0.0,0.0,0.0,0.0,0.0,0.0,0.0,0.0,0.0,0.0,0.0,0.0,0.0,0.0,0.0,0.0,0.0,0.0,0.0,0.0,0.0,0.0,0.0,0.0,0.0,0.0,0.0,0.0,0.0,0.0,0.0,0.0,0.0,1.2668,1.3575,1.3746,1.2602,1.3037,1.2709,1.1031,1.0887,1.0576,0.0,0.0,0.0,0.0,0.0,0.0,0.0,0.0,0.0,0.0,0.0,0.0,0.0,0.0,0.0,0.0,0.0,0.0,0.0,0.0,0.0,0.0,0.0,0.0,0.0,0.0,0.0,0.0,0.0,0.0,0.0,0.0,0.0,0.0,0.0,0.0,0.0,0.0,0.0,0.0,0.0,0.0,0.0,0.0,0.0,0.0,0.0,0.0,0.0,0.0,0.0,0.0,0.0,0.0,0.0,0.0,0.0,0.0,0.0,0.0,0.0,0.0,0.0,0.0,0.0,0.0,0.0,0.0,0.0,0.0,0.0,0.0,0.0,0.0,0.0,0.0,0.0,0.0,0.0,0.0,0.0,0.0,0.0,0.0,0.0,0.0,0.0,0.0,0.0,0.0,0.0,0.0,0.0,0.0,0.0,0.0,0.0,0.0,0.0,0.0,0.0,0.0,0.0,1.2069,1.2532,1.2621,1.2051,1.1935,1.1478,1.0362,1.0294,1.0113,0.9769,0.0,0.0,0.0,0.0,0.0,0.0,0.0,0.0,0.0,0.0,0.0,0.0,0.0,0.0,0.0,0.0,0.0,0.0,0.0,0.0,0.0,0.0,0.0,0.0,0.0,0.0,0.0,0.0,0.0,0.0,0.0,0.0,0.0,0.0,0.0,0.0,0.0,0.0,0.0,0.0,0.0,0.0,0.0,0.0,0.0,0.0,0.0,0.0,0.0,0.0,0.0,0.0,0.0,0.0,0.0,0.0,0.0,0.0,0.0,0.0,0.0,0.0,0.0,0.0,0.0,0.0,0.0,0.0,0.0,0.0,0.0,0.0,0.0,0.0,0.0,0.0,0.0,0.0,0.0,0.0,0.0,0.0,0.0,0.0,0.0,0.0,0.0,0.0,0.0,0.0,0.0,0.0,0.0,0.0,0.0,0.0,0.0,0.0,0.0,0.0,0.0,0.0,1.1631,1.1817,1.1892,1.1626,1.1351,1.0912,1.0174,1.011,1.0025,0.9748,0.0,0.0,0.0,0.0,0.0,0.0,0.0,0.0,0.0,0.0,0.0,0.0,0.0,0.0,0.0,0.0,0.0,0.0,0.0,0.0,0.0,0.0,0.0,0.0,0.0,0.0,0.0,0.0,0.0,0.0,0.0,0.0,0.0,0.0,0.0,0.0,0.0,0.0,0.0,0.0,0.0,0.0,0.0,0.0,0.0,0.0,0.0,0.0,0.0,0.0,0.0,0.0,0.0,0.0,0.0,0.0,0.0,0.0,0.0,0.0,0.0,0.0,0.0,0.0,0.0,0.0,0.0,0.0,0.0,0.0,0.0,0.0,0.0,0.0,0.0,0.0,0.0,0.0,0.0,0.0,0.0,0.0,0.0,0.0,0.0,0.0,0.0,0.0,0.0,0.0,0.0,0.0,0.0,0.0,0.0,0.0,0.0,0.0,0.0,0.0,0.0,0.0,1.1282,1.1341,1.1359,1.1247,1.1073,1.0771,1.0379,1.0386,1.0256,0.9955,0.0,0.0,0.0,0.0,0.0,0.0,0.0,0.0,0.0,0.0,0.0,0.0,0.0,0.0,0.0,0.0,0.0,0.0,0.0,0.0,0.0,0.0,0.0,0.0,0.0,0.0,0.0,0.0,0.0,0.0,0.0,0.0,0.0,0.0,0.0,0.0,0.0,0.0,0.0,0.0,0.0,0.0,0.0,0.0,0.0,0.0,0.0,0.0,0.0,0.0,0.0,0.0,0.0,0.0,0.0,0.0,0.0,0.0,0.0,0.0,1.2352,0.0,0.0,0.0,0.0,0.0,0.0,0.0,0.0,0.0,0.0,0.0,0.0,0.0,0.0,0.0,0.0,0.0,0.0,0.0,0.0,0.0,0.0,0.0,0.0,0.0,0.0,0.0,0.0,0.0,0.0,0.0,0.0,0.0,0.0,0.0,0.0,0.0,0.0,0.0,0.0,0.0,1.0422,1.0516,1.0575,1.0673,1.064,1.0659,1.0757,1.0776,1.0791,1.0767,0.9858,0.0,0.0,0.0,0.0,0.0,0.0,0.0,0.0,0.0,0.0,0.0,0.0,0.0,0.0,0.0,0.0,0.0,0.0,0.0,0.0,0.0,0.0,0.0,0.0,0.0,0.0,0.0,0.0,0.0,0.0,0.0,0.0,0.0,0.0,0.0,0.0,0.0,0.0,0.0,0.0,0.0,0.0,0.0,0.0,0.0,0.0,0.0,0.0,0.0,0.0,0.0,0.0,0.0,0.0,0.0,0.0,0.0,0.0,0.0,0.0,1.2037,0.0,0.0,0.0,0.0,0.0,0.0,0.0,0.0,0.0,0.0,0.0,0.0,0.0,0.0,0.0,0.0,0.0,0.0,0.0,0.0,0.0,0.0,0.0,0.0,0.0,0.0,0.0,0.0,0.0,0.0,0.0,0.0,0.0,0.0,0.0,0.0,0.0,0.0,0.0,0.0,1.042,1.0373,1.0483,1.0773,1.067,1.0659,1.1011,1.0715,1.0547,1.0533,0.9514,0.0,0.0,0.0,0.0,0.0,0.0,0.0,0.0,0.0,0.0,0.0,0.0,0.0,0.0,0.0,0.0,0.0,0.0,0.0,0.0,0.0,0.0,0.0,0.0,0.0,0.0,0.0,0.0,0.0,0.0,0.0,0.0,0.0,0.0,0.0,0.0,0.0,0.0,0.0,0.0,0.0,0.0,0.0,0.0,0.0,0.0,0.0,0.0,0.0,0.0,0.0,0.0,0.0,1.2908,1.2501,1.2433,1.2054,1.1426,1.0651,1.2016,1.2205,1.1563,0.0,0.0,0.0,0.0,0.0,0.0,0.0,0.0,0.0,0.0,0.0,0.0,0.0,0.0,0.0,0.0,0.0,0.0,0.0,0.0,0.0,0.0,0.0,0.0,0.0,1.197,1.2022,0.0,0.0,0.0,0.0,0.0,0.0,0.0,0.0,0.0,0.0,0.0,0.0,1.0394,1.0506,1.0657,1.1057,1.0816,1.0713,1.1012,1.0568,1.0166,1.011,0.9129,0.8826,0.0,0.0,0.0,0.0,0.0,0.0,0.0,0.0,0.0,0.0,0.0,0.0,0.0,0.0,0.0,0.0,0.0,0.0,0.0,0.0,0.0,0.0,0.0,0.0,0.0,0.0,0.0,0.0,0.0,0.0,0.0,0.0,1.1803,1.1676,0.0,0.0,0.0,0.0,0.0,0.0,0.0,0.0,0.0,0.0,0.0,0.0,0.0,1.2064,1.2015,1.2521,1.2843,1.2919,1.2172,1.2077,1.2453,1.1809,1.1406,1.1278,1.1465,0.0,1.1141,1.1121,0.0,0.0,0.0,0.0,0.0,0.0,0.0,0.0,0.0,0.0,0.0,0.0,0.0,0.0,0.0,0.0,0.0,0.0,0.0,0.0,0.0,0.0,1.1225,1.0753,1.0501,1.0516,0.0,1.1887,1.2919,1.3185,1.2261,0.0,0.0,0.0,0.0,0.0,0.0,0.0,0.9411,1.0383,1.1026,1.0801,1.0707,1.0657,1.0532,1.0439,1.0365,1.0333,0.9518,0.9262,0.9707,0.9436,0.0,0.0,0.0,0.0,0.0,0.0,0.0,0.0,0.0,0.0,0.0,0.0,0.0,0.0,0.0,0.0,0.0,0.0,0.0,0.0,0.0,0.0,0.0,0.0,0.0,0.0,0.0,0.0,0.0,1.1978,1.1616,1.1374,1.1562,1.1509,0.0,0.0,0.0,0.0,0.0,0.0,0.0,0.0,0.0,1.0695,1.0759,1.0995,1.1479,1.1287,1.1603,1.2411,1.1882,1.1663,1.1681,1.1725,1.1345,1.0678,1.0855,1.0828,1.0735,1.0995,1.128,1.1489,0.0,0.0,0.0,0.0,1.1551,1.1363,1.1332,1.1238,0.0,1.0888,0.0,0.0,0.0,0.0,0.0,0.0,0.0,0.0,0.0,0.0,1.1002,1.0705,1.0786,1.078,1.052,1.127,1.1988,0.0,1.1567,1.1113,1.0383,0.0,0.0,0.0,0.0,1.0646,1.0023,1.0473,1.0807,1.0551,1.045,1.0374,1.0418,1.0075,0.9848,0.9725,0.9096,0.8708,0.882,0.9057,0.9034,0.0,0.0,0.0,0.0,0.0,0.0,0.0,0.0,0.0,0.0,0.0,0.0,0.0,0.0,0.0,0.0,0.0,0.0,0.0,0.0,0.0,0.0,0.0,0.0,0.0,0.0,0.0,0.0,1.148,1.1194,1.1125,1.123,1.1133,0.0,0.0,0.0,0.0,0.0,0.0,1.1019,1.0702,1.0446,1.033,1.0139,1.0436,1.1197,1.0705,1.0958,1.2042,1.181,1.1546,1.1341,1.1617,1.1294,1.0379,1.052,1.0447,1.0275,1.0786,1.0779,1.052,1.0681,1.0662,1.0564,1.0312,1.0531,1.0833,1.0638,1.0526,1.0566,1.0885,0.0,0.9724,1.045,0.0,0.0,0.0,0.0,0.9684,0.9494,0.9682,0.9965,1.0059,1.0374,1.061,1.0119,1.0611,1.1079,0.0,1.0899,1.0866,1.0168,0.0,0.0,0.0,0.0,1.0616,1.0152,1.0369,1.0467,1.0162,1.0039,0.9983,1.0038,0.9625,0.9315,0.916,0.862,0.8296,0.8242,0.8818,0.901,0.8788,0.0,0.0,0.0,0.0,0.0,0.0,0.0,0.0,0.0,0.0,0.0,0.0,0.0,0.0,0.0,0.0,0.0,0.0,0.0,0.0,0.0,0.0,0.0,0.0,0.0,0.0,0.0,0.0,0.0,1.0664,1.0565,0.0,0.0,0.0,0.0,1.0544,0.9812,0.9723,1.057,0.9466,0.9543,1.1111,1.1116,1.1208,1.1289,1.185,1.2069,1.1877,1.1825,1.1942,1.2227,1.1572,1.1213,1.1118,1.0726,1.0268,0.9818,0.9828,1.0504,1.1491,1.0412,1.0464,1.1027,0.9928,0.9721,0.992,0.9834,0.9515,0.9242,0.9718,0.9514,0.9111,0.9548,0.9357,0.0,0.0,0.8598,0.8195,0.8634,0.813,0.7629,0.7848,0.8357,0.8876,0.8936,0.9601,1.0252,0.0,1.0359,1.0421,1.0617,0.0,0.8963,0.8841,0.9344,0.9399,0.8694,0.9693,1.0172,0.9597,0.9704,0.9616,0.9039,0.8978,0.8894,0.8882,0.8719,0.8636,0.8882,0.8882,0.9048,0.9287,0.9461,0.0,0.0,0.0,0.0,0.0,0.0,0.0,0.0,0.0,0.0,0.0,0.0,0.0,0.0,0.0,0.0,0.0,0.0,0.0,0.0,0.0,0.0,0.0,0.0,0.0,0.0,0.0,0.0,1.036,1.0203,0.0,0.0,0.9332,0.9361,0.9888,0.9302,0.9484,1.0793,1.0086,0.9841,1.0473,1.0392,1.0323,1.0349,1.046,1.0578,1.0795,1.0628,1.0653,1.0795,0.9938,0.9548,0.9511,0.8715,0.8246,0.8102,0.8277,0.8774,0.946,0.8561,0.8467,0.8824,0.8432,0.8529,0.8874,0.8788,0.8718,0.8542,0.8047,0.7956,0.8087,0.7848,0.79,0.8009,0.7859,0.792,0.8,0.8062,0.8205,0.8238,0.836,0.8782,0.9038,0.8497,0.8973,0.9252,0.8642,0.9499,1.0279,1.0035,0.9921,0.9739,0.9362,0.9948,1.0126,0.9423,0.9907,1.0021,0.9475,0.9411,0.9356,0.9165,0.9174,0.9174,0.9174,0.9087,0.9087,0.9174,0.9174,0.917,0.9262,0.9516,0.9428,0.0,0.0,0.0,0.0,0.0,0.0,0.0,0.0,0.0,0.0,0.0,0.0,0.0,0.0,0.0,0.0,0.0,0.0,0.0,0.0,0.0,0.0,0.0,0.0,0.0,0.0,1.0061,1.0217,1.0001,0.9661,0.931,0.9073,0.9135,0.9754,0.9375,0.964,1.0757,1.0176,0.9921,1.0179,1.0076,0.9914,0.9771,0.9776,0.9772,0.9772,0.9922,1.0036,0.9953,0.9138,0.8774,0.8795,0.7624,0.7167,0.735,0.7012,0.7237,0.7716,0.752,0.7564,0.7636,0.7597,0.7753,0.8006,0.7934,0.8049,0.8,0.7235,0.7137,0.7419,0.7062,0.7205,0.7411,0.7175,0.7255,0.7354,0.7326,0.7417,0.7511,0.7567,0.8086,0.8359,0.7746,0.8193,0.8534,0.7767,0.8635,0.9466,0.9326,0.9438,0.9561,0.9563,0.9884,0.9963,0.9483,0.9533,0.9395,0.903,0.8966,0.8907,0.8907,0.882,0.879,0.8894,0.8729,0.8708,0.8899,0.8978,0.9128,0.9212,0.9224,0.8987,0.8534,0.0,0.0,0.0,0.0,0.0,0.0,0.0,0.0,0.0,0.0,0.0,0.0,0.0,0.0,0.0,0.0,0.0,0.0,0.0,0.0,0.0,0.0,0.0,0.9136,0.9959,1.0329,1.0121,0.9895,0.9679,0.9399,0.981,1.0089,1.0089,0.9962,1.0084,1.0425,0.9717,0.9558,1.0229,1.0242,1.0115,0.97,1.0054,0.9809,0.9005,0.9819,1.0172,0.9897,0.9128,0.8982,0.9158,0.755,0.7092,0.7447,0.6264,0.6067,0.6573,0.7427,0.7768,0.7697,0.7496,0.7446,0.7447,0.7239,0.7465,0.7718,0.7309,0.7139,0.713,0.7165,0.7119,0.7191,0.7191,0.6619,0.6077,0.6379,0.5901,0.5326,0.5528,0.6186,0.6808,0.6602,0.7338,0.8045,0.7903,0.7801,0.7943,0.8672,0.8273,0.83,0.9393,0.904,0.0,0.8695,0.8433,0.8325,0.8325,0.8223,0.8181,0.8197,0.7808,0.773,0.8165,0.7567,0.7518,0.8177,0.8452,0.8718,0.896,0.8655,0.8346,0.7919,0.0,0.0,0.0,0.0,0.0,0.0,0.0,0.0,0.0,0.0,0.0,0.0,0.0,0.0,0.0,0.0,0.0,0.0,0.0,0.0,0.0,0.0,0.819,0.9141,0.9103,0.9036,0.9323,0.9483,0.9444,0.9189,0.9461,0.9675,0.9675,0.9547,0.9675,1.0133,0.9442,0.9016,0.9155,0.9595,0.9552,0.8954,0.9536,0.9514,0.8746,0.877,0.8703,0.8446,0.7595,0.7332,0.7661,0.6551,0.6091,0.6172,0.5886,0.6,0.6337,0.6113,0.6165,0.6277,0.6253,0.6171,0.628,0.6699,0.6624,0.6301,0.5991,0.5954,0.6069,0.5917,0.5996,0.6153,0.6153,0.6066,0.6095,0.6317,0.6349,0.6265,0.6394,0.6678,0.6924,0.6815,0.6927,0.7121,0.7115,0.6933,0.7034,0.8025,0.8041,0.8009,0.8309,0.8321,0.0,0.8351,0.8404,0.8495,0.8495,0.8687,0.87,0.8515,0.8543,0.8539,0.8515,0.8324,0.8311,0.8456,0.8574,0.8729,0.8956,0.8651,0.8497,0.0,0.0,0.0,0.0,0.0,0.0,0.0,0.0,0.0,0.0,0.0,0.0,0.0,0.0,0.0,0.0,0.0,0.0,0.0,0.0,0.0,0.0,0.6609,0.7272,0.8142,0.879,0.9182,0.931,0.9569,0.943,0.8699,0.8946,0.912,0.9148,0.9284,0.9559,0.9941,0.9187,0.8762,0.8841,0.8722,0.8625,0.8379,0.8738,0.8687,0.8337,0.8255,0.8088,0.7993,0.7104,0.6962,0.0,0.6169,0.5763,0.5935,0.5744,0.5938,0.0,0.0,0.0,0.0,0.0,0.5986,0.6071,0.6573,0.6508,0.6204,0.6051,0.613,0.6204,0.6054,0.6042,0.6005,0.6005,0.6025,0.6165,0.6337,0.653,0.6671,0.6731,0.6869,0.7002,0.6976,0.7048,0.7121,0.7108,0.7088,0.0,0.7663,0.7683,0.772,0.7902,0.8035,0.8116,0.8116,0.8152,0.8207,0.8207,0.8363,0.8398,0.8101,0.8162,0.0,0.0,0.0,0.7905,0.8231,0.8235,0.0,0.0,0.0,0.811,0.8025,0.0,0.0,0.0,0.784,0.813,0.0,0.0,0.0,0.0,0.0,0.0,0.0,0.0,0.0,0.0,0.0,0.0,0.0,0.0,0.0,0.0,0.5826,0.6164,0.6976,0.8797,0.9853,0.9397,0.9564,0.9286,0.8095,0.8356,0.8553,0.8466,0.8953,0.9356,0.9774,0.0,0.0,0.0,0.0,0.7718,0.7884,0.7912,0.7875,0.7927,0.7931,0.7912,0.7959,0.7302,0.7177,0.7256,0.6202,0.5924,0.6157,0.579,0.5928,0.6409,0.6397,0.6391,0.6388,0.6447,0.645,0.6447,0.6828,0.0,0.0,0.6938,0.6929,0.6876,0.6913,0.6762,0.6551,0.6583,0.6363,0.629,0.6522,0.6639,0.6753,0.6975,0.7053,0.7085,0.7192,0.7436,0.7558,0.7588,0.7714,0.7731,0.7622,0.7371,0.7375,0.7868,0.7947,0.7947,0.7925,0.7704,0.7612,0.7612,0.0,0.0,0.7482,0.7329,0.7257,0.737,0.6895,0.6983,0.7788,0.7792,0.7652,0.7348,0.7513,0.7434,0.7031,0.7354,0.7543,0.7814,0.8227,0.8616,0.0,0.0,0.0,0.0,0.0,0.0,0.0,0.0,0.0,0.0,0.0,0.0,0.0,0.0,0.0,0.6063,0.6787,0.7484,0.813,0.8562,0.8648,0.8045,0.8024,0.7963,0.7718,0.7891,0.7919,0.7514,0.7812,0.8076,0.8312,0.7911,0.0,0.7692,0.8117,0.8135,0.7625,0.815,0.8062,0.7629,0.0,0.0,0.6555,0.6552,0.6569,0.635,0.6331,0.6293,0.6134,0.6078,0.6335,0.6948,0.6844,0.6804,0.687,0.7358,0.7198,0.6828,0.7425,0.7311,0.6859,0.6909,0.6935,0.6878,0.6913,0.6827,0.0,0.68,0.6883,0.706,0.7205,0.7406,0.7551,0.7571,0.765,0.7607,0.7523,0.7598,0.7643,0.7577,0.7619,0.7588,0.7584,0.7468,0.7429,0.7512,0.7498,0.7454,0.7318,0.741,0.746,0.746,0.7655,0.7711,0.7605,0.7749,0.7767,0.7526,0.7448,0.7485,0.7604,0.7608,0.7576,0.7521,0.7724,0.7736,0.7641,0.7794,0.7913,0.7991,0.8072,0.8115,0.0,0.0,0.0,0.0,0.0,0.0,0.0,0.0,0.0,0.0,0.0,0.4525,0.0,0.0,0.6007,0.6229,0.6788,0.7323,0.7645,0.7654,0.7789,0.799,0.794,0.7684,0.7343,0.7436,0.7502,0.7332,0.7567,0.7918,0.8269,0.7658,0.7375,0.756,0.7435,0.7224,0.7001,0.7177,0.7149,0.6936,0.6747,0.6591,0.626,0.6357,0.6435,0.65,0.6594,0.6643,0.6614,0.6753,0.704,0.733,0.743,0.7388,0.7209,0.7506,0.7416,0.7299,0.7773,0.7738,0.7469,0.7442,0.7428,0.7394,0.6834,0.6532,0.6303,0.5821,0.6028,0.6357,0.6022,0.6418,0.6893,0.7113,0.7021,0.7104,0.7637,0.774,0.7794,0.799,0.7914,0.7818,0.8011,0.7787,0.7567,0.7495,0.7485,0.7458,0.738,0.7438,0.7485,0.7485,0.78,0.7924,0.7678,0.7866,0.7798,0.759,0.76,0.7631,0.7702,0.7706,0.7743,0.7818,0.7299,0.7134,0.7134,0.66,0.6429,0.6429,0.6429,0.683,0.0,0.0,0.0,0.0,0.0,0.0,0.0,0.0,0.4435,0.481,0.4948,0.5055,0.5379,0.5913,0.6259,0.6374,0.6706,0.6893,0.6879,0.6862,0.7253,0.7968,0.7908,0.7613,0.7054,0.7028,0.709,0.7252,0.7317,0.7566,0.8208,0.7383,0.7118,0.7534,0.6635,0.6199,0.6425,0.6194,0.6203,0.6301,0.6301,0.6347,0.6437,0.6539,0.6639,0.6742,0.6742,0.6945,0.7138,0.7324,0.7472,0.7583,0.7796,0.7687,0.7309,0.754,0.7614,0.7634,0.7885,0.7846,0.7653,0.7646,0.754,0.7235,0.6331,0.5963,0.5567,0.4749,0.4953,0.5339,0.4706,0.5222,0.5917,0.6114,0.6111,0.6313,0.7428,0.771,0.7741,0.8202,0.8237,0.8137,0.8333,0.8034,0.7807,0.7662,0.7641,0.7631,0.7604,0.7624,0.7641,0.7641,0.7941,0.8025,0.7855,0.7855,0.7807,0.7692,0.7685,0.764,0.7557,0.7758,0.7713,0.7431,0.6736,0.6337,0.6134,0.5227,0.4824,0.4824,0.5024,0.5729,0.443,0.4092,0.3808,0.4097,0.3855,0.3833,0.0,0.0,0.4787,0.5243,0.5458,0.5614,0.5764,0.6164,0.6489,0.6604,0.7041,0.7289,0.685,0.7136,0.7251,0.7001,0.6869,0.6747,0.6805,0.661,0.6406,0.6436,0.6269,0.6159,0.6349,0.6182,0.6238,0.6477,0.6421,0.6377,0.6435,0.6377,0.6404,0.6418,0.6418,0.6423,0.6437,0.6845,0.6845,0.6437,0.6742,0.6942,0.7238,0.7223,0.7419,0.7624,0.764,0.7205,0.6768,0.7656,0.7908,0.7912,0.8031,0.7369,0.6592,0.6559,0.5942,0.5133,0.502,0.4988,0.4862,0.4763,0.4999,0.514,0.4888,0.5275,0.5557,0.5129,0.522,0.5617,0.6515,0.6793,0.7186,0.7928,0.8237,0.8333,0.8038,0.8024,0.7963,0.7811,0.7787,0.7743,0.7614,0.7709,0.7787,0.7787,0.7804,0.7865,0.8004,0.8014,0.8007,0.7991,0.7991,0.7499,0.6614,0.7515,0.7117,0.5225,0.5932,0.5932,0.5024,0.4824,0.4824,0.4824,0.6027,0.6129,0.4007,0.4055,0.0,0.0,0.4162,0.4691,0.4926,0.5237,0.5571,0.5743,0.6207,0.6511,0.6477,0.6999,0.7427,0.0,0.7677,0.7868,0.7416,0.7292,0.7152,0.6938,0.6465,0.6433,0.697,0.6462,0.6146,0.6443,0.6149,0.5922,0.6092,0.6214,0.6318,0.6569,0.6614,0.6639,0.6639,0.6437,0.6437,0.6639,0.6639,0.6739,0.6836,0.7147,0.7144,0.7132,0.7338,0.7238,0.6736,0.6736,0.6434,0.5932,0.5932,0.5555,0.5179,0.6553,0.6722,0.6226,0.6174,0.5843,0.5464,0.5539,0.5196,0.4722,0.4021,0.3917,0.3715,0.3122,0.3629,0.407,0.3283,0.3756,0.4367,0.4075,0.406,0.4374,0.5328,0.5613,0.5819,0.6329,0.6329,0.6323,0.6318,0.6728,0.7015,0.6947,0.754,0.7923,0.7865,0.7909,0.7943,0.7943,0.7943,0.797,0.8035,0.8038,0.7739,0.7135,0.7039,0.6836,0.6437,0.6232,0.6029,0.5729,0.4929,0.4628,0.4824,0.4124,0.4225,0.4824,0.5425,0.5527,0.3816,0.0,0.0,0.4003,0.4763,0.5582,0.5311,0.5895,0.6474,0.6373,0.681,0.7217,0.697,0.757,0.0,0.7568,0.7911,0.8117,0.778,0.7388,0.7045,0.6789,0.6266,0.6128,0.6821,0.6342,0.6128,0.6485,0.6202,0.6128,0.6236,0.6393,0.6603,0.6842,0.6842,0.6859,0.6793,0.6656,0.6656,0.6897,0.6859,0.7042,0.7238,0.7247,0.7272,0.7302,0.7256,0.6651,0.577,0.5539,0.5022,0.4422,0.4547,0.4165,0.3775,0.5105,0.5164,0.4722,0.4868,0.466,0.4402,0.4444,0.4191,0.382,0.3022,0.2718,0.2615,0.1918,0.2425,0.2965,0.1938,0.251,0.3233,0.2966,0.2944,0.3251,0.4227,0.442,0.4632,0.5029,0.5027,0.5022,0.5216,0.5727,0.6032,0.6019,0.6625,0.7335,0.7939,0.7739,0.754,0.754,0.7335,0.7132,0.7132,0.7132,0.6833,0.6032,0.5932,0.5832,0.5532,0.5027,0.4926,0.5031,0.3825,0.3423,0.3924,0.3123,0.3324,0.4323,0.4624,0.5027,0.0,0.0,0.4797,0.5216,0.5685,0.6066,0.6347,0.7073,0.7522,0.7031,0.7409,0.7617,0.7066,0.731,0.7638,0.7504,0.7711,0.7704,0.7427,0.7308,0.7011,0.6376,0.6006,0.5828,0.0,0.6086,0.6177,0.6327,0.6314,0.6363,0.6646,0.6651,0.6715,0.6839,0.7042,0.6997,0.6613,0.7,0.7104,0.703,0.7101,0.7238,0.7238,0.7247,0.6934,0.6448,0.5689,0.4873,0.4119,0.3539,0.331,0.3316,0.3891,0.3445,0.2653,0.3186,0.3631,0.4117,0.4636,0.4131,0.3281,0.3277,0.2529,0.1718,0.1617,0.1617,0.1617,0.1617,0.1819,0.2022,0.172,0.2024,0.2328,0.182,0.1921,0.2326,0.3124,0.3534,0.3942,0.4628,0.5225,0.5527,0.5238,0.524,0.524,0.524,0.5031,0.5627,0.7739,0.7135,0.6437,0.6437,0.5527,0.4924,0.4924,0.4924,0.4924,0.4824,0.4824,0.4425,0.3324,0.4225,0.3823,0.1818,0.2722,0.2722,0.1718,0.1617,0.2221,0.3324,0.4325,0.5329,0.0,0.0,0.5689,0.5743,0.6482,0.7121,0.7086,0.7449,0.7624,0.7197,0.7164,0.7215,0.686,0.6808,0.6961,0.7173,0.6736,0.6665,0.7346,0.627,0.567,0.6267,0.5624,0.0,0.0,0.0,0.0,0.616,0.6062,0.6189,0.6643,0.6732,0.6936,0.7169,0.7271,0.6924,0.611,0.6131,0.5891,0.5379,0.517,0.4918,0.4514,0.4518,0.4438,0.4271,0.4031,0.3553,0.2997,0.2773,0.2477,0.2194,0.2418,0.1787,0.0942,0.1465,0.1353,0.1035,0.2324,0.2569,0.2261,0.2244,0.1977,0.1621,0.1641,0.1633,0.1617,0.1617,0.1819,0.193,0.1768,0.197,0.2165,0.1774,0.1779,0.1974,0.233,0.2521,0.2725,0.3124,0.3324,0.3425,0.3124,0.3629,0.4332,0.483,0.4826,0.5027,0.5734,0.5532,0.5327,0.5327,0.5027,0.4824,0.4824,0.4824,0.4524,0.3825,0.3723,0.3624,0.3224,0.2822,0.2622,0.2622,0.2321,0.2321,0.2622,0.2622,0.3224,0.4325,0.5329,0.6032,0.0,0.5846,0.6118,0.6474,0.7359,0.8001,0.7698,0.7942,0.7896,0.7247,0.7101,0.686,0.6351,0.6177,0.6131,0.6445,0.5934,0.5905,0.691,0.5948,0.549,0.6351,0.5399,0.0,0.0,0.0,0.0,0.5646,0.5744,0.5788,0.5929,0.601,0.6182,0.636,0.6471,0.6001,0.504,0.5,0.473,0.403,0.3851,0.3512,0.3211,0.3446,0.3332,0.3091,0.2964,0.2564,0.183,0.1442,0.104,0.0523,0.0737,0.0315,-0.0208,0.0418,0.0105,-0.0316,0.0743,0.1281,0.1391,0.1172,0.1253,0.1328,0.1129,0.1224,0.1314,0.1415,0.1617,0.1829,0.1663,0.1866,0.2061,0.1877,0.1778,0.187,0.213,0.2118,0.2118,0.2321,0.2422,0.232,0.2219,0.2622,0.3126,0.3624,0.3624,0.3925,0.473,0.4427,0.4225,0.4225,0.3924,0.3624,0.3624,0.3624,0.3324,0.2622,0.2622,0.2622,0.2622,0.1918,0.1919,0.2622,0.1919,0.1919,0.2622,0.2622,0.3224,0.4225,0.4929,0.5432,0.5894,0.6046,0.6063,0.7524,0.8279,0.8593,0.8378,0.8449,0.8305,0.7258,0.6896,0.6564,0.0,0.0,0.5195,0.5317,0.5271,0.5524,0.6325,0.6319,0.627,0.0,0.0,0.0,0.0,0.0,0.0,0.4794,0.0,0.5053,0.4723,0.4644,0.4564,0.4459,0.468,0.429,0.3275,0.3642,0.3571,0.2986,0.3036,0.301,0.3012,0.3506,0.3468,0.2756,0.2419,0.167,0.0493,-0.0409,-0.1131,-0.1421,-0.093,-0.0727,-0.0728,-0.0106,-0.0,-0.0,-0.0102,0.0308,0.0731,0.0204,0.041,0.0828,0.0203,0.0404,0.0808,0.0808,0.1212,0.1618,0.1621,0.1823,0.2026,0.2028,0.2025,0.2123,0.2324,0.2221,0.222,0.2425,0.2427,0.2428,0.2425,0.2124,0.1922,0.1618,0.1617,0.2321,0.4423,0.3725,0.3123,0.3123,0.222,0.1617,0.1617,0.1617,0.1617,0.1617,0.1617,0.1617,0.1617,0.1617,0.1617,0.1617,0.1617,0.1617,0.1617,0.1617,0.2119,0.3123,0.3224,0.3725,0.5899,0.6873,0.7591,0.815,0.8513,0.8646,0.8319,0.8021,0.7509,0.6525,0.6027,0.5491,0.0,0.0,0.0,0.5274,0.4882,0.0,0.5947,0.5985,0.0,0.0,0.0,0.6139,0.6572,0.4296,0.0,0.0,0.3168,0.3747,0.4512,0.3974,0.3652,0.3999,0.3569,0.2945,0.1889,0.1296,0.0838,0.0406,0.0404,0.0202,-0.0403,-0.0203,-0.0202,-0.0401,-0.051,-0.0513,-0.0512,-0.0724,-0.0626,-0.0315,-0.0211,-0.042,-0.0831,-0.0626,-0.0829,-0.1125,-0.1216,-0.0516,0.0318,0.0526,0.0732,0.0831,0.0519,0.0922,0.1415,0.1415,0.1617,0.1627,0.1671,0.1776,0.1773,0.1805,0.197,0.2127,0.2464,0.2548,0.2634,0.2775,0.2499,0.2198,0.2167,0.1959,0.1746,0.162,0.1617,0.1818,0.2321,0.2221,0.2019,0.2019,0.1717,0.1617,0.1617,0.1617,0.1617,0.1617,0.1617,0.1617,0.1617,0.1617,0.1617,0.1617,0.1617,0.1617,0.1617,0.1617,0.1717,0.2019,0.2822,0.3324,0.6793,0.7556,0.7955,0.8558,0.8645,0.8482,0.7987,0.7554,0.702,0.6125,0.5621,0.0,0.0,0.0,0.0,0.0,0.0,0.0,0.5547,0.5659,0.5839,0.0,0.5664,0.0,0.5744,0.3518,0.1854,0.0,0.2073,0.2666,0.3058,0.2375,0.201,0.2092,0.1763,0.1219,0.0336,-0.0437,-0.0854,-0.1151,-0.103,-0.1228,-0.1637,-0.1637,-0.1615,-0.158,0.0,-0.0817,-0.0401,-0.0617,-0.0624,-0.0624,-0.0624,-0.0828,-0.1129,-0.1129,-0.1325,-0.1617,-0.1617,-0.1024,-0.0312,-0.0312,0.0208,0.083,0.031,0.0309,0.0615,0.0608,0.0724,0.0957,0.0868,0.0976,0.1081,0.1084,0.1178,0.1375,0.1692,0.1679,0.1774,0.1782,0.1787,0.1683,0.1574,0.1575,0.1675,0.1658,0.1645,0.1637,0.1637,0.1625,0.1617,0.1617,0.1617,0.1617,0.1617,0.1617,0.1622,0.1636,0.1637,0.1637,0.1637,0.1637,0.163,0.1617,0.1617,0.1617,0.1617,0.1617,0.1617,0.1617,0.222,0.2521,0.7935,0.8056,0.7886,0.8656,0.8665,0.8238,0.7433,0.7204,0.6824,0.5894,0.0,0.0,0.4538,0.0,0.3423,0.4134,0.0,0.447,0.4972,0.5398,0.5639,0.5661,0.4651,0.4093,0.4536,0.2502,0.0915,0.0417,0.1279,0.1548,0.1119,0.0511,0.0105,-0.0224,-0.0224,-0.0449,-0.1009,-0.1544,-0.1749,-0.1747,-0.169,-0.1663,-0.156,-0.1451,-0.1514,-0.155,-0.0825,0.0,-0.0096,-0.0507,-0.1025,-0.1516,-0.1516,-0.1516,-0.1516,-0.1516,-0.1516,-0.1516,-0.1617,-0.1313,-0.101,-0.1415,-0.0614,0.0518,-0.0306,-0.0619,-0.0628,-0.0721,-0.0427,-0.0112,-0.0112,0.0112,0.0223,0.0219,0.0332,0.0446,0.0654,0.0542,0.0431,0.032,0.0737,0.1049,0.085,0.1174,0.1495,0.1598,0.1575,0.1559,0.1459,0.1536,0.1617,0.1617,0.1617,0.1617,0.1617,0.1617,0.163,0.166,0.1662,0.1664,0.1667,0.1665,0.165,0.1624,0.1623,0.1623,0.1623,0.1626,0.1628,0.1628,0.1628,0.1628,0.7334,0.8059,0.8653,0.8774,0.8428,0.7984,0.7485,0.7046,0.0,0.0,0.0,0.5161,0.4677,0.4229,0.0,0.4587,0.0,0.0,0.0,0.0,0.6275,0.0,0.0,0.0,0.0,0.0,0.0,0.0,0.0,-0.0214,0.0216,-0.0328,-0.0886,-0.1458,-0.1458,-0.157,-0.1683,-0.1765,-0.1746,-0.1846,-0.1687,-0.1458,-0.1045,-0.0512,-0.0815,-0.1639,-0.1021,0.0,-0.1302,-0.1416,-0.1216,-0.0909,-0.0909,-0.0909,-0.0909,-0.0909,-0.0909,-0.101,-0.1415,-0.1516,-0.1516,-0.1617,-0.1125,-0.0519,-0.0728,-0.0736,-0.0534,-0.0219,-0.0109,-0.0,-0.0,-0.0,-0.0,-0.0,0.0224,0.0446,0.0438,0.0432,0.0427,0.0426,0.0322,0.0324,0.0854,0.0539,0.0433,0.0854,0.084,0.0626,0.0212,0.1031,0.1617,0.1617,0.1617,0.1617,0.1617,0.1617,0.163,0.166,0.1662,0.1673,0.1696,0.1675,0.166,0.1654,0.1654,0.1654,0.1654,0.1677,0.1689,0.1689,0.1689,0.1689,0.7756,0.8319,0.8903,0.875,0.8258,0.7611,0.6848,0.0,0.0,0.0,0.0,0.4754,0.4522,0.0,0.0,0.0,0.0,0.0,0.0,0.0,0.0,0.0,0.0,0.0,0.0,0.0,0.0,0.0,0.0,-0.0217,-0.0443,-0.1005,-0.1458,-0.1795,-0.1795,-0.1795,-0.1795,-0.178,-0.1771,-0.1766,-0.1511,-0.1282,-0.107,-0.0944,-0.1045,-0.1263,-0.124,0.0,-0.0597,-0.1308,-0.1298,-0.0785,-0.0501,-0.0406,-0.0409,-0.0405,-0.0406,-0.0512,-0.1318,-0.1627,-0.1538,-0.0923,-0.1031,-0.125,-0.0948,-0.1068,-0.1192,-0.0988,-0.0879,-0.0989,-0.0893,-0.0897,-0.0897,-0.0897,-0.0785,-0.0783,-0.0777,-0.076,-0.075,-0.0763,-0.0434,-0.0325,-0.0437,-0.0,0.0331,0.0329,0.0324,0.0213,-0.0,0.0417,0.0718,0.0718,0.0718,0.0718,0.0718,0.0723,0.0733,0.0853,0.0854,0.0857,0.0863,0.0857,0.085,0.0737,0.0736,0.0736,0.0737,0.0742,0.0745,0.0745,0.1065,0.1278,0.8085,0.8499,0.8879,0.8525,0.8055,0.7282,0.6338,0.5698,0.0,0.0,0.0,0.0,0.0,0.0,0.0,0.0,0.0,0.0,0.0,0.0,0.0,0.0,0.0,0.0,0.0,0.0,0.0,0.0,0.0,0.0,-0.1008,-0.157,-0.1795,-0.1795,-0.1795,-0.1795,-0.1795,-0.1795,-0.1792,-0.1785,-0.1431,-0.1312,-0.1311,-0.1613,-0.1494,-0.1066,-0.1571,0.0,0.0,0.03,-0.0395,-0.0573,-0.02,-0.0,-0.0,-0.0,-0.0,-0.0103,-0.1015,-0.1228,-0.1143,-0.0313,-0.0628,-0.137,-0.1175,-0.1411,-0.1757,-0.1531,-0.155,-0.1683,-0.1795,-0.1795,-0.1795,-0.1795,-0.1683,-0.157,-0.157,-0.1644,-0.1731,-0.1776,-0.1092,-0.0756,-0.1444,-0.0671,0.0112,-0.0,-0.0221,-0.0436,-0.0431,-0.0316,-0.0312,-0.0313,-0.0104,-0.0,-0.0,-0.0105,-0.0107,-0.0,-0.0,-0.0,-0.0,-0.0,-0.0,-0.0107,-0.0107,-0.0107,-0.0107,-0.0108,-0.0108,-0.0108,0.0431,0.0646,0.773,0.8265,0.8696,0.7939,0.7555,0.7241,0.67,0.0,0.0,0.0,0.4964,0.4691,0.0,0.0,0.0,0.0,0.0,0.0,0.0,0.0,0.0,0.0,0.0,0.0,0.0,0.0,0.0,0.0,0.0,0.0,-0.1683,-0.1795,-0.1795,-0.1795,-0.1795,-0.1795,-0.1795,-0.1795,-0.1781,-0.1754,-0.1751,-0.175,-0.1748,-0.1828,-0.1814,-0.1706,-0.178,0.0,0.0,0.4489,0.2668,-0.0096,-0.0,-0.0,-0.0,-0.0,-0.0,-0.0,-0.0101,-0.0102,-0.0104,-0.0,-0.0108,-0.0327,-0.142,-0.1768,-0.1679,-0.1118,-0.1008,-0.1121,-0.1683,-0.1795,-0.1795,-0.1795,-0.1346,-0.1009,-0.1009,-0.1437,-0.1748,-0.1752,-0.1202,-0.0764,-0.0876,-0.1221,-0.1234,-0.0112,-0.0884,-0.1649,-0.1672,-0.1499,-0.1464,-0.1488,-0.0629,-0.0,-0.0,-0.0105,-0.0107,-0.0,-0.0,-0.0,-0.0,-0.0,-0.0,-0.0,-0.0,-0.0,-0.0,-0.0,-0.0,-0.0,-0.0,0.0112,0.7444,0.7717,0.7927,0.7701,0.7034,0.6418,0.6239,0.0,0.0,0.4913,0.4678,0.4566,0.489,0.0,0.0,0.0,0.0,0.0,0.0,0.0,0.0,0.0,0.0,0.0,0.0,0.0,0.0,0.0,0.0,0.0,-0.1793,-0.1795,-0.1795,-0.1795,-0.1795,-0.1795,-0.1795,-0.1795,-0.1789,-0.1777,-0.1777,-0.1777,-0.1776,-0.1746,-0.1841,-0.1839,-0.1788,0.0,0.0,0.4166,0.3611,0.1389,0.0398,-0.0,-0.0,-0.0,-0.0,-0.0,-0.0,-0.0,-0.0,-0.0,-0.0,-0.0111,-0.0555,-0.1228,-0.1795,-0.1458,-0.0897,-0.0449,-0.1121,-0.1234,-0.1346,-0.1683,-0.157,-0.1234,-0.0561,-0.0554,-0.0878,-0.1663,-0.1542,-0.1098,-0.0443,-0.0558,-0.0673,-0.0561,-0.1004,-0.122,-0.1216,-0.1194,-0.1177,-0.1174,-0.106,-0.095,-0.1056,-0.1082,-0.1102,-0.111,-0.111,-0.1114,-0.1121,-0.1114,-0.111,-0.111,-0.111,-0.111,-0.111,-0.1118,-0.1121,-0.1121,-0.0673,-0.0561,0.6702,0.6966,0.7045,0.6795,0.6245,0.572,0.0,0.0,0.0,0.4691,0.4654,0.4535,0.4435,0.0,0.0,0.0,0.0,0.0,0.0,0.0,0.0,0.0,0.0,0.0,0.0,0.0,0.0,0.0,0.0,0.0,0.0,-0.1683,-0.157,-0.1795,-0.1795,-0.1795,-0.1795,-0.1795,-0.1791,-0.1782,-0.1782,-0.1767,-0.1851,-0.1847,-0.1615,-0.1272,-0.1254,0.0,0.0,0.2771,0.3603,0.304,0.0892,-0.0,-0.0,-0.0,-0.0,-0.0,-0.0,-0.0,-0.0,-0.0,-0.0,-0.0,-0.0,-0.0561,-0.1234,-0.1234,-0.0673,-0.0112,-0.0561,-0.0673,-0.0785,-0.1121,-0.1234,-0.1009,-0.0224,-0.0,-0.0221,-0.1119,-0.1223,-0.0886,-0.0112,-0.0,-0.0112,-0.0561,-0.067,-0.0666,-0.0661,-0.0764,-0.0866,-0.0861,-0.1183,-0.1398,-0.1397,-0.1545,-0.157,-0.157,-0.157,-0.157,-0.1795,-0.1795,-0.1795,-0.1795,-0.1795,-0.1795,-0.1795,-0.1795,-0.1795,-0.1795,-0.1346,-0.1118,0.529,0.5886,0.6342,0.5061,0.5115,0.5486,0.0,0.0,0.0,0.5193,0.5067,0.479,0.4049,0.0,0.0,0.0,0.0,0.0,0.0,0.0,0.0,0.0,0.0,0.0,0.0,0.0,0.0,0.0,0.0,0.0,0.0,-0.1234,-0.1234,-0.1795,-0.1795,-0.1795,-0.1795,-0.1795,-0.178,-0.175,-0.175,-0.1811,-0.1823,-0.1786,-0.114,0.0,0.0,0.0,0.0,0.0994,0.2766,0.4608,0.132,-0.0,-0.0,-0.0,-0.0,-0.0,-0.0,-0.0,-0.0,-0.0,-0.0,-0.0,-0.0,-0.0,-0.0,-0.0,-0.0,-0.0,-0.0,-0.0,-0.0,-0.0,-0.0,-0.0,-0.0,-0.0,-0.0,-0.0,-0.0,-0.0,-0.0,-0.0,-0.0,-0.0,-0.0,-0.0,-0.0,-0.0545,-0.0859,-0.0765,-0.0767,-0.0766,-0.0765,-0.0888,-0.0897,-0.0897,-0.0897,-0.1121,-0.1795,-0.1795,-0.1795,-0.1795,-0.1795,-0.1795,-0.1795,-0.1795,-0.1795,-0.1795,-0.1795,-0.1779,0.4964,0.495,0.4729,0.4583,0.4554,0.4581,0.459,0.0,0.0,0.0,0.0,0.0,0.0,0.0,0.0,0.0,0.0,0.0,0.0,0.0,0.0,0.0,0.0,0.0,0.0,0.0,0.0,0.0,0.0,0.0,0.0,-0.1214,-0.122,-0.1794,-0.1795,-0.1795,-0.1795,-0.1441,-0.1209,-0.1202,-0.1189,-0.1158,-0.1213,-0.1658,0.0,0.0,0.0,0.0,0.0,0.0298,0.1185,0.2299,0.0601,0.0512,0.1132,0.0307,-0.0,-0.0,-0.0,-0.0,-0.0,-0.0,-0.0,-0.0,-0.0,-0.0,-0.0,-0.0,-0.0,-0.0,-0.0,-0.0,-0.0,-0.0,-0.0,-0.0,-0.0,-0.0,-0.0,-0.0,-0.0,-0.0,-0.0,-0.0,-0.0,-0.0,-0.0,-0.0,-0.0,-0.0111,-0.0332,-0.0223,-0.0223,-0.0222,-0.0219,-0.1,-0.1121,-0.0336,-0.1009,-0.1234,-0.0561,-0.1346,-0.1795,-0.1795,-0.1795,-0.1795,-0.1795,-0.1795,-0.1784,-0.1764,-0.1764,-0.1759,0.0,0.4125,0.3873,0.3782,0.39,0.0,0.0,0.0,0.0,0.0,0.0,0.0,0.0,0.0,0.0,0.0,0.0,0.0,0.0,0.0,0.0,0.0,0.0,0.0,0.0,0.0,0.0,0.0,0.0,0.0,0.0,-0.0766,-0.0766,-0.1094,-0.1318,-0.1542,-0.1762,-0.1416,-0.0972,-0.0536,-0.0531,-0.0516,-0.0594,-0.0914,0.0,0.0,0.0,0.0,0.0,-0.0,0.0299,0.0782,0.02,0.0509,0.1129,0.0812,0.0716,0.0621,0.0203,-0.0,-0.0,-0.0,-0.0,-0.0,-0.0,-0.0,-0.0,-0.0,-0.0,-0.0,-0.0,-0.0,-0.0,-0.0,-0.0,-0.0,-0.0,-0.0,-0.0,-0.0,-0.0,-0.0,-0.0,-0.1458,-0.213,-0.0224,-0.078,-0.1669,-0.2577,-0.1895,-0.1334,-0.1343,-0.1344,-0.1338,-0.1326,-0.1226,-0.1009,-0.0673,-0.1009,-0.0785,-0.0,-0.0897,-0.1458,-0.1458,-0.1458,-0.1458,-0.157,-0.1683,-0.1785,-0.1766,-0.1755,-0.175,0.0,0.0,0.0,0.0,0.0,0.0,0.0,0.0,0.0,0.0,0.0,0.0,0.0,0.0,0.0,0.0,0.0,0.0,0.0,0.0,0.0,0.0,0.0,0.0,0.0,0.0,0.0,0.0,0.0,0.0,0.0,-0.0,-0.0,-0.0,-0.0529,-0.1064,-0.1707,-0.1705,-0.1055,0.0103,-0.0,-0.0,-0.0,-0.0,0.0,0.0,0.0,0.0,0.0,-0.0,-0.0,-0.0,-0.0,-0.0,0.0101,0.1316,0.1843,0.1658,0.0509,0.0102,-0.0,-0.0,-0.0,-0.0,0.0109,0.0111,-0.0,-0.0,-0.0,-0.0,-0.0,-0.0,-0.0,-0.0,-0.0,-0.0,-0.0,-0.0,-0.0112,-0.0449,-0.0561,-0.0449,-0.0337,-0.3935,-0.5514,-0.1121,-0.2321,-0.4519,-0.6855,-0.52,-0.3848,-0.391,-0.3805,-0.3805,-0.3805,-0.168,-0.0785,-0.1907,-0.0897,-0.0224,-0.0224,-0.0785,-0.1121,-0.1121,-0.1121,-0.1346,-0.1458,-0.1795,-0.1905,-0.1791,-0.1763,-0.175,0.3266,0.0,0.2843,0.2342,0.0,0.0,0.0,0.0,0.0,0.0,0.0,0.0,0.0,0.0,0.0,0.0,0.0,0.0,0.0,0.0,0.0,0.0,0.0,0.0,0.0,0.0,0.0,0.0,0.0,0.0,0.0,-0.0,-0.0,-0.0,-0.0104,-0.0311,-0.0427,-0.0421,0.0103,0.0995,0.0303,-0.0,-0.0,-0.0,-0.0,0.0,0.0,0.0,-0.0,-0.0,-0.0,-0.0,-0.0,-0.0,0.0103,0.1341,0.176,0.1765,0.1448,0.082,-0.0,-0.0,-0.0,0.0215,0.1074,0.0767,-0.0,-0.0,-0.0,-0.0,-0.0,-0.0,-0.0,-0.0,-0.0,-0.0,-0.0,-0.0,-0.1238,-0.5256,-0.5784,-0.4961,-0.3075,-0.3767,-0.4892,-0.5396,-0.4402,-0.4525,-0.6865,-0.6717,-0.6371,-0.6398,-0.64,-0.64,-0.64,-0.4933,-0.3808,-0.3246,-0.2573,-0.2462,-0.2686,-0.291,-0.291,-0.291,-0.392,-0.4148,-0.3701,-0.3363,-0.2673,-0.176,-0.1753,-0.175,0.2991,0.2725,0.2508,0.229,0.2778,0.3186,0.0,0.0,0.0,0.0,0.0,0.0,0.0,0.0,0.0,0.0,0.0,0.0,0.0,0.0,0.0,0.0,0.0,0.0,0.0,0.0,0.0,0.0,0.0,0.0,0.0,-0.0,-0.0,-0.0,-0.0,-0.0,-0.0,-0.0,0.0604,0.1842,0.0997,0.0392,-0.0,-0.0,0.03,0.0,0.0,0.0,-0.0,-0.0,-0.0,-0.0,-0.0,-0.0,0.0103,0.1333,0.1753,0.1764,0.1749,0.1019,-0.0,-0.0,-0.0,0.0211,0.1384,0.1304,0.0667,0.0112,-0.0,-0.0,-0.0,-0.0,-0.0,-0.0,-0.1814,-0.3661,-0.3638,-0.2622,-0.264,-0.5456,-0.6787,-0.6974,-0.5561,-0.5392,-0.5906,-0.7164,-0.6129,-0.5766,-0.7083,-0.7182,-0.7176,-0.7176,-0.7176,-0.7176,-0.7176,-0.6609,-0.5935,-0.5268,-0.5043,-0.5043,-0.5268,-0.5268,-0.5268,-0.5268,-0.5382,-0.527,-0.4935,-0.4258,-0.3681,-0.2984,-0.296,-0.2743,0.2669,0.2402,0.2336,0.2347,0.2678,0.2982,0.0,0.0,0.0,0.0,0.0,0.0,0.0,0.0,0.0,0.0,0.0,0.0,0.0,0.0,0.0,0.0,0.0,0.0,0.0,0.0,0.0,0.0,0.0,0.0,0.0,0.0101,-0.0,-0.0,-0.0,0.0103,0.0202,0.0101,0.0693,0.2094,0.1672,0.108,0.019,0.0198,0.0707,0.1614,0.0,0.0,0.0202,0.0098,-0.0,-0.0,-0.0,-0.0101,-0.0202,0.0811,0.133,0.1549,0.0713,0.0202,-0.0101,-0.0405,-0.0307,0.0104,0.0955,0.0862,0.0438,-0.0222,-0.0783,-0.1234,-0.1234,-0.0897,-0.0561,-0.0561,-0.4023,-0.7407,-0.7803,-0.6076,-0.4465,-0.4475,-0.6181,-0.7555,-0.7551,-0.7399,-0.7293,-0.7503,-0.7406,-0.7209,-0.7206,-0.7176,-0.7154,-0.7154,-0.7154,-0.7154,-0.7154,-0.7154,-0.7165,-0.7187,-0.719,-0.719,-0.719,-0.719,-0.719,-0.719,-0.6168,-0.5714,-0.5717,-0.5154,-0.4929,-0.4927,-0.4856,-0.4417,0.2861,0.246,0.208,0.2124,0.2789,0.3305,0.0,0.0,0.0,0.0,0.0,0.0,0.0,0.0,0.0,0.0,0.0,0.0,0.0,0.0,0.0,0.0,0.0,0.0,0.0,0.0,0.0,0.0,0.0,0.0,0.0,0.0505,-0.0,-0.0,-0.0,0.0405,0.1314,0.0404,0.0099,0.0375,0.1699,0.1887,0.1128,0.1285,0.1415,0.1616,0.0,0.1407,0.101,0.0301,-0.0,-0.0,-0.0,-0.0808,-0.2025,-0.1849,-0.0615,0.0406,-0.4227,-0.3278,-0.0304,-0.2153,-0.1447,-0.0208,-0.1378,-0.3313,-0.4731,-0.2496,-0.4205,-0.6654,-0.6654,-0.4836,-0.3143,-0.3256,-0.3908,-0.518,-0.7367,-0.7581,-0.7335,-0.7306,-0.7471,-0.7546,-0.7657,-0.7646,-0.7595,-0.751,-0.7478,-0.7426,-0.7326,-0.722,-0.7154,-0.7154,-0.7154,-0.7154,-0.7154,-0.7154,-0.7157,-0.716,-0.7163,-0.7163,-0.7163,-0.7163,-0.7163,-0.7163,-0.7046,-0.694,-0.6956,-0.6844,-0.6733,-0.674,-0.6723,-0.6723,0.2148,0.2025,0.2074,0.2135,0.2545,0.0,0.0,0.0,0.0,0.0,0.0,0.0,0.0,0.0,0.0,0.0,0.0,0.0,0.0,0.0,0.0,0.0,0.0,0.0,0.0,0.0,0.0,0.0,0.0,0.0,0.0,0.0,0.0606,-0.0,0.0303,-0.0303,-0.1817,-0.0,0.089,0.104,0.1449,0.1061,0.0189,-0.0297,-0.0202,0.0504,0.0,0.0808,0.1412,0.0593,0.0198,-0.0,-0.0,-0.2022,-0.4979,-0.4961,-0.3199,-0.1334,-0.4288,-0.4551,-0.3443,-0.1955,-0.2368,-0.3595,-0.429,-0.5374,-0.6125,-0.4869,-0.5064,-0.5994,-0.7362,-0.6735,-0.5733,-0.5875,-0.5929,-0.625,-0.7668,-0.7934,-0.7859,-0.7911,-0.7826,-0.766,-0.7774,-0.7633,-0.7529,-0.7606,-0.7448,-0.7326,-0.7334,-0.723,-0.7154,-0.7154,-0.7154,-0.7154,-0.7154,-0.7154,-0.7154,-0.7154,-0.7154,-0.7154,-0.7154,-0.7154,-0.7154,-0.7154,-0.7154,-0.716,-0.7168,-0.7168,-0.7171,-0.7176,-0.7241,-0.7126,0.1533,0.1631,0.2056,0.2134,0.0,0.0,0.0,0.0,0.0,0.0,0.0,0.0,0.0,0.0,0.0,0.0,0.0,0.0,0.0,0.0,0.0,0.0,0.0,0.0,0.0,0.0,0.0,0.0,0.0,0.0,0.0,0.0,-0.0707,-0.0404,-0.0301,-0.17,-0.4712,-0.1509,0.0497,0.1063,0.0498,-0.0199,-0.1062,-0.1993,-0.1817,-0.0706,-0.0605,0.0303,0.1513,0.1077,0.059,0.0202,-0.0,-0.2224,-0.5694,-0.6738,-0.5512,-0.3323,-0.412,-0.5424,-0.6228,-0.2694,-0.3392,-0.5694,-0.5824,-0.6145,-0.6421,-0.6347,-0.5448,-0.5064,-0.6952,-0.7462,-0.749,-0.7472,-0.7521,-0.7593,-0.7853,-0.7917,-0.7872,-0.7872,-0.7801,-0.7761,-0.782,-0.7625,-0.7505,-0.7638,-0.7421,-0.7263,-0.7328,-0.723,-0.7154,-0.7154,-0.7154,-0.7154,-0.7154,-0.7154,-0.7154,-0.7154,-0.7154,-0.7154,-0.7154,-0.7154,-0.7154,-0.7154,-0.7154,-0.7171,-0.7195,-0.7059,-0.7059,-0.7089,-0.704,-0.6922,0.1596,0.1634,0.1875,0.2068,0.0,0.0,0.0,0.0,0.0,0.0,0.0,0.0,0.0,0.0,0.0,0.0,0.0,0.0,0.0,0.0,0.0,0.0,0.0,0.0,0.0,0.0,0.0,0.0,0.0,0.0,0.0,0.0,0.0,-0.1819,-0.2761,-0.37,-0.4681,-0.4283,-0.3118,-0.1305,-0.141,-0.1509,-0.1604,-0.2316,-0.2219,-0.1513,-0.0504,0.0605,0.1616,0.1511,0.121,0.0707,0.0202,-0.0202,-0.1011,-0.5583,-0.6564,-0.5834,-0.6458,-0.6738,-0.6657,-0.6128,-0.4771,-0.355,-0.4203,-0.5399,-0.6406,-0.6132,-0.6379,-0.6694,-0.7108,-0.7225,-0.731,-0.7502,-0.7521,-0.7495,-0.7734,-0.7861,-0.7872,-0.7872,-0.7864,-0.7828,-0.7731,-0.778,-0.7763,-0.7562,-0.7508,-0.7453,-0.735,-0.723,-0.7154,-0.7154,-0.7154,-0.7154,-0.7154,-0.7154,-0.7154,-0.7154,-0.7154,-0.7154,-0.7154,-0.7154,-0.7154,-0.7154,-0.6935,-0.6875,-0.7323,-0.6656,-0.6549,-0.687,-0.6551,-0.6559,0.1415,0.1286,0.1379,0.1893,0.0,0.0,0.0,0.0,0.0,0.0,0.0,0.0,0.0,0.0,0.0,0.0,0.0,0.0,0.0,0.0,0.0,0.0,0.0,0.0,0.0,0.0,0.0,0.0,0.0,0.0,0.0,0.0,0.0,-0.3934,-0.351,-0.4173,-0.595,-0.435,-0.3592,-0.3891,-0.2687,-0.2314,-0.2618,-0.2922,-0.2822,-0.2622,-0.2253,-0.1439,-0.0308,0.1026,0.1437,0.1231,0.0304,-0.0,-0.0411,-0.3768,-0.5702,-0.6782,-0.6885,-0.669,-0.6437,-0.6583,-0.5867,-0.5056,-0.5435,-0.602,-0.6372,-0.6318,-0.6395,-0.6575,-0.6714,-0.6937,-0.7152,-0.7379,-0.7293,-0.7232,-0.7498,-0.7643,-0.7723,-0.778,-0.7823,-0.7834,-0.7722,-0.7736,-0.7736,-0.7646,-0.7502,-0.7415,-0.7445,-0.7277,-0.7154,-0.7154,-0.7154,-0.7154,-0.7154,-0.7154,-0.7154,-0.7154,-0.7154,-0.7154,-0.7154,-0.7154,-0.7154,-0.7154,-0.7118,-0.703,-0.6888,-0.6809,-0.6584,-0.6559,-0.6468,-0.6389,0.1252,0.105,0.1058,0.1528,0.0,0.0,0.0,0.0,0.0,0.0,0.0,0.0,0.0,0.0,0.0,0.0,0.0,0.0,0.0,0.0,0.0,0.0,0.0,0.0,0.0,0.0,0.0,0.0,0.0,0.0,0.0,0.0,0.0,0.0,-0.5029,-0.5522,-0.7092,-0.5244,-0.4791,-0.5654,-0.4491,-0.3881,-0.3896,-0.3917,-0.4028,-0.4031,-0.3586,-0.3089,-0.246,-0.0,0.0925,0.0821,0.0101,-0.0102,-0.0309,-0.3038,-0.5406,-0.716,-0.6973,-0.6685,-0.6365,-0.654,-0.6347,-0.6258,-0.63,-0.6385,-0.6353,-0.6339,-0.6355,-0.6445,-0.648,-0.6685,-0.689,-0.7183,-0.7152,-0.7179,-0.7387,-0.7478,-0.7533,-0.7695,-0.7763,-0.7793,-0.7714,-0.7731,-0.7731,-0.7655,-0.7535,-0.7467,-0.7513,-0.7372,-0.7255,-0.7217,-0.7176,-0.7154,-0.7154,-0.7154,-0.7171,-0.7209,-0.7211,-0.7195,-0.7157,-0.7154,-0.7154,-0.7154,-0.7014,-0.6922,-0.6768,-0.6505,-0.6391,-0.6212,-0.6164,-0.6098,0.1145,0.1054,0.0986,0.0921,0.0,0.0,0.0,0.0,0.0,0.0,0.0,0.0,0.0,0.0,0.0,0.0,0.0,0.0,0.0,0.0,0.0,0.0,0.0,0.0,0.0,0.0,0.0,0.0,0.0,0.0,0.0,0.0,0.0,0.0,-0.7742,-0.8113,-0.7944,-0.7743,-0.7363,-0.6636,-0.6871,-0.652,-0.5489,-0.5591,-0.5737,-0.5837,-0.4021,-0.3819,-0.4622,-0.1613,-0.0505,-0.0504,-0.0504,-0.0303,-0.0405,-0.3916,-0.5989,-0.7135,-0.6995,-0.6813,-0.6782,-0.6352,-0.6337,-0.6358,-0.6279,-0.6334,-0.6437,-0.6234,-0.6334,-0.6437,-0.6437,-0.6469,-0.6694,-0.6966,-0.7126,-0.7202,-0.7289,-0.7431,-0.7494,-0.763,-0.7701,-0.7701,-0.7701,-0.7796,-0.779,-0.7554,-0.7622,-0.7657,-0.7535,-0.7516,-0.747,-0.7347,-0.7228,-0.7265,-0.7265,-0.7265,-0.7206,-0.7328,-0.7336,-0.7282,-0.7163,-0.7157,-0.7157,-0.7157,-0.6609,-0.6554,-0.6886,-0.597,-0.5627,-0.5972,-0.5622,-0.5675,0.17,0.1311,0.0,0.0,0.0,0.0,0.0,0.0,0.0,0.0,0.0,0.0,0.0,0.0,0.0,0.0,0.0,0.0,0.0,0.0,0.0,0.0,0.0,0.0,0.0,0.0,0.0,0.0,0.0,0.0,0.0,0.0,0.0,0.0,-0.812,-0.8208,-0.8113,-0.7539,-0.7207,-0.6943,-0.6977,-0.6643,-0.6042,-0.6046,-0.6046,-0.6192,-0.5659,-0.5286,-0.4843,-0.321,-0.2019,-0.1313,-0.2121,-0.2323,-0.2428,-0.4121,-0.5207,-0.5855,-0.6022,-0.6342,-0.6766,-0.6839,-0.6971,-0.7045,-0.7387,-0.7472,-0.7537,-0.7437,-0.7543,-0.755,-0.755,-0.7265,-0.7032,-0.6879,-0.6804,-0.6795,-0.7065,-0.7216,-0.7351,-0.7519,-0.7644,-0.7793,-0.8169,-0.7976,-0.7911,-0.8134,-0.7856,-0.7657,-0.7535,-0.7671,-0.7718,-0.7911,-0.8012,-0.8152,-0.8371,-0.8042,-0.7768,-0.79,-0.7564,-0.7358,-0.7407,-0.741,-0.741,-0.741,-0.738,-0.7049,-0.6652,-0.6493,-0.6138,-0.572,-0.5539,-0.5592,0.1988,0.0,0.0,0.0,0.0,0.0,0.0,0.0,0.0,0.0,0.0,0.0,0.0,0.0,0.0,0.0,0.0,0.0,0.0,0.0,0.0,0.0,0.0,0.0,0.0,0.0,0.0,0.0,0.0,0.0,0.0,0.0,0.0,0.0,-0.8201,-0.8032,-0.7933,-0.7496,-0.7234,-0.7234,-0.7268,-0.708,-0.6952,-0.6816,-0.6855,-0.712,-0.6707,-0.5858,-0.4458,-0.3927,-0.3158,-0.2273,-0.279,-0.3097,-0.3302,-0.3772,-0.433,-0.5079,-0.5753,-0.6277,-0.6711,-0.7284,-0.7537,-0.7537,-0.7939,-0.8041,-0.8045,-0.8041,-0.7952,-0.7959,-0.8045,-0.7736,-0.7431,-0.7147,-0.6975,-0.7025,-0.732,-0.759,-0.7879,-0.8093,-0.8203,-0.8365,-0.8567,-0.8343,-0.8277,-0.8356,-0.8284,-0.8072,-0.7874,-0.7982,-0.8243,-0.8363,-0.8351,-0.8374,-0.8702,-0.8374,-0.8214,-0.824,-0.8019,-0.7849,-0.7866,-0.7704,-0.7561,-0.7217,-0.724,-0.6985,-0.6228,-0.6253,-0.6014,-0.5541,-0.5555,-0.56,0.0,0.0,0.0,0.0,0.0,0.0,0.0,0.0,0.0,0.0,0.0,0.0,0.0,0.0,0.0,0.0,0.0,0.0,0.0,0.0,0.0,0.0,0.0,0.0,0.0,0.0,0.0,0.0,0.0,0.0,0.0,0.0,0.0,-0.8134,-0.8006,-0.7764,-0.7577,-0.7499,-0.7507,-0.7507,-0.7665,-0.7746,-0.7933,-0.7601,-0.7752,-0.8228,-0.7266,-0.5769,-0.3994,-0.4273,-0.3898,-0.315,-0.2823,-0.2942,-0.3344,-0.3309,-0.3773,-0.4745,-0.5982,-0.6518,-0.6893,-0.7782,-0.8038,-0.8038,-0.8137,-0.8148,-0.8151,-0.8141,-0.8155,-0.8161,-0.8131,-0.8107,-0.8001,-0.7643,-0.7456,-0.7588,-0.784,-0.8317,-0.8732,-0.8987,-0.914,-0.9081,-0.8987,-0.8907,-0.88,-0.8454,-0.8567,-0.8681,-0.8442,-0.8558,-0.87,-0.87,-0.8351,-0.8266,-0.8595,-0.8595,-0.8549,-0.8354,-0.859,-0.8654,-0.8451,-0.8099,-0.7584,-0.7028,-0.6917,-0.6524,-0.5974,-0.5923,-0.5801,-0.5635,-0.5685,-0.5716,0.0,0.0,0.0,0.0,0.0,0.0,0.0,0.0,0.0,0.0,0.0,0.0,0.0,0.0,0.0,0.0,0.0,0.0,0.0,0.0,0.0,0.0,0.0,0.0,0.0,0.0,0.0,0.0,0.0,0.0,0.0,0.0,0.0,-0.794,-0.8036,-0.8036,-0.7852,-0.7408,-0.7408,0.0,-0.7669,-0.7753,-0.8109,-0.7808,-0.7753,-0.7827,-0.7115,-0.6447,-0.569,-0.5134,-0.4311,-0.3528,-0.3306,-0.3625,-0.403,-0.3906,-0.4241,-0.4855,-0.6044,-0.6968,-0.7805,-0.8151,-0.8432,-0.8726,-0.913,-0.9232,-0.9232,-0.9232,-0.9236,-0.9236,-0.9229,-0.8913,-0.8605,-0.8517,-0.8247,-0.8096,-0.8069,-0.8444,-0.8779,-0.8833,-0.895,-0.9274,-0.9646,-0.9411,-0.9029,-0.88,-0.8571,-0.8454,-0.8454,-0.8561,-0.8814,-0.9037,-0.9022,-0.9375,-0.9812,-0.9485,-0.922,-0.9253,-0.8927,-0.8654,-0.8451,-0.8311,-0.811,-0.7853,-0.7971,-0.7721,-0.7228,-0.7396,-0.7346,-0.6978,-0.7029,-0.6803,0.0,0.0,0.0,0.0,0.0,0.0,0.0,0.0,0.0,0.0,0.0,0.0,0.0,0.0,0.0,0.0,0.0,0.0,0.0,0.0,0.0,0.0,0.0,0.0,0.0,0.0,0.0,0.0,0.0,0.0,0.0,-0.776,-0.7852,-0.768,-0.768,-0.7588,-0.7499,-0.7228,-0.7319,-0.768,-0.7588,-0.7672,-0.7845,-0.7933,-0.7908,-0.7732,-0.664,-0.6054,-0.5807,-0.5017,-0.4391,-0.3985,-0.425,-0.4662,-0.4964,-0.4718,-0.4965,-0.5464,-0.6415,-0.7144,-0.7753,-0.8538,-0.8832,-0.9031,-0.943,-0.9628,-0.9628,-0.9628,-0.9628,-0.9628,-0.9628,-0.9422,-0.9217,-0.9217,-0.8832,-0.8538,-0.8609,-0.8965,-0.9268,-0.9485,-0.9512,-0.9596,-0.9706,-0.9398,-0.9054,-0.8827,-0.883,-0.883,-0.883,-0.8987,-0.9161,-0.9604,-0.9536,-0.9599,-1.0257,-1.0036,-0.9743,-0.9712,-0.9604,-0.9307,-0.9051,-0.9054,-0.8663,-0.7985,-0.8096,-0.7949,-0.7437,-0.7671,-0.7666,-0.7432,-0.7491,-0.7253,0.0,0.0,0.0,0.0,0.0,0.0,0.0,0.0,0.0,0.0,0.0,0.0,0.0,0.0,0.0,0.0,0.0,0.0,0.0,0.0,0.0,0.0,0.0,0.0,0.0,0.0,0.0,0.0,0.0,0.0,-0.7591,-0.7591,-0.7588,-0.7489,-0.7316,-0.7231,-0.7139,-0.7139,-0.7231,-0.7415,-0.7507,-0.7499,-0.7489,-0.7845,-0.8021,-0.7753,-0.6422,-0.5891,-0.5805,-0.5186,-0.4832,-0.4752,-0.5304,-0.5721,-0.5947,-0.5691,-0.5879,-0.6401,-0.7099,-0.7437,-0.7637,-0.8733,-0.9133,-0.9236,-0.9529,-0.9628,-0.9628,-0.9628,-0.9628,-0.9628,-0.9628,-0.9628,-0.9628,-0.9628,-0.9217,-0.9011,-0.9114,-0.9525,-0.9954,-1.0132,-1.0103,-0.9992,-0.9704,-0.937,-0.9127,-0.9154,-0.9379,-0.9489,-0.9489,-0.9489,-0.9706,-1.0147,-0.982,-0.9706,-1.0257,-1.0257,-1.0147,-0.9926,-1.0147,-1.0147,-0.9816,-0.9816,-0.921,-0.8091,-0.8233,-0.7967,-0.741,-0.7755,-0.7803,-0.7681,-0.7809,-0.7685,0.0,0.0,0.0,0.0,0.0,0.0,0.0,0.0,0.0,0.0,0.0,0.0,0.0,0.0,0.0,0.0,0.0,0.0,0.0,0.0,0.0,0.0,0.0,0.0,0.0,0.0,0.0,0.0,0.0,0.0,-0.7856,-0.7845,-0.7753,-0.7489,-0.7672,-0.7584,-0.7139,-0.7139,-0.7139,-0.7143,-0.7415,-0.7415,-0.7139,-0.7499,-0.7591,-0.7591,-0.776,-0.7757,-0.7588,-0.7669,-0.7048,-0.6086,-0.6028,-0.6325,-0.6723,-0.6486,-0.7101,-0.8103,-0.8226,-0.8233,-0.8333,-0.8726,-0.9031,-0.9236,-0.9529,-0.9628,-0.9628,-0.9628,-0.9628,-0.9628,-0.9628,-0.9628,-0.9628,-0.9628,-0.9525,-0.9525,-0.9525,-0.9731,-0.9855,-0.9813,-0.9864,-1.0107,-1.0514,-1.0112,-0.9861,-1.0123,-0.9926,-0.9706,-0.9706,-0.9706,-0.9816,-0.9816,-0.9816,-0.9926,-1.0257,-1.0257,-1.0257,-1.0257,-1.0257,-1.0147,-0.9816,-0.9816,-0.9603,-0.9186,-0.929,-0.912,-0.8448,-0.8951,-0.9073,-0.8931,-0.9079,-0.8842,0.0,0.0,0.0,0.0,0.0,0.0,0.0,0.0,0.0,0.0,0.0,0.0,0.0,0.0,0.0,0.0,0.0,0.0,0.0,0.0,0.0,0.0,0.0,0.0,0.0,0.0,0.0,0.0,0.0,-0.7768,-0.7856,-0.7937,-0.7797,-0.762,-0.775,-0.7677,-0.7403,-0.7309,-0.7251,-0.7139,-0.7231,-0.7231,-0.7139,-0.7231,-0.7326,-0.7507,-0.7146,-0.7139,-0.7312,-0.7401,-0.7132,-0.6697,-0.7115,-0.7365,-0.7458,-0.75,-0.7876,-0.8318,-0.8403,-0.8445,-0.8459,-0.8685,-0.8992,-0.9156,-0.9458,-0.9628,-0.9628,-0.9628,-0.9628,-0.9628,-0.9628,-0.9628,-0.9628,-0.9628,-0.9628,-0.9628,-0.9628,-0.9632,-0.9693,-0.9689,-0.9788,-0.9918,-1.0096,-0.9972,-0.9945,-1.0025,-0.9926,-0.9816,-1.0036,-0.9926,-0.9926,-1.0257,-1.0143,-1.0147,-1.0472,-1.0472,-1.0472,-1.0472,-1.0472,-1.0472,-1.0363,-1.0253,-1.0036,-0.9596,-0.9637,-0.9377,-0.8927,-0.9395,-0.9432,-0.9286,-0.9439,-0.9312,0.0,0.0,0.0,0.0,0.0,0.0,0.0,0.0,0.0,0.0,0.0,0.0,0.0,0.0,0.0,0.0,0.0,0.0,0.0,0.0,0.0,0.0,0.0,0.0,0.0,0.0,0.0,0.0,0.0,-0.8028,-0.8032,-0.8028,-0.7908,-0.7843,-0.7804,-0.7752,-0.7608,-0.7554,-0.7387,-0.72,-0.72,-0.7177,-0.7139,-0.7139,-0.7231,-0.7326,-0.6707,-0.6612,-0.6959,-0.7132,-0.7132,-0.7136,-0.7933,-0.8143,-0.7949,-0.8188,-0.8226,-0.8322,-0.8336,-0.848,-0.8598,-0.8769,-0.8903,-0.9119,-0.94,-0.9566,-0.9566,-0.9566,-0.9566,-0.9558,-0.953,-0.9622,-0.9606,-0.964,-0.9628,-0.9628,-0.9628,-0.9628,-0.9634,-0.978,-0.9719,-0.9817,-0.9972,-1.0002,-0.9987,-1.0029,-1.0036,-1.0143,-1.0366,-1.0147,-1.0253,-1.0692,-1.0472,-1.0472,-1.0692,-1.0692,-1.0692,-1.0692,-1.0692,-1.0692,-1.0692,-1.0582,-1.0363,-0.9816,-0.9637,-0.949,-0.9154,-0.9422,-0.9493,-0.9384,-0.9537,-0.9527,0.0,0.0,0.0,0.0,0.0,0.0,0.0,0.0,0.0,0.0,0.0,0.0,0.0,0.0,0.0,0.0,0.0,0.0,0.0,0.0,0.0,0.0,0.0,0.0,0.0,0.0,0.0,0.0,-0.8292,-0.8292,-0.8568,-0.8292,-0.8204,-0.8212,-0.8124,-0.7938,-0.7731,-0.7609,-0.7512,-0.736,-0.736,-0.7282,-0.7139,-0.7139,-0.7139,-0.7143,-0.7326,-0.7418,-0.7503,-0.7937,-0.8025,-0.7852,-0.8113,-0.8127,-0.8094,-0.8113,-0.8318,-0.8497,-0.8315,-0.8425,-0.8685,-0.8667,-0.877,-0.9007,-0.9201,-0.9302,-0.9302,-0.9302,-0.9302,-0.9384,-0.9484,-0.9461,-0.9505,-0.9581,-0.9628,-0.9628,-0.9628,-0.9525,-0.963,-1.0091,-0.9963,-0.9928,-1.0502,-1.045,-1.0397,-1.0668,-1.0692,-1.0692,-1.0692,-1.0692,-1.0692,-1.0692,-1.0692,-1.0692,-1.0692,-1.0692,-1.0692,-1.0692,-1.0692,-1.0692,-1.0692,-1.0472,-1.0147,-0.9816,-0.9637,-0.949,-0.9154,-0.9313,-0.9388,-0.9384,-0.9537,-0.9527,0.0,0.0,0.0,0.0,0.0,0.0,0.0,0.0,0.0,0.0,0.0,0.0,0.0,0.0,0.0,0.0,0.0,0.0,0.0,0.0,0.0,0.0,0.0,0.0,0.0,0.0,0.0,0.0,0.0,-0.7911,-0.8544,-0.7959,-0.7799,-0.8349,-0.8274,-0.814,-0.7682,-0.7742,-0.7626,-0.7412,-0.7437,-0.7341,-0.7285,-0.7187,-0.7139,-0.7139,-0.7231,-0.7323,-0.7507,-0.768,-0.768,-0.768,-0.768,-0.7624,-0.7503,-0.7786,-0.7966,-0.7963,-0.8055,-0.8329,-0.8656,-0.8553,-0.8798,-0.9227,-0.9227,-0.9328,-0.9328,-0.9328,-0.9276,-0.9316,-0.9381,-0.9361,-0.933,-0.9252,-0.9324,-0.932,-0.932,-0.9422,-0.9734,-1.0091,-1.0123,-1.012,-1.0623,-1.0639,-1.0623,-1.0684,-1.0692,-1.0692,-1.0692,-1.0692,-1.0692,-1.0692,-1.0692,-1.0692,-1.0692,-1.0692,-1.0692,-1.0692,-1.0692,-1.0692,-1.0692,-1.0582,-1.0366,-0.9816,-0.9761,-0.9557,-0.93,-0.9452,-0.9527,-0.953,-0.9585,-0.9581,0.0,0.0,0.0,0.0,0.0,0.0,0.0,0.0,0.0,0.0,0.0,0.0,0.0,0.0,0.0,0.0,0.0,0.0,0.0,0.0,0.0,0.0,0.0,0.0,0.0,0.0,0.0,0.0,0.0,0.0,-0.854,-0.803,-0.7959,-0.8356,-0.843,-0.8212,-0.789,-0.7933,-0.7833,-0.7587,-0.7461,-0.7365,-0.7366,-0.721,-0.7139,-0.7139,-0.7139,-0.7231,-0.7415,-0.7507,-0.7507,-0.7507,-0.7595,-0.7535,-0.7492,-0.7635,-0.7788,-0.7872,-0.7819,-0.8165,-0.851,-0.8457,-0.8653,-0.9032,-0.9143,-0.9136,-0.9104,-0.9051,-0.9068,-0.9078,-0.9151,-0.9272,-0.9229,-0.9082,-0.9091,-0.9133,-0.9122,-0.9324,-0.9746,-1.014,-1.0184,-1.0274,-1.0631,-1.0692,-1.0692,-1.0692,-1.0692,-1.0692,-1.0692,-1.0692,-1.0692,-1.0692,-1.0692,-1.0692,-1.0692,-1.0692,-1.0692,-1.0692,-1.0692,-1.0692,-1.0692,-1.0472,-1.0253,-0.9816,-0.9596,-0.9391,-0.9306,-0.9459,-0.9534,-0.9537,-0.9635,-0.968,0.0,0.0,0.0,0.0,0.0,0.0,0.0,0.0,0.0,0.0,0.0,0.0,0.0,0.0,0.0,0.0,0.0,0.0,0.0,0.0,0.0,0.0,0.0,0.0,0.0,0.0,0.0,0.0,-0.8548,-0.8548,-0.8564,-0.8568,-0.8564,-0.8384,-0.8368,-0.8386,-0.8341,-0.8088,-0.7955,-0.7858,-0.7533,-0.7377,-0.7458,-0.721,-0.7139,-0.7139,-0.7139,-0.7139,-0.7139,-0.7415,-0.7507,-0.7503,-0.7768,-0.7953,-0.7989,-0.7652,-0.7876,-0.8303,-0.7597,-0.7747,-0.8225,-0.8389,-0.8442,-0.8632,-0.8948,-0.8934,-0.8733,-0.8663,-0.8567,-0.8572,-0.8886,-0.9054,-0.929,-0.9086,-0.9127,-0.9065,-0.8836,-0.9232,-0.967,-1.0112,-1.0229,-1.0278,-1.0631,-1.0692,-1.0692,-1.0692,-1.0692,-1.0692,-1.0692,-1.0692,-1.0692,-1.0692,-1.0692,-1.0692,-1.0692,-1.0692,-1.0692,-1.0692,-1.0692,-1.0692,-1.0692,-1.0143,-0.9816,-0.9816,-0.9272,-0.9015,-0.9267,-0.9303,-0.9381,-0.9395,-0.9686,-0.9819,-0.1388,0.0,0.0,0.0,0.0,0.0,0.0,0.0,0.0,0.0,0.0,0.0,0.0,0.0,0.0,0.0,0.0,0.0,0.0,0.0,0.0,0.0,0.0,0.0,0.0,0.0,0.0,0.0,-0.8002,-0.7938,-0.854,-0.8568,-0.8568,-0.8564,-0.8524,-0.8464,-0.8205,-0.824,-0.8169,-0.8087,-0.7996,-0.7933,-0.7916,-0.7574,-0.7415,-0.7415,-0.7143,-0.7139,-0.7139,-0.7143,-0.7231,-0.7231,-0.7319,-0.7344,-0.7378,-0.7248,-0.7282,-0.7437,-0.7217,-0.7535,-0.7955,-0.8197,-0.8499,-0.8809,-0.9151,-0.9221,-0.9104,-0.9012,-0.8952,-0.892,-0.8869,-0.8937,-0.891,-0.8798,-0.8827,-0.8788,-0.8787,-0.9146,-0.9571,-0.9835,-0.986,-1.004,-1.0643,-1.0692,-1.0692,-1.0692,-1.0692,-1.0692,-1.0692,-1.0692,-1.0692,-1.0692,-1.0692,-1.0692,-1.0692,-1.0692,-1.0692,-1.0692,-1.0692,-1.0692,-1.0692,-1.0582,-1.0363,-1.0147,-0.9824,-0.968,-0.949,-0.9308,-0.933,-0.9551,-0.9734,-0.9768,0.0,0.0,0.0,0.0,0.0,0.0,-0.1701,-0.1816,0.0,0.0,0.0,0.0,0.0,0.0,0.0,0.0,0.0,0.0,0.0,0.0,0.0,0.0,0.0,0.0,0.0,-0.862,-0.8578,-0.8587,-0.8122,-0.8042,-0.8548,-0.8208,-0.8208,-0.8568,-0.8201,-0.8109,-0.838,-0.7559,-0.7291,-0.7665,-0.7118,-0.7011,-0.7464,-0.7217,-0.7238,-0.7507,-0.7323,-0.7231,-0.7139,-0.7139,-0.7139,-0.7139,-0.7231,-0.7361,-0.7406,-0.7255,-0.7399,-0.759,-0.7437,-0.7713,-0.8077,-0.8396,-0.8609,-0.887,-0.9274,-0.935,-0.915,-0.9064,-0.8971,-0.8827,-0.8716,-0.862,-0.8669,-0.8569,-0.8604,-0.8582,-0.8599,-0.8874,-0.924,-0.9669,-0.9924,-1.0218,-1.0655,-1.0692,-1.0692,-1.0582,-1.0582,-1.0692,-1.0582,-1.0582,-1.0692,-1.0692,-1.0692,-1.0692,-1.0692,-1.0692,-1.0692,-1.0692,-1.0582,-1.0582,-1.0582,-1.0257,-1.0036,-0.9926,-0.9864,-0.9752,-0.9703,-0.954,-0.9466,-0.97,-0.9781,-0.9778,0.0,0.0,0.0,0.0,0.0,0.0,-0.1566,-0.2057,-0.2448,0.0,0.0,0.0,0.0,0.0,0.0,0.0,0.0,0.0,0.0,0.0,0.0,0.0,0.0,0.0,0.0,-0.8324,-0.8324,-0.8266,-0.8324,-0.8296,-0.83,-0.7408,-0.7316,-0.8212,-0.7383,-0.7379,-0.8288,-0.6383,-0.5937,-0.7031,-0.5703,-0.5681,-0.6904,-0.649,-0.6786,-0.7595,-0.7415,-0.7333,-0.7163,-0.7146,-0.7139,-0.7139,-0.7415,-0.7588,-0.7688,-0.7553,-0.7862,-0.8173,-0.7865,-0.8018,-0.8423,-0.883,-0.8894,-0.8862,-0.9372,-0.9297,-0.9089,-0.8956,-0.8731,-0.8579,-0.8577,-0.8575,-0.8513,-0.8494,-0.8425,-0.8305,-0.8459,-0.8628,-0.8895,-0.9619,-1.0004,-1.0401,-1.0668,-1.0696,-1.0582,-1.0257,-1.0472,-1.0472,-1.0257,-1.0472,-1.0582,-1.0692,-1.0692,-1.0692,-1.0692,-1.0692,-1.0692,-1.0692,-1.0476,-1.0257,-1.0257,-0.971,-0.9489,-0.9489,-0.9542,-0.9706,-0.987,-0.9658,-0.9676,-0.9798,-0.9815,-0.9822,0.0,0.0,0.0,0.0,0.0,0.0,-0.148,-0.1873,-0.2254,0.0,0.0,0.0,0.0,0.0,0.0,0.0,0.0,0.0,0.0,0.0,0.0,0.0,0.0,0.0,-0.6575,-0.6506,-0.6489,-0.6414,-0.6423,-0.6419,-0.6263,-0.6062,-0.606,-0.6251,-0.6039,-0.6025,-0.6292,-0.5843,-0.6145,-0.7035,-0.6034,-0.6483,-0.8205,-0.6428,-0.6498,-0.8025,-0.7051,-0.6939,-0.7583,-0.7727,-0.7496,-0.7139,-0.7415,-0.7432,-0.7272,-0.7425,-0.745,-0.742,-0.7699,-0.7827,-0.8063,-0.8756,-0.8941,-0.9023,-0.9478,-0.959,-0.9446,-0.9242,-0.9158,-0.8907,-0.8799,-0.8755,-0.8645,-0.8608,-0.8491,-0.8351,-0.8371,-0.8656,-0.8873,-0.8999,-0.9655,-1.0093,-1.037,-1.0374,-1.0257,-0.9926,-0.9926,-0.9926,-0.9926,-0.9926,-1.0036,-1.0366,-1.0366,-1.0476,-1.0692,-1.0692,-1.0582,-1.0366,-1.0366,-1.0147,-0.9926,-0.9816,-0.9706,-0.9706,-0.9763,-0.9757,-0.9683,-0.9595,-0.9625,-0.9652,-0.9768,-0.9822,0.0,0.0,0.0,-0.1348,0.0,0.0,0.0,-0.2042,-0.2341,0.0,0.0,0.0,0.0,0.0,0.0,0.0,0.0,0.0,0.0,0.0,0.0,0.0,0.0,0.0,-0.6139,-0.6059,-0.6023,-0.5945,-0.541,-0.5275,-0.5714,-0.5275,-0.5179,-0.5692,-0.526,-0.5267,-0.5719,-0.4727,-0.4743,-0.5684,-0.4757,-0.5107,-0.6637,-0.5536,-0.5706,-0.6959,-0.6786,-0.6824,-0.7065,-0.7709,-0.7764,-0.7499,-0.7764,-0.7588,-0.7323,-0.7584,-0.7634,-0.7617,-0.771,-0.8081,-0.8445,-0.8832,-0.9147,-0.932,-0.9525,-0.9529,-0.949,-0.9373,-0.9155,-0.9012,-0.8886,-0.8673,-0.848,-0.8567,-0.834,-0.8166,-0.8402,-0.8709,-0.8944,-0.9004,-0.9479,-0.9915,-1.0044,-1.004,-0.9926,-0.9596,-0.9706,-0.9706,-0.9599,-0.9706,-0.9816,-1.0036,-1.0036,-1.0147,-1.0253,-1.0253,-1.0257,-1.0257,-1.0147,-0.9926,-0.9816,-0.9816,-0.9853,-0.9932,-0.9642,-0.961,-0.9846,-0.9727,-0.9646,-0.9717,-0.9788,-0.9822,0.0,0.0,0.0,0.0,0.0,-0.2433,0.0,0.0,0.0,-0.2741,0.0,0.0,0.0,0.0,0.0,0.0,0.0,0.0,0.0,0.0,0.0,0.0,0.0,0.0,0.0,-0.575,-0.5648,-0.5463,-0.4619,-0.445,-0.5134,-0.4472,-0.4389,-0.5149,-0.4387,-0.441,-0.5138,-0.3687,-0.3414,-0.432,-0.3307,-0.3575,-0.4855,-0.4543,-0.4893,-0.5716,-0.6577,-0.6773,-0.6557,-0.7598,-0.7963,-0.7989,-0.8128,-0.794,-0.7591,-0.7753,-0.793,-0.7952,-0.7827,-0.8189,-0.8816,-0.8916,-0.9316,-0.9628,-0.9628,-0.9525,-0.9466,-0.9353,-0.916,-0.8992,-0.8767,-0.8515,-0.8327,-0.8468,-0.8213,-0.8085,-0.835,-0.8581,-0.885,-0.9022,-0.934,-0.9596,-0.971,-0.971,-0.9596,-0.9379,-0.9485,-0.9596,-0.9379,-0.9485,-0.9706,-0.9706,-0.9706,-0.9706,-0.9816,-0.9816,-0.9926,-1.0147,-0.9926,-0.9706,-0.9596,-0.9706,-0.9876,-1.0003,-0.9589,-0.9502,-0.9991,-0.9933,-0.9919,-0.9822,-0.9822,-0.9822,0.0,0.0,0.0,0.0,-0.2599,0.0,0.0,0.0,-0.2887,-0.3035,0.0,0.0,0.0,0.0,0.0,0.0,0.0,0.0,0.0,0.0,0.0,0.0,0.0,0.0,0.0,-0.4136,-0.4014,-0.359,-0.3468,-0.3378,-0.3393,-0.3197,-0.3142,-0.3227,-0.3142,-0.3144,-0.3235,-0.2964,-0.3414,-0.432,-0.3323,-0.3864,-0.5497,-0.4202,-0.4372,-0.5714,-0.6127,-0.6558,-0.705,-0.8093,-0.8302,-0.8061,-0.8001,-0.7944,-0.7852,-0.7577,-0.7595,-0.762,-0.7786,-0.7901,-0.8039,-0.8817,-0.9316,-0.9628,-0.9628,-0.9628,-0.9533,-0.9458,-0.9358,-0.9235,-0.9075,-0.8779,-0.8478,-0.8516,-0.8265,-0.8045,-0.8069,-0.8326,-0.8602,-0.8618,-0.8862,-0.9051,-0.9393,-0.9496,-0.9379,-0.9047,-0.8937,-0.8937,-0.894,-0.8937,-0.9158,-0.9379,-0.9489,-0.9485,-0.9816,-0.9816,-0.9706,-0.9489,-0.9489,-0.9268,-0.9047,-0.9268,-0.9607,-0.9842,-0.9644,-0.9621,-0.9656,-1.0747,-1.074,-0.9822,-0.9822,-0.9822,0.0,0.0,0.0,0.0,0.0,0.0,-0.4015,0.0,-0.3179,0.0,0.0,0.0,0.0,0.0,0.0,0.0,0.0,0.0,0.0,0.0,0.0,0.0,0.0,0.0,0.0,0.0,0.0,0.0,-0.3478,-0.3435,-0.3358,-0.3222,-0.314,-0.3112,-0.3111,-0.3111,-0.3111,-0.3016,-0.3235,-0.3595,-0.3144,-0.3561,-0.4734,-0.4566,-0.4568,-0.4918,-0.6937,-0.7316,-0.6643,-0.8422,-0.8987,-0.8687,-0.8522,-0.8373,-0.8296,-0.8189,-0.8021,-0.7863,-0.7867,-0.7782,-0.7953,-0.9123,-0.9878,-1.0298,-1.0462,-1.0431,-1.029,-1.041,-1.0146,-0.9859,-0.9492,-0.9387,-0.9235,-0.888,-0.8697,-0.8432,-0.8432,-0.851,-0.8544,-0.8546,-0.8953,-0.9244,-0.9439,-0.9435,-0.9377,-0.8923,-0.9078,-0.9163,-0.8927,-0.894,-0.894,-0.9047,-0.9158,-0.9158,-0.9268,-0.9268,-0.9268,-0.9379,-0.9379,-0.9421,-0.9514,-0.9846,-1.0177,-1.0508,-1.0911,-1.1222,-1.1322,-1.2051,-1.2229,-1.1831,-1.1935,-1.1627,-0.5453,0.0,0.0,0.0,0.0,0.0,0.0,0.0,0.0,0.0,0.0,0.0,0.0,0.0,0.0,0.0,0.0,0.0,0.0,0.0,0.0,0.0,0.0,0.0,0.0,0.0,0.0,-0.3631,-0.3655,-0.3626,-0.359,-0.346,-0.3377,-0.3276,-0.3442,-0.3449,-0.321,-0.3379,-0.3361,-0.3054,-0.318,-0.3566,-0.4034,-0.4767,-0.4952,-0.4676,-0.7272,-0.7777,-0.6803,-0.8724,-0.9377,-0.9155,-0.9078,-0.8954,-0.8822,-0.8686,-0.854,-0.838,-0.8124,-0.8078,-0.8352,-0.9397,-1.0135,-1.0735,-1.1047,-1.1047,-1.0936,-1.0929,-1.0649,-1.0337,-0.9957,-0.9859,-0.9693,-0.9415,-0.9107,-0.9023,-0.9015,-0.8943,-0.8844,-0.8813,-0.9266,-0.9651,-0.9701,-0.9713,-0.9578,-0.9236,-0.9466,-0.954,-0.9233,-0.9497,-0.9632,-0.9308,-0.9632,-0.9632,-0.9311,-0.9311,-0.9545,-1.0029,-0.9968,-1.0158,-1.0731,-1.1001,-1.1251,-1.159,-1.2149,-1.2528,-1.2616,-1.3184,-1.3639,-1.3742,-1.3779,-1.3186,0.0,0.0,0.0,-0.5699,0.0,0.0,0.0,0.0,-0.3609,0.0,0.0,0.0,0.0,0.0,0.0,0.0,0.0,0.0,0.0,0.0,0.0,0.0,0.0,0.0,0.0,0.0,0.0,-0.3522,-0.3633,-0.3729,-0.3671,-0.3696,-0.3533,-0.3273,-0.3861,-0.3804,-0.3089,-0.4095,-0.3992,-0.2962,-0.381,-0.4089,-0.377,-0.4467,-0.516,-0.5772,-0.6763,-0.7542,-0.8167,-0.8913,-0.9246,-0.9236,-0.9155,-0.9339,-0.9513,-0.8793,-0.8694,-0.8873,-0.8627,-0.8868,-0.9228,-0.9466,-0.9996,-1.051,-1.071,-1.1033,-1.1091,-1.0909,-1.0744,-1.0536,-1.0268,-1.0016,-0.9823,-0.9735,-0.9694,-0.962,-0.9596,-0.9644,-0.9758,-0.976,-0.998,-1.0077,-1.0124,-1.0063,-1.0106,-1.0088,-1.0068,-1.0064,-1.0068,-1.1151,-1.1575,-1.042,-1.1367,-1.158,-1.0424,-1.0317,-1.0708,-1.1428,-1.1509,-1.1841,-1.2632,-1.2706,-1.2813,-1.3055,-1.2813,-1.2715,-1.2753,-1.4193,-1.4871,-1.4891,-1.406,-1.3665,0.0,0.0,-0.8495,-0.8149,0.0,0.0,0.0,0.0,0.0,0.0,0.0,0.0,0.0,0.0,0.0,0.0,0.0,0.0,0.0,0.0,0.0,0.0,0.0,0.0,0.0,0.0,0.0,-0.3417,-0.3633,-0.3828,-0.3971,-0.397,-0.4128,-0.4402,-0.438,-0.4421,-0.4525,-0.4708,-0.4524,-0.4197,-0.4257,-0.4765,-0.573,-0.6328,-0.6888,-0.7321,-0.911,-0.9452,-0.8763,-0.9883,-1.0275,-1.0141,-1.0141,-1.0177,-1.0157,-0.9502,-0.9199,-0.9069,-0.8723,-0.8949,-0.9478,-0.9768,-1.0447,-1.1361,-1.1606,-1.1803,-1.1985,-1.2134,-1.1731,-1.1206,-1.0881,-1.0771,-1.0618,-1.0314,-1.0186,-1.0087,-1.0177,-0.9989,-0.9821,-0.9793,-1.069,-1.1522,-1.1468,-1.245,-1.2547,-1.0429,-1.1124,-1.1747,-1.1458,-1.2587,-1.2981,-1.1686,-1.1884,-1.1622,-1.0359,-1.0974,-1.2024,-1.3332,-1.3111,-1.3,-1.3144,-1.3595,-1.3722,-1.3616,-1.43,-1.4724,-1.4993,-1.5725,-1.6109,-1.6383,-1.6716,-1.6161,-1.0651,-1.0554,0.0,-0.9908,-0.9466,0.0,-0.7958,0.0,0.0,0.0,0.0,0.0,0.0,0.0,0.0,0.0,0.0,0.0,0.0,-0.2406,0.0,0.0,0.0,0.0,0.0,0.0,-0.2948,-0.3038,-0.341,-0.3741,0.0,0.0,-0.4459,-0.4682,-0.4894,-0.4948,-0.4912,-0.5023,-0.4841,-0.4512,-0.4589,-0.5358,-0.6599,-0.7141,-0.7891,-0.8856,-1.0114,-1.0278,-0.9695,-1.0554,-1.0772,-1.0638,-1.0638,-1.0605,-1.05,-1.0019,-0.9721,-0.9497,-0.9147,-0.9365,-0.98,-1.0014,-1.079,-1.1626,-1.1921,-1.2257,-1.2571,-1.2517,-1.2107,-1.1702,-1.1336,-1.1239,-1.1104,-1.0788,-1.069,-1.0774,-1.1156,-1.097,-1.0984,-1.1301,-1.2242,-1.2937,-1.2909,-1.3835,-1.3986,-1.2062,-1.2801,-1.3453,-1.3211,-1.4372,-1.4778,-1.3477,-1.3666,-1.3399,-1.2125,-1.286,-1.3832,-1.5075,-1.495,-1.4787,-1.4826,-1.5194,-1.5262,-1.5237,-1.5769,-1.6143,-1.6486,-1.6918,-1.7261,-1.7408,-1.8352,-1.8046]},{"header":{"parameterUnit":"m.s-1","parameterCategory":1,"la1":30.6,"la2":29.2853,"lo1":-89.7004,"lo2":-87.6739,"dy":0.0162,"dx":0.0183,"nx":112,"ny":82,"refTime":"2023-04-29T00:00:00:Z","depth":0,"parameterNumber":3,"parameterNumberName":"V-component_of_WINDS"},"data":[0.0,0.0,0.0,0.0,0.0,0.0,0.0,0.0,0.0,0.0,0.0,0.0,0.0,0.0,0.0,0.0,0.0,0.0,0.0,0.0,0.0,0.0,0.0,0.0,0.0,0.0,0.0,0.0,0.0,0.0,0.0,0.0,0.0,0.0,0.0,0.0,0.0,0.0,0.0,0.0,0.0,0.0,0.0,0.0,0.0,0.0,0.0,0.0,0.0,0.0,0.0,0.0,0.0,0.0,0.0,0.0,0.0,0.0,0.0,0.0,0.0,0.0,0.0,0.0,0.0,0.0,0.0,0.0,0.0,0.0,0.0,0.0,0.0,0.0,0.0,0.0,0.0,0.0,0.0,0.0,0.0,0.0,0.0,0.0,0.0,0.0,0.0,0.0,0.0,0.0,0.0,-2.1323,-2.3786,-2.5194,-2.5328,-2.571,-2.4281,-2.0374,0.0,0.0,0.0,0.0,0.0,0.0,0.0,0.0,0.0,0.0,0.0,0.0,0.0,0.0,0.0,0.0,0.0,0.0,0.0,0.0,0.0,0.0,0.0,0.0,0.0,0.0,0.0,0.0,0.0,0.0,0.0,0.0,0.0,0.0,0.0,0.0,0.0,0.0,0.0,0.0,0.0,0.0,0.0,0.0,0.0,0.0,0.0,0.0,0.0,0.0,0.0,0.0,0.0,0.0,0.0,0.0,0.0,0.0,0.0,0.0,0.0,0.0,0.0,0.0,0.0,0.0,0.0,0.0,0.0,0.0,0.0,0.0,0.0,0.0,0.0,0.0,0.0,0.0,0.0,0.0,0.0,0.0,0.0,0.0,0.0,0.0,0.0,0.0,0.0,0.0,0.0,0.0,0.0,0.0,0.0,0.0,0.0,0.0,0.0,0.0,0.0,0.0,0.0,0.0,-1.9551,-2.3416,-2.4762,-2.5631,-2.6319,-2.5378,-2.346,-2.0386,0.0,0.0,0.0,0.0,0.0,0.0,0.0,0.0,0.0,0.0,0.0,0.0,0.0,0.0,0.0,0.0,0.0,0.0,0.0,0.0,0.0,0.0,0.0,0.0,0.0,0.0,0.0,0.0,0.0,0.0,0.0,0.0,0.0,0.0,0.0,0.0,0.0,0.0,0.0,0.0,0.0,0.0,0.0,0.0,0.0,0.0,0.0,0.0,0.0,0.0,0.0,0.0,0.0,0.0,0.0,0.0,0.0,0.0,0.0,0.0,0.0,0.0,0.0,0.0,0.0,0.0,0.0,0.0,0.0,0.0,0.0,0.0,0.0,0.0,0.0,0.0,0.0,0.0,0.0,0.0,0.0,0.0,0.0,0.0,0.0,0.0,0.0,0.0,0.0,0.0,0.0,0.0,0.0,0.0,0.0,0.0,0.0,0.0,0.0,0.0,0.0,0.0,0.0,-1.909,-2.1956,-2.4076,-2.5296,-2.5984,-2.61,-2.5133,-2.359,-2.1325,-2.0825,0.0,0.0,0.0,0.0,0.0,0.0,0.0,0.0,0.0,0.0,0.0,0.0,0.0,0.0,0.0,0.0,0.0,0.0,0.0,0.0,0.0,0.0,0.0,0.0,0.0,0.0,0.0,0.0,0.0,0.0,0.0,0.0,0.0,0.0,0.0,0.0,0.0,0.0,0.0,0.0,0.0,0.0,0.0,0.0,0.0,0.0,0.0,0.0,0.0,0.0,0.0,0.0,0.0,0.0,0.0,0.0,0.0,0.0,0.0,0.0,0.0,0.0,0.0,0.0,0.0,0.0,0.0,0.0,0.0,0.0,0.0,0.0,0.0,0.0,0.0,0.0,0.0,0.0,0.0,0.0,0.0,0.0,0.0,0.0,0.0,0.0,0.0,0.0,0.0,0.0,0.0,0.0,0.0,0.0,0.0,0.0,0.0,0.0,0.0,0.0,0.0,0.0,-2.0735,-2.3161,-2.4036,-2.5346,-2.6017,-2.5595,-2.4906,-2.3641,-2.1692,-2.0617,0.0,0.0,0.0,0.0,0.0,0.0,0.0,0.0,0.0,0.0,0.0,0.0,0.0,0.0,0.0,0.0,0.0,0.0,0.0,0.0,0.0,0.0,0.0,0.0,0.0,0.0,0.0,0.0,0.0,0.0,0.0,0.0,0.0,0.0,0.0,0.0,0.0,0.0,0.0,0.0,0.0,0.0,0.0,0.0,0.0,0.0,0.0,0.0,0.0,0.0,0.0,0.0,0.0,0.0,0.0,0.0,0.0,0.0,0.0,0.0,0.0,0.0,0.0,0.0,0.0,0.0,0.0,0.0,0.0,0.0,0.0,0.0,0.0,0.0,0.0,0.0,0.0,0.0,0.0,0.0,0.0,0.0,0.0,0.0,0.0,0.0,0.0,0.0,0.0,0.0,0.0,0.0,0.0,0.0,0.0,0.0,0.0,0.0,0.0,0.0,0.0,0.0,-2.027,-2.1981,-2.3405,-2.4746,-2.5465,-2.5172,-2.4524,-2.3041,-2.0474,-2.0161,0.0,0.0,0.0,0.0,0.0,0.0,0.0,0.0,0.0,0.0,0.0,0.0,0.0,0.0,0.0,0.0,0.0,0.0,0.0,0.0,0.0,0.0,0.0,0.0,0.0,0.0,0.0,0.0,0.0,0.0,0.0,0.0,0.0,0.0,0.0,0.0,0.0,0.0,0.0,0.0,0.0,0.0,0.0,0.0,0.0,0.0,0.0,0.0,0.0,0.0,0.0,0.0,0.0,0.0,0.0,0.0,0.0,0.0,0.0,0.0,0.0,0.0,0.0,0.0,0.0,0.0,0.0,0.0,0.0,0.0,0.0,0.0,0.0,0.0,0.0,0.0,0.0,0.0,0.0,0.0,0.0,0.0,0.0,0.0,0.0,0.0,0.0,0.0,0.0,0.0,0.0,0.0,0.0,0.0,0.0,0.0,0.0,0.0,0.0,0.0,0.0,0.0,-2.1148,-2.3388,0.0,-2.6065,-2.6571,-2.6366,-2.6127,-2.4837,-2.2167,0.0,0.0,0.0,0.0,0.0,0.0,0.0,0.0,0.0,0.0,0.0,0.0,0.0,0.0,0.0,0.0,0.0,0.0,0.0,0.0,0.0,0.0,0.0,0.0,0.0,0.0,0.0,0.0,0.0,0.0,0.0,0.0,0.0,0.0,0.0,0.0,0.0,0.0,0.0,0.0,0.0,0.0,0.0,0.0,0.0,0.0,0.0,0.0,0.0,0.0,0.0,0.0,0.0,0.0,0.0,0.0,0.0,0.0,0.0,0.0,0.0,0.0,0.0,0.0,0.0,0.0,0.0,0.0,0.0,0.0,0.0,0.0,0.0,0.0,0.0,0.0,0.0,0.0,0.0,0.0,0.0,0.0,0.0,0.0,0.0,0.0,0.0,0.0,0.0,0.0,0.0,0.0,0.0,0.0,0.0,0.0,0.0,0.0,0.0,0.0,0.0,0.0,-1.8936,-2.1868,-2.4423,0.0,-2.6532,-2.6964,-2.6803,-2.6781,-2.5678,-2.3029,0.0,0.0,0.0,0.0,0.0,0.0,0.0,0.0,0.0,0.0,0.0,0.0,0.0,0.0,0.0,0.0,0.0,0.0,0.0,0.0,0.0,0.0,0.0,0.0,0.0,0.0,0.0,0.0,0.0,0.0,0.0,0.0,0.0,0.0,0.0,0.0,0.0,0.0,0.0,0.0,0.0,0.0,0.0,0.0,0.0,0.0,0.0,0.0,0.0,0.0,0.0,0.0,0.0,0.0,0.0,0.0,0.0,0.0,0.0,0.0,0.0,0.0,0.0,0.0,0.0,0.0,0.0,0.0,0.0,0.0,0.0,0.0,0.0,0.0,0.0,0.0,0.0,0.0,0.0,0.0,0.0,0.0,0.0,0.0,0.0,0.0,0.0,0.0,0.0,0.0,0.0,0.0,0.0,0.0,0.0,0.0,0.0,0.0,0.0,0.0,0.0,0.0,-1.923,-2.2262,-2.4671,-2.5275,-2.5865,-2.6202,-2.6147,-2.6123,-2.5067,0.0,0.0,0.0,0.0,0.0,0.0,0.0,0.0,0.0,0.0,0.0,0.0,0.0,0.0,0.0,0.0,0.0,0.0,0.0,0.0,0.0,0.0,0.0,0.0,0.0,0.0,0.0,0.0,0.0,0.0,0.0,0.0,0.0,0.0,0.0,0.0,0.0,0.0,0.0,0.0,0.0,0.0,0.0,0.0,0.0,0.0,0.0,0.0,0.0,0.0,0.0,0.0,0.0,0.0,0.0,0.0,0.0,0.0,0.0,0.0,0.0,0.0,0.0,0.0,0.0,0.0,0.0,0.0,0.0,0.0,0.0,0.0,0.0,0.0,0.0,0.0,0.0,0.0,0.0,0.0,0.0,0.0,0.0,0.0,0.0,0.0,0.0,0.0,0.0,0.0,0.0,0.0,0.0,0.0,0.0,0.0,0.0,0.0,0.0,0.0,0.0,0.0,0.0,-2.0591,-2.3819,-2.646,-2.7388,-2.7779,-2.8055,-2.8278,-2.8282,-2.6871,-2.3584,0.0,0.0,0.0,0.0,0.0,0.0,0.0,0.0,0.0,0.0,0.0,0.0,0.0,0.0,0.0,0.0,0.0,0.0,0.0,0.0,0.0,0.0,0.0,0.0,0.0,0.0,0.0,0.0,0.0,0.0,0.0,0.0,0.0,0.0,0.0,0.0,0.0,0.0,0.0,0.0,0.0,0.0,0.0,0.0,0.0,0.0,0.0,0.0,0.0,0.0,0.0,0.0,0.0,0.0,0.0,0.0,0.0,0.0,0.0,0.0,0.0,0.0,0.0,0.0,0.0,0.0,0.0,0.0,0.0,0.0,0.0,0.0,0.0,0.0,0.0,0.0,0.0,0.0,0.0,0.0,0.0,0.0,0.0,0.0,0.0,0.0,0.0,0.0,0.0,0.0,0.0,0.0,0.0,0.0,0.0,0.0,0.0,0.0,0.0,0.0,0.0,0.0,-2.131,-2.4637,-2.7351,-2.8417,-2.8633,-2.8803,-2.9134,-2.9156,-2.7923,-2.5066,0.0,0.0,0.0,0.0,0.0,0.0,0.0,0.0,0.0,0.0,0.0,0.0,0.0,0.0,0.0,0.0,0.0,0.0,0.0,0.0,0.0,0.0,0.0,0.0,0.0,0.0,0.0,0.0,0.0,0.0,0.0,0.0,0.0,0.0,0.0,0.0,0.0,0.0,0.0,0.0,0.0,0.0,0.0,0.0,0.0,0.0,0.0,0.0,0.0,0.0,0.0,0.0,0.0,0.0,0.0,0.0,0.0,0.0,0.0,0.0,0.0,0.0,0.0,0.0,0.0,0.0,0.0,0.0,0.0,0.0,0.0,0.0,0.0,0.0,0.0,0.0,0.0,0.0,0.0,0.0,0.0,0.0,0.0,0.0,0.0,0.0,0.0,0.0,0.0,0.0,0.0,0.0,0.0,0.0,0.0,0.0,0.0,0.0,0.0,0.0,0.0,0.0,-2.1673,-2.5031,-2.7766,-2.8737,-2.8846,-2.9002,-2.931,-2.9329,-2.8566,-2.6805,0.0,0.0,0.0,0.0,0.0,0.0,0.0,0.0,0.0,0.0,0.0,0.0,0.0,0.0,0.0,0.0,0.0,0.0,0.0,0.0,0.0,0.0,0.0,0.0,0.0,0.0,0.0,0.0,0.0,0.0,0.0,0.0,0.0,0.0,0.0,0.0,0.0,0.0,0.0,0.0,0.0,0.0,0.0,0.0,0.0,0.0,0.0,0.0,0.0,0.0,0.0,0.0,0.0,0.0,0.0,0.0,0.0,0.0,0.0,0.0,-1.8313,0.0,0.0,0.0,0.0,0.0,0.0,0.0,0.0,0.0,0.0,0.0,0.0,0.0,0.0,0.0,0.0,0.0,0.0,0.0,0.0,0.0,0.0,0.0,0.0,0.0,0.0,0.0,0.0,0.0,0.0,0.0,0.0,0.0,0.0,0.0,0.0,0.0,0.0,0.0,0.0,0.0,-2.3003,-2.6359,-2.9053,-2.9931,-3.0047,-3.0309,-3.102,-3.1075,-3.0262,-2.8419,-2.823,0.0,0.0,0.0,0.0,0.0,0.0,0.0,0.0,0.0,0.0,0.0,0.0,0.0,0.0,0.0,0.0,0.0,0.0,0.0,0.0,0.0,0.0,0.0,0.0,0.0,0.0,0.0,0.0,0.0,0.0,0.0,0.0,0.0,0.0,0.0,0.0,0.0,0.0,0.0,0.0,0.0,0.0,0.0,0.0,0.0,0.0,0.0,0.0,0.0,0.0,0.0,0.0,0.0,0.0,0.0,0.0,0.0,0.0,0.0,0.0,-1.8986,0.0,0.0,0.0,0.0,0.0,0.0,0.0,0.0,0.0,0.0,0.0,0.0,0.0,0.0,0.0,0.0,0.0,0.0,0.0,0.0,0.0,0.0,0.0,0.0,0.0,0.0,0.0,0.0,0.0,0.0,0.0,0.0,0.0,0.0,0.0,0.0,0.0,0.0,0.0,0.0,-2.3965,-2.7378,-3.0019,-3.0849,-3.0988,-3.1177,-3.1531,-3.2024,-3.1751,-3.0374,-3.0176,0.0,0.0,0.0,0.0,0.0,0.0,0.0,0.0,0.0,0.0,0.0,0.0,0.0,0.0,0.0,0.0,0.0,0.0,0.0,0.0,0.0,0.0,0.0,0.0,0.0,0.0,0.0,0.0,0.0,0.0,0.0,0.0,0.0,0.0,0.0,0.0,0.0,0.0,0.0,0.0,0.0,0.0,0.0,0.0,0.0,0.0,0.0,0.0,0.0,0.0,0.0,0.0,0.0,-2.0261,-2.04,-2.0693,-2.0983,-2.1376,-2.1838,-2.1789,-2.2131,-2.2693,0.0,0.0,0.0,0.0,0.0,0.0,0.0,0.0,0.0,0.0,0.0,0.0,0.0,0.0,0.0,0.0,0.0,0.0,0.0,0.0,0.0,0.0,0.0,0.0,0.0,-2.3493,-2.3093,0.0,0.0,0.0,0.0,0.0,0.0,0.0,0.0,0.0,0.0,0.0,0.0,-2.4487,-2.81,-3.0951,-3.1887,-3.2093,-3.2252,-3.244,-3.3264,-3.3512,-3.2814,-3.237,-3.1826,0.0,0.0,0.0,0.0,0.0,0.0,0.0,0.0,0.0,0.0,0.0,0.0,0.0,0.0,0.0,0.0,0.0,0.0,0.0,0.0,0.0,0.0,0.0,0.0,0.0,0.0,0.0,0.0,0.0,0.0,0.0,0.0,-1.5951,-1.7895,0.0,0.0,0.0,0.0,0.0,0.0,0.0,0.0,0.0,0.0,0.0,0.0,0.0,-1.998,-1.9415,-2.1796,-2.305,-2.3187,-2.5094,-2.6348,-2.7014,-2.7323,-2.7536,-2.7567,-2.6684,0.0,-2.3098,-2.3713,0.0,0.0,0.0,0.0,0.0,0.0,0.0,0.0,0.0,0.0,0.0,0.0,0.0,0.0,0.0,0.0,0.0,0.0,0.0,0.0,0.0,0.0,-2.761,-2.8195,-2.6659,-2.5705,0.0,-2.3842,-2.1289,-2.7034,-2.542,0.0,0.0,0.0,0.0,0.0,0.0,0.0,-2.4044,-2.8333,-3.2022,-3.3743,-3.3957,-3.4587,-3.6133,-3.6404,-3.6445,-3.6333,-3.6474,-3.5814,-3.4135,-3.5526,0.0,0.0,0.0,0.0,0.0,0.0,0.0,0.0,0.0,0.0,0.0,0.0,0.0,0.0,0.0,0.0,0.0,0.0,0.0,0.0,0.0,0.0,0.0,0.0,0.0,0.0,0.0,0.0,0.0,-1.5968,-1.7467,-1.9118,-1.8684,-1.7979,0.0,0.0,0.0,0.0,0.0,0.0,0.0,0.0,0.0,-2.0327,-2.1698,-2.2669,-2.315,-2.5056,-2.6369,-2.7076,-2.8162,-2.8866,-2.9279,-2.9766,-3.0143,-3.0365,-2.9824,-2.896,-2.7783,-2.6543,-2.5636,-2.4921,0.0,0.0,0.0,0.0,-1.9513,-2.2181,-2.6061,-2.6314,0.0,-2.4891,0.0,0.0,0.0,0.0,0.0,0.0,0.0,0.0,0.0,0.0,-2.904,-3.0231,-2.9434,-2.8832,-3.0337,-2.898,-2.7735,0.0,-2.9178,-2.8034,-2.3598,0.0,0.0,0.0,0.0,-2.6853,-2.811,-3.1076,-3.3762,-3.5619,-3.5852,-3.6179,-3.6938,-3.7599,-3.774,-3.7268,-3.7888,-3.7719,-3.6388,-3.7013,-3.6234,0.0,0.0,0.0,0.0,0.0,0.0,0.0,0.0,0.0,0.0,0.0,0.0,0.0,0.0,0.0,0.0,0.0,0.0,0.0,0.0,0.0,0.0,0.0,0.0,0.0,0.0,0.0,0.0,-1.751,-1.8816,-2.0384,-2.026,-1.9777,0.0,0.0,0.0,0.0,0.0,0.0,-2.1281,-2.1464,-2.2023,-2.3066,-2.4783,-2.6159,-2.7199,-2.8631,-2.9703,-3.0376,-3.0969,-3.1297,-3.1372,-3.1916,-3.2342,-3.2668,-3.2377,-3.2154,-3.1861,-2.9434,-2.808,-2.7406,-2.6271,-2.4521,-2.2399,-2.0458,-2.1592,-2.4915,-3.0462,-3.0356,-2.789,-2.8542,0.0,-2.9061,-2.7223,0.0,0.0,0.0,0.0,-2.6426,-2.817,-2.9363,-3.0442,-3.1663,-3.1459,-3.1256,-3.234,-3.4172,-3.4351,0.0,-3.188,-3.2242,-2.6662,0.0,0.0,0.0,0.0,-3.1275,-3.1715,-3.3654,-3.5623,-3.7272,-3.7467,-3.7583,-3.7791,-3.8603,-3.88,-3.8154,-3.888,-3.903,-3.8363,-3.8194,-3.7527,-3.6255,0.0,0.0,0.0,0.0,0.0,0.0,0.0,0.0,0.0,0.0,0.0,0.0,0.0,0.0,0.0,0.0,0.0,0.0,0.0,0.0,0.0,0.0,0.0,0.0,0.0,0.0,0.0,0.0,0.0,-2.1505,-2.3453,0.0,0.0,0.0,0.0,-2.1738,-2.1285,-2.2096,-2.4454,-2.4986,-2.6581,-2.9521,-3.054,-3.1005,-3.1017,-3.2559,-3.2936,-3.2195,-3.4102,-3.4929,-3.4768,-3.5094,-3.5293,-3.5261,-3.4545,-3.3848,-3.3147,-3.2144,-3.1395,-3.0734,-2.9402,-2.7803,-2.6297,-2.6731,-2.6891,-2.7629,-3.2673,-3.291,-3.1199,-3.2545,-3.1362,-2.9341,-2.8955,-2.7763,0.0,0.0,-2.7905,-2.9549,-3.0359,-3.2011,-3.3377,-3.3006,-3.2316,-3.2278,-3.4244,-3.7461,-3.826,0.0,-3.3105,-3.3821,-3.1501,0.0,-3.0018,-2.7008,-3.2857,-3.6343,-3.2732,-3.495,-3.731,-3.849,-3.8563,-3.8928,-3.9947,-4.0081,-4.012,-4.0062,-4.0158,-4.0196,-4.0062,-4.0062,-3.9985,-3.983,-3.7255,0.0,0.0,0.0,0.0,0.0,0.0,0.0,0.0,0.0,0.0,0.0,0.0,0.0,0.0,0.0,0.0,0.0,0.0,0.0,0.0,0.0,0.0,0.0,0.0,0.0,0.0,0.0,0.0,-2.3544,-2.4482,0.0,0.0,-2.3844,-2.3917,-2.4021,-2.5047,-2.6415,-2.8117,-2.8482,-2.9413,-3.1076,-3.1514,-3.2009,-3.2575,-3.3175,-3.3548,-3.3724,-3.4493,-3.5119,-3.5586,-3.5835,-3.6264,-3.6778,-3.6654,-3.6442,-3.6174,-3.5854,-3.4548,-3.2722,-3.2808,-3.2449,-3.209,-3.3506,-3.4207,-3.4623,-3.5913,-3.5628,-3.4908,-3.5926,-3.4805,-3.3048,-3.3006,-3.2591,-3.2122,-3.2119,-3.2988,-3.3973,-3.4239,-3.5189,-3.6043,-3.5855,-3.5552,-3.5589,-3.6805,-3.7737,-3.8172,-3.7433,-3.7064,-3.6145,-3.3877,-3.4317,-3.4247,-3.212,-3.498,-3.714,-3.6438,-3.73,-3.8401,-3.9464,-3.958,-3.9734,-4.0099,-4.0137,-4.0137,-4.0137,-4.0157,-4.0157,-4.0137,-4.0137,-4.0118,-4.0117,-3.9635,-3.7465,0.0,0.0,0.0,0.0,0.0,0.0,0.0,0.0,0.0,0.0,0.0,0.0,0.0,0.0,0.0,0.0,0.0,0.0,0.0,0.0,0.0,0.0,0.0,0.0,0.0,0.0,-2.3992,-2.5131,-2.6224,-2.6725,-2.6291,-2.6539,-2.691,-2.7356,-2.8641,-2.989,-3.102,-3.1318,-3.1952,-3.3038,-3.3478,-3.4014,-3.4645,-3.5251,-3.5536,-3.5536,-3.6083,-3.6497,-3.6823,-3.6994,-3.6901,-3.6635,-3.7474,-3.7306,-3.6534,-3.7832,-3.7233,-3.5539,-3.5761,-3.5971,-3.6315,-3.734,-3.8106,-3.8492,-3.7729,-3.7465,-3.7636,-3.8565,-3.759,-3.6061,-3.6332,-3.6224,-3.6023,-3.6071,-3.6473,-3.6971,-3.7255,-3.7715,-3.8194,-3.8482,-3.8456,-3.8497,-3.8944,-3.7734,-3.7338,-3.9955,-3.9357,-3.7616,-3.5111,-3.5849,-3.5998,-3.3627,-3.447,-3.5625,-3.6342,-3.7196,-3.8036,-3.8727,-3.9623,-4.0177,-4.0177,-3.9376,-3.9242,-4.012,-3.9376,-3.9281,-4.0139,-3.928,-3.8764,-3.8744,-3.842,-3.6729,-3.3601,0.0,0.0,0.0,0.0,0.0,0.0,0.0,0.0,0.0,0.0,0.0,0.0,0.0,0.0,0.0,0.0,0.0,0.0,0.0,0.0,0.0,0.0,0.0,-1.9704,-2.3462,-2.6222,-2.6366,-2.8941,-3.0698,-3.0744,-3.1352,-3.1756,-3.1756,-3.1837,-3.2229,-3.3063,-3.3339,-3.4177,-3.5672,-3.6622,-3.7103,-3.7173,-3.8877,-3.898,-3.7508,-3.9018,-3.9331,-3.8615,-3.8764,-3.7413,-3.5094,-3.7111,-3.6485,-3.4298,-3.7943,-3.9419,-3.9278,-3.8211,-3.8183,-3.8695,-3.8118,-3.8306,-3.8764,-3.8127,-3.8402,-3.9248,-4.0419,-3.9477,-3.8009,-3.8658,-3.8408,-3.7878,-3.7878,-3.8022,-3.8369,-3.9171,-3.9483,-3.9782,-4.0622,-4.0783,-4.0684,-4.054,-3.775,-3.6287,-3.9729,-3.967,-3.8187,-3.5439,-3.5835,-3.5247,-3.146,-3.1786,0.0,-3.2449,-3.4793,-3.6424,-3.6424,-3.8686,-4.0211,-4.0288,-3.7955,-3.7572,-4.0135,-3.8044,-3.7795,-4.0192,-3.7737,-3.6312,-3.6273,-3.3772,-3.3789,-3.6474,0.0,0.0,0.0,0.0,0.0,0.0,0.0,0.0,0.0,0.0,0.0,0.0,0.0,0.0,0.0,0.0,0.0,0.0,0.0,0.0,0.0,0.0,-2.5022,-2.5459,-2.6817,-2.8443,-3.0256,-3.1759,-3.2402,-3.1784,-3.2458,-3.2924,-3.2924,-3.3571,-3.4306,-3.5049,-3.3479,-3.307,-3.4166,-3.4308,-3.4442,-3.4623,-3.6873,-3.7806,-3.7509,-3.7985,-3.8461,-3.8898,-3.9073,-3.9084,-3.8961,-3.9678,-3.9573,-3.8967,-3.9979,-4.0752,-4.1175,-4.0301,-4.0056,-4.0196,-4.0042,-4.0094,-4.0216,-4.0029,-4.0121,-4.0351,-4.0694,-4.0443,-4.0011,-4.0192,-4.0121,-3.9978,-3.9978,-3.9992,-4.0185,-4.104,-4.1252,-4.1305,-4.1542,-4.1576,-4.1378,-4.0723,-3.9792,-3.9381,-4.0354,-4.0346,-3.9892,-3.9007,-3.9084,-3.8931,-3.7869,-3.7926,0.0,-3.8059,-3.8707,-3.9127,-3.9127,-3.8004,-3.8061,-4.0062,-3.7756,-3.7357,-4.0062,-3.9583,-3.9526,-4.0214,-3.949,-3.9376,-3.9986,-3.7471,-3.6805,0.0,0.0,0.0,0.0,0.0,0.0,0.0,0.0,0.0,0.0,0.0,0.0,0.0,0.0,0.0,0.0,0.0,0.0,0.0,0.0,0.0,0.0,-2.5788,-2.9166,-3.1201,-3.1167,-3.1502,-3.3009,-3.393,-3.4293,-3.3942,-3.3979,-3.4337,-3.5056,-3.5263,-3.5675,-3.6462,-3.5208,-3.4188,-3.3582,-3.4984,-3.5249,-3.4244,-3.711,-3.8785,-3.9221,-3.9259,-3.9752,-4.0647,-4.0812,-4.0519,0.0,-4.128,-4.1003,-3.9715,-4.0868,-4.159,0.0,0.0,0.0,0.0,0.0,-4.1287,-4.1235,-4.0921,-4.1089,-4.1512,-4.1731,-4.1641,-4.1512,-4.1751,-4.1042,-4.0179,-4.0179,-3.9721,-3.9482,-4.0582,-4.1817,-4.2724,-4.2498,-4.2179,-4.184,-4.1686,-4.0485,-3.9877,-4.1366,-4.0716,0.0,-4.1347,-3.9991,-3.8372,-3.7177,-3.7009,-3.6991,-3.6991,-3.7943,-3.861,-3.861,-3.8517,-3.9088,-4.0725,-3.84,0.0,0.0,0.0,-3.8852,-3.9144,-3.9163,0.0,0.0,0.0,-3.7352,-3.9007,0.0,0.0,0.0,-3.6491,-3.5567,0.0,0.0,0.0,0.0,0.0,0.0,0.0,0.0,0.0,0.0,0.0,0.0,0.0,0.0,0.0,0.0,-2.9289,-3.2467,-3.6309,-3.5951,-3.523,-3.5071,-3.5694,-3.6231,-3.6516,-3.5836,-3.597,-3.7413,-3.6938,-3.6838,-3.7457,0.0,0.0,0.0,0.0,-3.7934,-3.5562,-3.8891,-4.0989,-4.1754,-4.1773,-4.2174,-4.294,-4.3057,-4.1771,-3.9634,-4.2124,-4.1493,-3.8871,-4.1197,-4.2183,-4.2251,-4.2174,-4.2135,-4.2116,-4.1889,-4.1909,-4.1889,-4.08,0.0,0.0,-4.3196,-4.3138,-4.2811,-4.3042,-4.1523,-3.9678,-3.9336,-3.8541,-3.8097,-3.9504,-4.1919,-4.3878,-4.3428,-4.2722,-4.2341,-4.2977,-4.0614,-3.9339,-4.2492,-4.1119,-4.0241,-4.2684,-3.9772,-3.6249,-3.3743,-3.3424,-3.3424,-3.3329,-3.5482,-3.6999,-3.6999,0.0,0.0,-4.1896,-3.9541,-3.9157,-4.1797,-3.9104,-3.7679,-3.8278,-3.8297,-3.7608,-3.6116,-3.6121,-3.7373,-3.9873,-4.0668,-4.2242,-4.4316,-3.8706,-3.7319,0.0,0.0,0.0,0.0,0.0,0.0,0.0,0.0,0.0,0.0,0.0,0.0,0.0,0.0,0.0,-3.0138,-3.3738,-3.6785,-3.8247,-3.9433,-3.9414,-3.7446,-3.7351,-3.7464,-3.7515,-3.7938,-3.8072,-3.7775,-3.8831,-3.9256,-3.8687,-3.8034,0.0,-3.6982,-3.819,-3.8685,-3.8331,-4.0975,-4.2464,-4.2722,0.0,0.0,-4.3217,-4.3197,-4.2681,-4.1865,-4.2361,-4.2742,-4.2963,-4.2576,-4.3032,-4.3867,-4.3211,-4.296,-4.2772,-4.1204,-4.1351,-4.1928,-3.9106,-3.9445,-4.1547,-4.4249,-4.5055,-4.4689,-4.3042,-4.2502,0.0,-3.9576,-4.0057,-4.1632,-4.3054,-4.3673,-4.3946,-4.4061,-4.3948,-4.3698,-4.3217,-4.2549,-4.2264,-4.297,-4.2665,-4.2492,-4.3008,-4.1819,-4.0575,-4.0044,-3.9967,-3.9736,-3.9007,-3.9983,-4.0748,-4.0748,-3.938,-3.9668,-4.2588,-4.0336,-3.9955,-4.2681,-4.2239,-4.1915,-4.2052,-4.2071,-4.1899,-4.1591,-4.2189,-4.2783,-4.3335,-4.4201,-4.4874,-4.5316,-4.4091,-4.3785,0.0,0.0,0.0,0.0,0.0,0.0,0.0,0.0,0.0,0.0,0.0,-2.5024,0.0,0.0,-3.0548,-3.3607,-3.6185,-3.8569,-4.0754,-4.1805,-4.1522,-3.9273,-3.9025,-3.9076,-3.9141,-3.8706,-3.8594,-3.9084,-3.9854,-4.0264,-4.0193,-4.0334,-3.9791,-3.8443,-4.0117,-4.0454,-3.9204,-4.1771,-4.33,-4.379,-4.3839,-4.41,-4.4543,-4.4529,-4.438,-4.4153,-4.4119,-4.4448,-4.4926,-4.3878,-4.3833,-4.4399,-4.4402,-4.4152,-4.3667,-4.2566,-4.2601,-4.3038,-4.1942,-4.2266,-4.3464,-4.5073,-4.561,-4.5398,-4.4399,-4.3062,-4.1556,-4.0147,-3.8061,-3.6997,-4.0295,-4.2941,-4.4785,-4.4909,-4.4963,-4.4851,-4.4446,-4.3893,-4.3645,-4.4186,-4.4318,-4.4335,-4.4301,-4.3607,-4.2912,-4.2508,-4.245,-4.2297,-4.1854,-4.2181,-4.245,-4.245,-4.1579,-4.1735,-4.3547,-4.2441,-4.2076,-4.3047,-4.3104,-4.3278,-4.3682,-4.3701,-4.3912,-4.4335,-4.482,-4.5044,-4.5044,-4.552,-4.5742,-4.5742,-4.5742,-4.5703,0.0,0.0,0.0,0.0,0.0,0.0,0.0,0.0,-2.615,-2.66,-2.7706,-2.9036,-3.0506,-3.152,-3.3363,-3.7093,-3.8522,-4.0115,-4.283,-4.3327,-4.2768,-4.0991,-4.0684,-4.0581,-4.0523,-3.9358,-3.9208,-4.0608,-4.0973,-4.1325,-4.174,-4.2964,-4.2533,-4.0159,-4.2493,-4.2756,-4.0568,-4.2717,-4.4136,-4.4833,-4.4833,-4.5162,-4.58,-4.5805,-4.5791,-4.5795,-4.5795,-4.5785,-4.5715,-4.4974,-4.4652,-4.4713,-4.537,-4.5329,-4.4877,-4.4463,-4.4311,-4.4427,-4.5295,-4.5659,-4.5731,-4.5693,-4.5671,-4.568,-4.5775,-4.3815,-4.1582,-4.1683,-3.7624,-3.4195,-3.8325,-4.2532,-4.5712,-4.5667,-4.5647,-4.564,-4.561,-4.487,-4.4468,-4.5358,-4.555,-4.5568,-4.5513,-4.4991,-4.4278,-4.3451,-4.3335,-4.3278,-4.3124,-4.3239,-4.3335,-4.3335,-4.3917,-4.4378,-4.4547,-4.4547,-4.4278,-4.3624,-4.3585,-4.3891,-4.4559,-4.4564,-4.4889,-4.5629,-4.5757,-4.5814,-4.5822,-4.5875,-4.5899,-4.5899,-4.5878,-4.5835,-2.0403,-1.8458,-1.754,-1.9696,-2.2147,-2.4546,0.0,0.0,-3.3014,-3.2193,-3.3978,-3.5951,-3.6916,-3.8375,-3.9846,-4.1114,-4.2645,-4.3554,-4.325,-4.3817,-4.3917,-4.2988,-4.2179,-4.1427,-4.0665,-4.1152,-4.1619,-4.1812,-4.3239,-4.3827,-4.3129,-4.4692,-4.5098,-4.3998,-4.4974,-4.5374,-4.507,-4.5374,-4.5568,-4.5664,-4.5664,-4.5703,-4.58,-4.58,-4.58,-4.58,-4.5795,-4.5765,-4.57,-4.5603,-4.5552,-4.5558,-4.5654,-4.614,-4.668,-4.575,-4.543,-4.5449,-4.5547,-4.5877,-4.6172,-4.594,-4.5906,-4.5944,-4.5839,-4.5548,-4.5306,-4.5317,-4.4741,-4.4253,-4.4635,-4.5417,-4.6092,-4.5906,-4.5817,-4.575,-4.5631,-4.5452,-4.5372,-4.5545,-4.555,-4.5513,-4.5586,-4.5509,-4.5163,-4.4297,-4.4162,-4.3912,-4.3181,-4.372,-4.4162,-4.4162,-4.4259,-4.4605,-4.5393,-4.5451,-4.5413,-4.5316,-4.5316,-4.542,-4.5617,-4.5517,-4.558,-4.5856,-4.5829,-4.5829,-4.5878,-4.5899,-4.5899,-4.5899,-4.5777,-4.5783,-2.2438,-2.2707,0.0,0.0,-2.744,-3.0481,-3.2006,-3.4527,-3.6728,-3.7314,-3.8645,-3.9981,-4.0896,-4.0731,-4.1072,0.0,-4.2992,-4.2977,-4.3731,-4.4168,-4.3914,-4.2603,-4.0819,-3.9499,-3.9031,-4.08,-4.1125,-3.9022,-4.2408,-4.4234,-4.3343,-4.4924,-4.5678,-4.5307,-4.5617,-4.5791,-4.5791,-4.58,-4.58,-4.5791,-4.5791,-4.5776,-4.5742,-4.5773,-4.5754,-4.5677,-4.5684,-4.57,-4.5757,-4.5757,-4.578,-4.5829,-4.5829,-4.6072,-4.6352,-4.5902,-4.566,-4.575,-4.69,-4.6745,-4.6162,-4.6802,-4.6507,-4.589,-4.5957,-4.5927,-4.5924,-4.6086,-4.6107,-4.6521,-4.8463,-4.9095,-4.8691,-4.658,-4.7601,-4.8769,-4.7691,-4.6557,-4.5744,-4.5756,-4.5756,-4.5717,-4.5678,-4.5699,-4.5576,-4.5132,-4.5057,-4.4932,-4.4605,-4.4855,-4.5047,-4.5047,-4.5047,-4.5201,-4.5566,-4.5586,-4.5637,-4.5696,-4.5731,-4.5742,-4.58,-4.5789,-4.5796,-4.5835,-4.5928,-4.5959,-4.5899,-4.5987,-4.5978,-4.5899,-4.5832,-4.584,-2.3758,0.0,0.0,-2.8943,-3.1873,-3.475,-3.6629,-3.8299,-3.975,-4.0814,-4.1812,-4.2556,-4.2795,-4.186,0.0,-4.4042,-4.3208,-4.2752,-4.4124,-4.4152,-4.3258,-4.1123,-3.9012,-3.7115,-3.5503,-3.894,-4.0397,-3.8243,-4.2124,-4.4305,-4.3678,-4.478,-4.5539,-4.5781,-4.5781,-4.5896,-4.6143,-4.5907,-4.5907,-4.6148,-4.5896,-4.575,-4.57,-4.5758,-4.5912,-4.6105,-4.5816,-4.5868,-4.6164,-4.5937,-4.5859,-4.592,-4.6163,-4.6435,-4.6664,-4.6616,-4.6216,-4.589,-4.7309,-4.731,-4.6785,-4.7233,-4.6726,-4.5974,-4.6112,-4.6092,-4.6059,-4.6249,-4.6265,-4.6801,-4.9317,-4.9976,-4.9328,-4.682,-4.8133,-4.96,-4.8311,-4.698,-4.5998,-4.5917,-4.5897,-4.5859,-4.5778,-4.5815,-4.5815,-4.5719,-4.5694,-4.5665,-4.5603,-4.5637,-4.5671,-4.5671,-4.5665,-4.5677,-4.5677,-4.5677,-4.5723,-4.5815,-4.5829,-4.5841,-4.5879,-4.5897,-4.5908,-4.5936,-4.6033,-4.6064,-4.6005,-4.6105,-4.6091,-4.5949,-4.592,-4.5897,0.0,0.0,-2.4396,-3.1168,-3.3525,-3.5303,-3.9513,-4.1709,-4.2662,-4.2013,-4.3118,-4.3756,-4.2225,-4.2541,-4.3316,-4.4251,-4.4295,-4.4256,-4.4383,-4.367,-4.1898,-3.8618,-3.7392,-3.4828,0.0,-3.5418,-4.0133,-4.171,-4.3548,-4.4568,-4.4467,-4.4506,-4.4931,-4.5761,-4.575,-4.6132,-4.7057,-4.6152,-4.6156,-4.7036,-4.6136,-4.57,-4.57,-4.5758,-4.6399,-4.7376,-4.6332,-4.6366,-4.7086,-4.6251,-4.5896,-4.5974,-4.6831,-4.7766,-4.8599,-4.8607,-4.7459,-4.5909,-4.6037,-4.7222,-4.8444,-4.6858,-4.6318,-4.6296,-4.63,-4.63,-4.63,-4.63,-4.6292,-4.6303,-4.6355,-4.6362,-4.6348,-4.6312,-4.6327,-4.6309,-4.6125,-4.6193,-4.6219,-4.5959,-4.5856,-4.584,-4.5972,-4.5991,-4.5991,-4.5991,-4.5936,-4.5828,-4.5637,-4.5696,-4.58,-4.58,-4.584,-4.5889,-4.5889,-4.5889,-4.5889,-4.5899,-4.5899,-4.5959,-4.6091,-4.5978,-4.6013,-4.6273,-4.615,-4.615,-4.6296,-4.63,-4.6236,-4.6091,-4.5969,-4.5883,0.0,0.0,-3.1859,-3.4783,-3.8224,-4.1443,-4.3509,-4.3924,-4.3794,-4.3589,-4.1694,-3.99,-3.9407,-3.7651,-3.7107,-3.9669,-3.8695,-3.8787,-4.2197,-3.9585,-3.7938,-3.9565,-3.6542,0.0,0.0,0.0,0.0,-3.6812,-4.0565,-4.3349,-4.4448,-4.5046,-4.5727,-4.658,-4.6565,-4.7032,-4.8031,-4.6571,-4.6306,-4.7214,-4.6274,-4.5831,-4.5833,-4.5872,-4.6095,-4.6484,-4.6074,-4.6446,-4.7307,-4.7028,-4.7259,-4.786,-4.8142,-4.815,-4.7979,-4.7966,-4.7676,-4.743,-4.8382,-4.9015,-4.9323,-4.8952,-4.7674,-4.6417,-4.6983,-4.6768,-4.63,-4.63,-4.6292,-4.6542,-4.7643,-4.7498,-4.7216,-4.7819,-4.7936,-4.7596,-4.6387,-4.6181,-4.6209,-4.6125,-4.6091,-4.6084,-4.6125,-4.6107,-4.6047,-4.5958,-4.5919,-4.5897,-4.5873,-4.5879,-4.5863,-4.5863,-4.5897,-4.5899,-4.5899,-4.5899,-4.593,-4.6033,-4.6021,-4.6049,-4.6098,-4.6144,-4.6176,-4.6176,-4.6211,-4.6211,-4.6176,-4.6176,-4.6098,-4.5969,-4.5883,-4.5815,0.0,-3.2327,-3.7057,-3.975,-4.2829,-4.5374,-4.6001,-4.5622,-4.4778,-4.3304,-4.0793,-3.8416,-3.6958,-3.4589,-3.3903,-3.7021,-3.5939,-3.626,-4.0746,-3.8646,-3.7293,-3.8998,-3.6675,0.0,0.0,0.0,0.0,-3.5649,-3.9013,-4.1848,-4.3563,-4.4163,-4.5421,-4.7506,-4.755,-4.8005,-4.898,-4.757,-4.6969,-4.725,-4.6344,-4.5901,-4.5923,-4.6376,-4.6208,-4.5638,-4.6781,-4.6961,-4.6566,-4.7204,-4.7645,-4.7946,-4.8256,-4.8065,-4.7636,-4.7928,-4.8144,-4.8339,-4.8647,-4.8909,-4.9043,-4.8814,-4.7855,-4.6817,-4.7057,-4.6742,-4.6309,-4.6306,-4.63,-4.6546,-4.7627,-4.7483,-4.7201,-4.7776,-4.7916,-4.76,-4.6455,-4.6201,-4.6201,-4.6211,-4.6206,-4.6192,-4.6197,-4.6176,-4.6144,-4.6049,-4.6049,-4.6024,-4.5968,-4.5979,-4.5978,-4.5978,-4.6005,-4.6049,-4.6049,-4.6049,-4.6091,-4.6176,-4.6176,-4.6176,-4.6176,-4.6249,-4.6269,-4.6176,-4.6269,-4.6269,-4.6176,-4.6176,-4.6098,-4.5978,-4.5928,-4.5891,-3.4758,-3.7642,-3.9972,-4.5574,-4.6951,-4.6935,-4.6914,-4.6723,-4.5359,-4.1162,-4.0134,-3.8705,0.0,0.0,-3.3269,-3.6115,-3.5805,-3.6419,-3.9932,-4.0467,-3.9585,0.0,0.0,0.0,0.0,0.0,0.0,-3.8354,0.0,-4.0427,-4.2276,-4.2403,-4.4356,-4.8526,-4.8603,-4.9031,-4.9971,-4.9005,-4.8051,-4.7132,-4.6326,-4.5917,-4.5956,-4.7175,-4.6668,-4.5052,-4.8162,-4.7822,-4.5173,-4.6893,-4.7135,-4.6502,-4.7335,-4.7631,-4.769,-4.8457,-4.8711,-4.8437,-4.6855,-4.7069,-4.7865,-4.6777,-4.6951,-4.7454,-4.6621,-4.6346,-4.6301,-4.6301,-4.6293,-4.6319,-4.6417,-4.6409,-4.6401,-4.646,-4.6381,-4.6299,-4.627,-4.6236,-4.6216,-4.6265,-4.6304,-4.6323,-4.6265,-4.6318,-4.6347,-4.6319,-4.63,-4.6211,-4.594,-4.6041,-4.6105,-4.6105,-4.6216,-4.63,-4.63,-4.63,-4.63,-4.63,-4.63,-4.63,-4.63,-4.63,-4.63,-4.63,-4.63,-4.63,-4.63,-4.63,-4.6221,-4.6105,-4.6098,-4.6041,-3.6222,-4.1069,-4.5979,-4.743,-4.8279,-4.8414,-4.7182,-4.4914,-4.205,-3.8474,-3.418,-3.0367,0.0,0.0,0.0,-3.1099,-3.0827,0.0,-3.7025,-3.7791,0.0,0.0,0.0,-4.0474,-4.1494,-4.1752,0.0,0.0,-4.1402,-4.2825,-4.5813,-4.6589,-4.7731,-4.9428,-4.9481,-4.9933,-5.0922,-4.9475,-4.7981,-4.6522,-4.6307,-4.6191,-4.6209,-4.6523,-4.6406,-4.5955,-4.6794,-4.7067,-4.695,-4.7416,-4.7828,-4.8182,-4.8417,-4.8123,-4.761,-4.7828,-4.7493,-4.6881,-4.6449,-4.7302,-4.8554,-4.8259,-4.7904,-4.761,-4.7575,-4.6963,-4.6306,-4.6306,-4.63,-4.6593,-4.7842,-4.7877,-4.778,-4.8638,-4.7498,-4.6396,-4.7025,-4.6669,-4.639,-4.7047,-4.7688,-4.7938,-4.7274,-4.7225,-4.7057,-4.6397,-4.63,-4.6273,-4.6211,-4.6236,-4.6245,-4.6245,-4.6277,-4.63,-4.63,-4.63,-4.63,-4.63,-4.63,-4.63,-4.63,-4.63,-4.63,-4.63,-4.63,-4.63,-4.63,-4.63,-4.6277,-4.6245,-4.6144,-4.6091,-4.1142,-4.5153,-4.8848,-4.9163,-4.9029,-4.8105,-4.5297,-4.2299,-3.8823,-3.4301,-3.0701,0.0,0.0,0.0,0.0,0.0,0.0,0.0,-3.5526,-3.624,-3.6865,0.0,-3.9676,0.0,-4.4376,-4.4705,-4.4708,0.0,-4.3153,-4.359,-4.6658,-4.7284,-4.8454,-5.0445,-5.0496,-5.0767,-5.1346,-5.0037,-4.8899,-4.7955,-4.7215,-4.6878,-4.6866,-4.6866,-4.6241,-4.5246,0.0,-4.6829,-4.5975,-4.7125,-4.7633,-4.7691,-4.7691,-4.7434,-4.7037,-4.7037,-4.6719,-4.63,-4.63,-4.6922,-4.7694,-4.7694,-4.7656,-4.7551,-4.7323,-4.7167,-4.6949,-4.6441,-4.7377,-4.874,-4.9699,-4.9717,-4.9539,-4.9676,-4.9087,-4.8476,-4.8466,-4.8076,-4.7799,-4.8033,-4.815,-4.8193,-4.808,-4.8099,-4.7959,-4.7471,-4.71,-4.6866,-4.6866,-4.6534,-4.63,-4.63,-4.63,-4.63,-4.63,-4.63,-4.6456,-4.6846,-4.6866,-4.6866,-4.6866,-4.6866,-4.669,-4.63,-4.63,-4.63,-4.63,-4.63,-4.63,-4.63,-4.6216,-4.6181,-4.6793,-4.8792,-4.9789,-5.0375,-4.9144,-4.6721,-4.2698,-3.9346,-3.5522,-2.9973,0.0,0.0,-2.4485,0.0,-2.5573,-2.9891,0.0,-3.083,-3.429,-3.5589,-3.6639,-3.788,-3.9296,-4.1557,-4.5046,-4.583,-4.6612,-4.783,-4.5079,-4.4328,-4.6608,-4.6833,-4.8281,-5.1308,-5.1406,-5.1404,-5.1396,-5.0543,-5.0087,-5.0028,-4.8388,-4.7627,-4.765,-4.7497,-4.6245,-4.4387,-4.7239,0.0,-4.4219,-4.6482,-4.6981,-4.6303,-4.6303,-4.6303,-4.6303,-4.6303,-4.6303,-4.6303,-4.63,-4.629,-4.6297,-4.6306,-4.689,-4.7478,-4.6737,-4.7261,-4.7965,-4.7182,-4.8943,-5.1113,-5.1347,-5.1406,-5.1152,-5.0156,-5.0682,-5.1092,-4.9996,-4.9665,-4.9432,-4.8905,-4.8276,-4.8055,-4.8684,-4.8892,-4.8922,-4.8821,-4.8119,-4.7631,-4.7751,-4.6908,-4.63,-4.63,-4.63,-4.63,-4.63,-4.63,-4.6671,-4.7549,-4.7608,-4.7647,-4.7744,-4.7666,-4.7237,-4.6495,-4.6475,-4.6475,-4.6475,-4.6573,-4.6632,-4.6632,-4.6632,-4.6632,-4.697,-4.8812,-5.0356,-4.976,-4.7798,-4.5278,-4.245,-3.711,0.0,0.0,0.0,-2.3042,-2.3783,-2.3985,0.0,-2.9805,0.0,0.0,0.0,0.0,-3.9069,0.0,0.0,0.0,0.0,0.0,0.0,0.0,0.0,-4.8945,-4.9394,-5.0116,-5.0773,-5.1385,-5.1405,-5.1402,-5.1398,-5.0535,-4.9989,-4.9751,-4.831,-4.7712,-4.7899,-4.695,-4.6672,-4.6924,-4.6786,0.0,-4.588,-4.6345,-4.6449,-4.63,-4.63,-4.63,-4.63,-4.63,-4.63,-4.6297,-4.6306,-4.6303,-4.6303,-4.63,-4.6881,-4.7614,-4.769,-4.8197,-4.8981,-5.0175,-4.9902,-4.957,-5.1035,-5.1406,-5.1348,-5.1152,-5.1269,-5.115,-5.0232,-4.9451,-4.8924,-4.8826,-4.9257,-4.9471,-4.8899,-4.9391,-4.9627,-4.8918,-4.8118,-4.7847,-4.8515,-4.7254,-4.63,-4.63,-4.63,-4.63,-4.63,-4.63,-4.6671,-4.7549,-4.7608,-4.79,-4.8564,-4.7959,-4.753,-4.7373,-4.7373,-4.7373,-4.7373,-4.8037,-4.8369,-4.8369,-4.8369,-4.8369,-4.6348,-4.8411,-5.0491,-4.9625,-4.6836,-4.3162,-3.8834,0.0,0.0,0.0,0.0,-2.1012,-2.1742,0.0,0.0,0.0,0.0,0.0,0.0,0.0,0.0,0.0,0.0,0.0,0.0,0.0,0.0,0.0,0.0,-4.9824,-5.0721,-5.1162,-5.1405,-5.1394,-5.1394,-5.1394,-5.1394,-5.0984,-5.0711,-5.0575,-4.9449,-4.8967,-4.9051,-4.8096,-4.7879,-4.8226,-4.7347,0.0,-4.5601,-4.6095,-4.5743,-4.4993,-4.5935,-4.658,-4.6912,-4.6463,-4.658,-4.6911,-4.6466,-4.6593,-4.6986,-4.6983,-4.7254,-4.7718,-4.8291,-4.8953,-4.9654,-5.0322,-5.0344,-5.0342,-5.1183,-5.1398,-5.1398,-5.1398,-5.14,-5.1283,-5.0873,-4.976,-4.9115,-4.9975,-4.9764,-4.9589,-5.0076,-5.0508,-5.0624,-5.0214,-4.9432,-4.8886,-4.8808,-4.7732,-4.6987,-4.6987,-4.6987,-4.6987,-4.6987,-4.7358,-4.7963,-4.884,-4.8899,-4.9074,-4.9465,-4.9114,-4.8684,-4.8236,-4.8217,-4.8217,-4.8236,-4.8608,-4.8803,-4.8803,-4.8797,-4.8792,-4.5855,-4.8202,-5.0356,-4.897,-4.5682,-4.1296,-3.5493,-3.0011,0.0,0.0,0.0,0.0,0.0,0.0,0.0,0.0,0.0,0.0,0.0,0.0,0.0,0.0,0.0,0.0,0.0,0.0,0.0,0.0,0.0,0.0,-5.1338,-5.1402,-5.1394,-5.1394,-5.1394,-5.1394,-5.1394,-5.1394,-5.1316,-5.1102,-5.0429,-5.01,-5.008,-4.927,-4.8903,-4.8855,-4.7982,0.0,0.0,-4.5839,-4.5233,-4.3805,-4.58,-4.6875,-4.7266,-4.6758,-4.6894,-4.7226,-4.6532,-4.6878,-4.7623,-4.7811,-4.8004,-4.8281,-4.897,-4.9745,-5.0321,-5.0113,-5.0718,-5.1398,-5.1394,-5.1394,-5.1394,-5.1394,-5.1398,-5.1402,-5.1402,-5.0227,-4.956,-5.0867,-5.0027,-4.9506,-5.0897,-5.1285,-5.1406,-5.1406,-5.0663,-4.992,-4.9412,-4.8339,-4.7675,-4.787,-4.7715,-4.7598,-4.7598,-4.834,-4.9179,-5.0039,-5.0098,-5.0176,-5.0371,-5.0195,-4.9785,-4.9082,-4.9082,-4.9082,-4.9082,-4.9277,-4.9355,-4.9355,-4.9353,-4.9351,-4.6194,-4.8738,-4.9952,-4.6812,-4.3965,-4.055,-3.5288,0.0,0.0,0.0,-2.0481,-1.9924,0.0,0.0,0.0,0.0,0.0,0.0,0.0,0.0,0.0,0.0,0.0,0.0,0.0,0.0,0.0,0.0,0.0,0.0,-5.1398,-5.1394,-5.1394,-5.1394,-5.1394,-5.1394,-5.1394,-5.1394,-5.1004,-5.0223,-5.0145,-5.0106,-5.0067,-4.9263,-4.8892,-4.8857,-4.7975,0.0,0.0,-4.558,-4.5234,-4.3867,-4.6465,-4.7051,-4.6504,-4.7226,-4.7031,-4.6406,-4.6328,-4.6875,-4.7734,-4.8516,-4.9316,-4.9979,-5.0058,-5.0633,-5.1281,-5.1257,-5.1318,-5.1394,-5.1398,-5.1394,-5.1394,-5.1394,-5.1408,-5.1396,-5.1396,-5.0663,-5.0048,-5.0184,-5.0083,-5.0033,-5.0188,-5.0884,-5.1391,-5.1406,-5.0656,-5.0364,-5.1066,-4.9079,-4.7907,-4.8708,-4.8062,-4.7598,-4.7598,-4.834,-4.9179,-5.0039,-5.0098,-5.0469,-5.125,-5.0527,-5.0058,-4.998,-4.998,-4.998,-4.998,-5.0781,-5.1152,-5.1152,-5.1152,-5.1152,-4.1684,-4.4908,-4.7369,-4.602,-4.2607,-3.8353,-3.3665,0.0,0.0,-2.1496,-1.9867,-1.9391,-2.1181,0.0,0.0,0.0,0.0,0.0,0.0,0.0,0.0,0.0,0.0,0.0,0.0,0.0,0.0,0.0,0.0,0.0,-5.1336,-5.1394,-5.1394,-5.1394,-5.1394,-5.1394,-5.1394,-5.1394,-5.1238,-5.0887,-5.0887,-5.0887,-5.0848,-5.0008,-4.9614,-4.9556,-4.8189,0.0,0.0,-4.5336,-4.4639,-4.2419,-4.5584,-4.6933,-4.7051,-4.6875,-4.6933,-4.7012,-4.6484,-4.7207,-4.8437,-4.8789,-4.9824,-5.0918,-5.0915,-5.1157,-5.1394,-5.1405,-5.1398,-5.1404,-5.1394,-5.1391,-5.1408,-5.1398,-5.1402,-5.1391,-5.1403,-5.0759,-5.0305,-5.0793,-5.0484,-5.03,-5.0799,-5.1169,-5.1402,-5.1403,-5.1103,-5.0825,-5.0649,-4.9732,-4.9048,-4.8912,-4.8582,-4.8389,-4.8387,-4.9597,-5.0515,-5.0867,-5.0886,-5.1042,-5.1394,-5.1062,-5.0886,-5.0886,-5.0886,-5.0886,-5.0886,-5.1238,-5.1394,-5.1394,-5.1402,-5.1403,-3.7531,-4.1628,-4.5117,-4.4148,-4.0577,-3.6112,0.0,0.0,0.0,-2.0525,-1.9572,-1.9258,-1.9602,0.0,0.0,0.0,0.0,0.0,0.0,0.0,0.0,0.0,0.0,0.0,0.0,0.0,0.0,0.0,0.0,0.0,0.0,-5.1398,-5.1402,-5.1394,-5.1394,-5.1394,-5.1394,-5.1394,-5.1277,-5.1023,-5.1023,-5.0614,-4.9887,-4.979,-4.9329,-4.8557,-4.7894,0.0,0.0,-4.5306,-4.4542,-4.2156,-4.5421,-4.6894,-4.7168,-4.6816,-4.6914,-4.7129,-4.6504,-4.7266,-4.8555,-4.8828,-4.9863,-5.1094,-5.1328,-5.1403,-5.1391,-5.1391,-5.1402,-5.1406,-5.1403,-5.1402,-5.14,-5.1394,-5.1391,-5.1396,-5.1406,-5.0957,-5.0722,-5.1296,-5.0942,-5.0734,-5.1308,-5.1406,-5.1406,-5.1403,-5.1206,-5.0913,-5.0523,-5.0053,-4.9621,-4.9328,-4.9283,-4.9277,-4.9257,-5.0562,-5.1402,-5.1402,-5.1402,-5.1402,-5.1394,-5.1394,-5.1394,-5.1394,-5.1394,-5.1394,-5.1394,-5.1394,-5.1394,-5.1394,-5.1408,-5.1257,-3.4874,-3.9979,-4.3742,-4.0486,-3.7583,-3.4152,0.0,0.0,0.0,-2.0263,-1.9952,-1.976,-1.9047,0.0,0.0,0.0,0.0,0.0,0.0,0.0,0.0,0.0,0.0,0.0,0.0,0.0,0.0,0.0,0.0,0.0,0.0,-5.1391,-5.1391,-5.1394,-5.1394,-5.1394,-5.1394,-5.1394,-5.0965,-5.0106,-5.0106,-4.8794,-4.6409,-4.8131,-4.7506,0.0,0.0,0.0,0.0,-4.5555,-4.5228,-4.384,-4.6544,-4.7051,-4.6426,-4.7266,-4.7051,-4.6308,-4.6308,-4.6875,-4.7754,-4.8613,-4.9492,-5.0351,-5.1152,-5.1406,-5.1406,-5.1406,-5.1406,-5.1406,-5.1406,-5.1406,-5.1406,-5.1406,-5.1406,-5.1406,-5.1406,-5.1387,-5.1387,-5.1406,-5.1387,-5.1387,-5.1406,-5.1406,-5.1406,-5.1406,-5.0723,-5.0508,-5.1289,-4.9938,-4.9231,-5.0092,-5.0189,-5.017,-5.0092,-5.0891,-5.1398,-5.1398,-5.1398,-5.1394,-5.1394,-5.1394,-5.1394,-5.1394,-5.1394,-5.1394,-5.1394,-5.1394,-5.1394,-5.1394,-5.1394,-5.0945,-2.8516,-3.1251,-3.3121,-3.2609,-3.0936,-2.8521,-2.5071,0.0,0.0,0.0,0.0,0.0,0.0,0.0,0.0,0.0,0.0,0.0,0.0,0.0,0.0,0.0,0.0,0.0,0.0,0.0,0.0,0.0,0.0,0.0,0.0,-5.0571,-5.0825,-5.1375,-5.1394,-5.1394,-5.1394,-5.08,-5.0376,-5.0083,-4.9536,-4.8228,-4.6332,-4.749,0.0,0.0,0.0,0.0,0.0,-4.5565,-4.5258,-4.3865,-4.5914,-4.6911,-4.7154,-4.6835,-4.6914,-4.7109,-4.6504,-4.6875,-4.7656,-4.793,-4.8594,-4.9473,-5.0312,-5.0957,-5.1406,-5.1406,-5.1406,-5.1406,-5.1406,-5.1406,-5.1406,-5.1406,-5.1406,-5.1406,-5.1406,-5.1406,-5.1406,-5.1406,-5.1406,-5.1406,-5.1406,-5.1406,-5.1406,-5.1406,-5.1172,-5.1113,-5.1367,-5.0937,-5.0702,-5.0995,-5.1015,-5.0781,-5.0214,-5.0928,-5.1394,-5.1405,-5.1396,-5.1391,-5.1403,-5.1408,-5.1394,-5.1394,-5.1394,-5.1394,-5.1394,-5.1394,-5.1082,-5.0516,-5.0516,-5.036,0.0,-2.6043,-2.7561,-2.7791,-2.6492,0.0,0.0,0.0,0.0,0.0,0.0,0.0,0.0,0.0,0.0,0.0,0.0,0.0,0.0,0.0,0.0,0.0,0.0,0.0,0.0,0.0,0.0,0.0,0.0,0.0,0.0,-5.0131,-5.017,-5.0125,-5.0334,-5.0465,-5.0457,-4.9921,-4.9483,-4.9157,-4.8649,-4.7321,-4.5367,-4.6553,0.0,0.0,0.0,0.0,0.0,-4.5859,-4.5663,-4.4798,-4.5878,-4.6638,-4.7037,-4.6497,-4.685,-4.7476,-4.6601,-4.6875,-4.7598,-4.7598,-4.8418,-4.9492,-5.0039,-5.0762,-5.1406,-5.1406,-5.1406,-5.1406,-5.1406,-5.1406,-5.1406,-5.1406,-5.1406,-5.1406,-5.1406,-5.1406,-5.1406,-5.1406,-5.1406,-5.1406,-5.1406,-5.1385,-5.1362,-5.1406,-5.1088,-5.0969,-5.1322,-5.1058,-5.0959,-5.1291,-5.133,-5.1115,-5.0627,-5.1079,-5.1396,-5.1402,-5.1396,-5.14,-5.1406,-5.1398,-5.1405,-5.1405,-5.1405,-5.1405,-5.1402,-5.1398,-5.1121,-5.0575,-5.0243,-5.0106,0.0,0.0,0.0,0.0,0.0,0.0,0.0,0.0,0.0,0.0,0.0,0.0,0.0,0.0,0.0,0.0,0.0,0.0,0.0,0.0,0.0,0.0,0.0,0.0,0.0,0.0,0.0,0.0,0.0,0.0,0.0,-5.0039,-4.9629,-4.8164,-4.8513,-4.8777,-4.8896,-4.8837,-4.8348,-4.7422,-4.748,-4.6113,-4.3574,-4.5449,0.0,0.0,0.0,0.0,0.0,-4.6308,-4.6308,-4.6308,-4.6308,-4.6348,-4.6386,-4.6387,-4.6897,-4.7471,-4.6677,-4.6875,-4.7519,-4.7519,-4.8691,-5.0117,-5.0117,-5.0703,-5.1406,-5.1406,-5.1406,-5.1406,-5.1406,-5.1406,-5.1406,-5.1406,-5.1406,-5.1406,-5.1406,-5.1406,-5.1426,-5.1463,-5.1442,-5.1404,-5.1464,-5.1432,-5.1385,-5.1394,-5.063,-5.0384,-5.1203,-5.0534,-5.0302,-5.1101,-5.1206,-5.1206,-5.1206,-5.132,-5.14,-5.139,-5.1398,-5.1386,-5.1386,-5.1381,-5.1394,-5.1394,-5.1394,-5.1389,-5.1385,-5.1394,-5.1351,-5.1297,-5.0477,-5.0106,-1.52,0.0,-1.7703,-1.6929,0.0,0.0,0.0,0.0,0.0,0.0,0.0,0.0,0.0,0.0,0.0,0.0,0.0,0.0,0.0,0.0,0.0,0.0,0.0,0.0,0.0,0.0,0.0,0.0,0.0,0.0,0.0,-5.0137,-5.0566,-4.9336,-4.7754,-4.7557,-4.8885,-4.824,-4.7129,-4.5614,-4.6288,-4.4883,-4.1816,-4.4902,-4.5351,0.0,0.0,0.0,-4.6308,-4.6308,-4.6308,-4.6308,-4.6308,-4.6719,-4.7285,-4.7286,-4.7428,-4.7565,-4.738,-4.6985,-4.6601,-4.6601,-4.7773,-4.9218,-4.9207,-5.0228,-5.1406,-5.1406,-5.1406,-5.1406,-5.1406,-5.1406,-5.1406,-5.1406,-5.1406,-5.1406,-5.1406,-5.1406,-5.1587,-5.2197,-5.1768,-5.1519,-5.2136,-5.2228,-5.1997,-5.1338,-5.1609,-5.1716,-5.1281,-5.1024,-5.097,-5.1184,-5.1203,-5.1203,-5.1203,-5.1228,-5.1245,-5.1245,-5.1244,-5.1249,-5.1258,-5.1245,-5.1245,-5.1245,-5.1237,-5.1278,-5.1312,-5.1316,-5.1004,-5.0399,-5.0204,-5.0126,-1.322,-1.3856,-1.4789,-1.5555,-1.5753,-1.5835,0.0,0.0,0.0,0.0,0.0,0.0,0.0,0.0,0.0,0.0,0.0,0.0,0.0,0.0,0.0,0.0,0.0,0.0,0.0,0.0,0.0,0.0,0.0,0.0,0.0,-4.8398,-4.8789,-4.8164,-4.7324,-4.7168,-4.7695,-4.7246,-4.6129,-4.4415,-4.5692,-4.4881,-4.2383,-4.5078,-4.578,0.0,0.0,0.0,-4.623,-4.5449,-4.5586,-4.6308,-4.6308,-4.6582,-4.6992,-4.6993,-4.7253,-4.7545,-4.7135,-4.6688,-4.6308,-4.6308,-4.7207,-4.8378,-4.8789,-4.9807,-5.0933,-5.1308,-5.1406,-5.1406,-5.1406,-5.1406,-5.1406,-5.1406,-5.1941,-5.2353,-5.2021,-5.2219,-5.257,-5.3021,-5.2434,-5.2094,-5.2912,-5.2399,-5.1833,-5.1792,-5.1787,-5.1612,-5.1212,-5.1099,-5.1061,-5.1061,-5.1061,-5.1061,-5.1061,-5.1058,-5.1102,-5.1194,-5.1197,-5.1197,-5.1194,-5.1194,-5.1194,-5.1194,-5.1202,-5.1214,-5.1247,-5.1249,-5.1039,-5.0596,-5.0186,-5.0238,-1.2691,-1.3122,-1.4342,-1.6967,-1.6443,-1.5895,0.0,0.0,0.0,0.0,0.0,0.0,0.0,0.0,0.0,0.0,0.0,0.0,0.0,0.0,0.0,0.0,0.0,0.0,0.0,0.0,0.0,0.0,0.0,0.0,0.0,-4.6308,-4.6308,-4.6308,-4.7012,-4.7051,-4.6308,-4.6308,-4.5385,-4.3602,-4.5067,-4.5006,-4.3632,-4.5468,-4.6303,-4.6222,0.0,0.0,-4.6191,-4.4707,-4.4961,-4.6308,-4.6308,-4.6308,-4.6308,-4.6438,-4.6876,-4.7318,-4.6694,-4.6406,-4.6328,-4.6424,-4.6972,-4.7754,-4.8623,-4.9406,-5.0154,-5.0917,-5.1263,-5.1391,-5.1391,-5.1398,-5.1403,-5.1403,-5.2581,-5.3553,-5.3003,-5.3327,-5.374,-5.3857,-5.3216,-5.292,-5.373,-5.2647,-5.1892,-5.2553,-5.1876,-5.1293,-5.1273,-5.1061,-5.0906,-5.0906,-5.0906,-5.0906,-5.0906,-5.0906,-5.0983,-5.1138,-5.1157,-5.1157,-5.1157,-5.1157,-5.1157,-5.1157,-5.1153,-5.1146,-5.1166,-5.1186,-5.1189,-5.1169,-5.0431,-5.0491,-1.2269,-1.2654,-1.3513,-1.613,-1.6445,-1.6429,0.0,0.0,0.0,0.0,0.0,0.0,0.0,0.0,0.0,0.0,0.0,0.0,0.0,0.0,0.0,0.0,0.0,0.0,0.0,0.0,0.0,0.0,0.0,0.0,0.0,-4.6306,-4.6308,-4.6308,-4.6426,-4.6443,-4.6309,-4.6307,-4.5195,-4.3026,-4.3248,-4.322,-4.3091,-4.5294,-4.6306,-4.628,0.0,-4.6053,-4.6278,-4.6015,-4.6055,-4.6308,-4.6308,-4.6301,-4.6381,-4.7053,-4.6969,-4.658,-4.7135,-4.6878,-4.6386,-4.6962,-4.7361,-4.7753,-4.8574,-4.8911,-4.9128,-4.9703,-5.0607,-5.1407,-5.1407,-5.1394,-5.1388,-5.1401,-5.2589,-5.3794,-5.413,-5.3942,-5.3898,-5.4572,-5.4017,-5.3691,-5.4484,-5.4407,-5.4039,-5.344,-5.3207,-5.284,-5.2124,-5.137,-5.0906,-5.0906,-5.0906,-5.0906,-5.0906,-5.0906,-5.0925,-5.0945,-5.0964,-5.0964,-5.0964,-5.0964,-5.0964,-5.0964,-5.0941,-5.0995,-5.1111,-5.1126,-5.1141,-5.1199,-5.1063,-5.1063,-1.1182,-1.1939,-1.3672,-1.7704,-1.7551,0.0,0.0,0.0,0.0,0.0,0.0,0.0,0.0,0.0,0.0,0.0,0.0,0.0,0.0,0.0,0.0,0.0,0.0,0.0,0.0,0.0,0.0,0.0,0.0,0.0,0.0,0.0,-4.6305,-4.6308,-4.6307,-4.6288,-4.6253,-4.6289,-4.5304,-4.3347,-4.4254,-4.4206,-4.3359,-4.539,-4.6289,-4.6247,0.0,-4.6301,-4.6228,-4.5289,-4.5449,-4.6308,-4.6308,-4.6303,-4.6394,-4.7201,-4.7235,-4.7012,-4.7816,-4.7262,-4.6337,-4.7147,-4.7148,-4.6991,-4.7835,-4.8099,-4.8147,-4.8349,-4.9213,-5.0642,-5.3224,-5.3877,-5.3424,-5.1561,-5.3068,-5.486,-5.4561,-5.4721,-5.5047,-5.5415,-5.4815,-5.4503,-5.5316,-5.431,-5.3575,-5.4116,-5.2995,-5.2124,-5.2182,-5.1447,-5.0906,-5.0906,-5.0906,-5.0906,-5.0906,-5.0906,-5.0906,-5.0906,-5.0906,-5.0906,-5.0906,-5.0906,-5.0906,-5.0906,-5.0906,-5.0945,-5.1003,-5.1003,-5.1022,-5.1061,-5.1525,-5.1521,-1.0573,-1.1427,-1.3556,-1.8373,0.0,0.0,0.0,0.0,0.0,0.0,0.0,0.0,0.0,0.0,0.0,0.0,0.0,0.0,0.0,0.0,0.0,0.0,0.0,0.0,0.0,0.0,0.0,0.0,0.0,0.0,0.0,0.0,-4.6303,-4.6307,-4.6015,-4.5828,-4.5793,-4.6088,-4.5583,-4.4304,-4.5642,-4.5546,-4.4225,-4.564,-4.6253,-4.6205,-4.6246,-4.6288,-4.6206,-4.485,-4.5094,-4.6308,-4.6308,-4.6294,-4.637,-4.7197,-4.7454,-4.7521,-4.8301,-4.7602,-4.6518,-4.7443,-4.7026,-4.637,-4.7437,-4.7475,-4.7182,-4.7409,-4.7816,-4.9213,-5.3712,-5.4826,-5.4152,-5.1531,-5.3517,-5.5794,-5.5009,-5.5453,-5.6012,-5.6012,-5.5509,-5.5219,-5.5644,-5.4252,-5.3401,-5.4349,-5.2801,-5.1679,-5.2144,-5.1447,-5.0906,-5.0906,-5.0906,-5.0906,-5.0906,-5.0906,-5.0906,-5.0906,-5.0906,-5.0906,-5.0906,-5.0906,-5.0906,-5.0906,-5.0906,-5.1022,-5.1196,-5.1037,-5.1037,-5.125,-5.173,-5.1707,-1.1176,-1.1446,-1.2359,-1.598,0.0,0.0,0.0,0.0,0.0,0.0,0.0,0.0,0.0,0.0,0.0,0.0,0.0,0.0,0.0,0.0,0.0,0.0,0.0,0.0,0.0,0.0,0.0,0.0,0.0,0.0,0.0,0.0,0.0,-4.6292,-4.515,-4.4534,-4.454,-4.5522,-4.6027,-4.6017,-4.615,-4.6108,-4.5929,-4.6114,-4.6197,-4.6206,-4.6208,-4.6246,-4.628,-4.6167,-4.6195,-4.6303,-4.6308,-4.6269,-4.6317,-4.7171,-4.7458,-4.7514,-4.8241,-4.7947,-4.7366,-4.8166,-4.7377,-4.6407,-4.8039,-4.7389,-4.6317,-4.7378,-4.6872,-4.6888,-5.0577,-5.1409,-5.1199,-5.0955,-5.3517,-5.5985,-5.5913,-5.5935,-5.6012,-5.6012,-5.5954,-5.5702,-5.5006,-5.5354,-5.5238,-5.3807,-5.342,-5.3033,-5.2298,-5.1447,-5.0906,-5.0906,-5.0906,-5.0906,-5.0906,-5.0906,-5.0906,-5.0906,-5.0906,-5.0906,-5.0906,-5.0906,-5.0906,-5.0906,-5.0956,-5.1358,-5.2105,-5.1426,-5.148,-5.2186,-5.1499,-5.1557,-1.057,-1.0665,-1.1873,-1.6945,0.0,0.0,0.0,0.0,0.0,0.0,0.0,0.0,0.0,0.0,0.0,0.0,0.0,0.0,0.0,0.0,0.0,0.0,0.0,0.0,0.0,0.0,0.0,0.0,0.0,0.0,0.0,0.0,0.0,-4.3867,-4.3393,-4.3335,-4.3718,-4.4161,-4.4406,-4.4478,-4.5565,-4.6075,-4.6098,-4.6118,-4.6144,-4.6176,-4.6899,-4.7107,-4.6991,-4.7039,-4.7048,-4.6995,-4.6503,-4.6582,-4.7107,-4.7879,-4.8179,-4.8256,-4.8991,-4.8368,-4.7298,-4.7594,-4.6939,-4.6169,-4.6795,-4.6506,-4.6065,-4.6427,-4.6989,-4.7536,-4.7773,-4.9359,-5.0887,-5.0893,-5.1892,-5.3143,-5.421,-5.5255,-5.5835,-5.5354,-5.5664,-5.5741,-5.4948,-5.5045,-5.5045,-5.4407,-5.3382,-5.2763,-5.2975,-5.1776,-5.0906,-5.0906,-5.0906,-5.0906,-5.0906,-5.0906,-5.0906,-5.0906,-5.0906,-5.0906,-5.0906,-5.0906,-5.0906,-5.0906,-5.1463,-5.1653,-5.1455,-5.1722,-5.1751,-5.1557,-5.1746,-5.2031,-1.0197,-1.02,-1.1514,-1.7041,0.0,0.0,0.0,0.0,0.0,0.0,0.0,0.0,0.0,0.0,0.0,0.0,0.0,0.0,0.0,0.0,0.0,0.0,0.0,0.0,0.0,0.0,0.0,0.0,0.0,0.0,0.0,0.0,0.0,0.0,-4.171,-4.1943,-4.2379,-4.2707,-4.2878,-4.295,-4.4599,-4.5499,-4.5674,-4.5927,-4.6035,-4.6074,-4.6875,-4.7125,-4.6947,-4.707,-4.712,-4.7024,-4.6484,-4.6621,-4.7206,-4.7951,-4.839,-4.8636,-4.8841,-4.8329,-4.7544,-4.7284,-4.664,-4.5982,-4.6292,-4.6162,-4.593,-4.5833,-4.6698,-4.7356,-4.6109,-4.8329,-5.0627,-4.954,-5.0097,-5.108,-5.1741,-5.3207,-5.4462,-5.4755,-5.5238,-5.5451,-5.489,-5.5006,-5.5006,-5.4465,-5.3614,-5.313,-5.3459,-5.2453,-5.1621,-5.1351,-5.1061,-5.0906,-5.0906,-5.0906,-5.1022,-5.1293,-5.1312,-5.1196,-5.0925,-5.0906,-5.0906,-5.0906,-5.1537,-5.1707,-5.1412,-5.2036,-5.205,-5.1521,-5.2078,-5.2499,-1.0249,-1.0239,-1.1266,-1.5617,0.0,0.0,0.0,0.0,0.0,0.0,0.0,0.0,0.0,0.0,0.0,0.0,0.0,0.0,0.0,0.0,0.0,0.0,0.0,0.0,0.0,0.0,0.0,0.0,0.0,0.0,0.0,0.0,0.0,0.0,-4.0298,-4.0325,-4.0398,-4.1272,-4.1758,-4.1899,-4.3385,-4.4288,-4.4703,-4.5537,-4.5893,-4.588,-4.5957,-4.5955,-4.5901,-4.6183,-4.6267,-4.6208,-4.6208,-4.6249,-4.6385,-4.7123,-4.7908,-4.8462,-4.7515,-4.7719,-4.8256,-4.7448,-4.6563,-4.5969,-4.6906,-4.6543,-4.58,-4.5808,-4.5794,-4.58,-4.58,-4.8319,-5.0003,-4.6611,-4.8404,-5.0445,-4.8775,-4.9721,-5.1686,-5.4291,-5.4793,-5.4793,-5.4793,-5.547,-5.5432,-5.3749,-5.4233,-5.4484,-5.3614,-5.3478,-5.3149,-5.2279,-5.1428,-5.089,-5.089,-5.089,-5.1273,-5.2144,-5.2202,-5.1815,-5.0964,-5.0925,-5.0925,-5.0925,-5.1058,-5.1518,-5.2302,-5.2395,-5.2433,-5.2415,-5.2394,-5.288,-1.3133,-1.247,0.0,0.0,0.0,0.0,0.0,0.0,0.0,0.0,0.0,0.0,0.0,0.0,0.0,0.0,0.0,0.0,0.0,0.0,0.0,0.0,0.0,0.0,0.0,0.0,0.0,0.0,0.0,0.0,0.0,0.0,0.0,0.0,-4.0363,-4.0345,-4.0325,-4.0674,-4.0873,-4.0939,-4.226,-4.3163,-4.3686,-4.5163,-4.5163,-4.4059,-4.5273,-4.5514,-4.5131,-4.5903,-4.6245,-4.627,-4.626,-4.625,-4.6323,-4.7105,-4.7548,-4.7689,-4.7333,-4.737,-4.739,-4.6452,-4.5959,-4.577,-4.5992,-4.588,-4.5651,-4.5668,-4.569,-4.5728,-4.5728,-4.6526,-4.7055,-4.6032,-4.8411,-5.0758,-5.0268,-5.0542,-5.149,-5.3498,-5.4387,-5.4583,-5.3857,-5.5011,-5.5415,-5.3625,-5.4179,-5.4484,-5.3614,-5.2904,-5.2423,-5.2157,-5.1312,-5.0756,-5.07,-5.0773,-5.1211,-5.208,-5.2169,-5.2356,-5.2705,-5.2724,-5.2724,-5.2724,-5.3359,-5.3542,-5.3219,-5.3848,-5.387,-5.3307,-5.2698,-5.3203,-1.5104,0.0,0.0,0.0,0.0,0.0,0.0,0.0,0.0,0.0,0.0,0.0,0.0,0.0,0.0,0.0,0.0,0.0,0.0,0.0,0.0,0.0,0.0,0.0,0.0,0.0,0.0,0.0,0.0,0.0,0.0,0.0,0.0,0.0,-4.0307,-4.0381,-4.0341,-4.0444,-4.0511,-4.0511,-4.1219,-4.1748,-4.2106,-4.3651,-4.3901,-4.3127,-4.4221,-4.4499,-4.4268,-4.4887,-4.5163,-4.5255,-4.5618,-4.5715,-4.5779,-4.6625,-4.7126,-4.7326,-4.6855,-4.6886,-4.7004,-4.5989,-4.5651,-4.5651,-4.5603,-4.5605,-4.5624,-4.5605,-4.568,-4.5719,-4.5624,-4.5618,-4.5629,-4.5773,-4.738,-4.9208,-5.0488,-5.0784,-5.1194,-5.2584,-5.3298,-5.3569,-5.334,-5.4205,-5.4571,-5.3512,-5.3819,-5.4009,-5.3486,-5.2621,-5.2046,-5.2067,-5.1277,-5.072,-5.0644,-5.072,-5.1141,-5.2027,-5.2101,-5.2522,-5.3428,-5.3136,-5.2959,-5.3027,-5.3201,-5.3058,-5.2621,-5.3837,-5.3825,-5.2717,-5.2853,-5.3281,0.0,0.0,0.0,0.0,0.0,0.0,0.0,0.0,0.0,0.0,0.0,0.0,0.0,0.0,0.0,0.0,0.0,0.0,0.0,0.0,0.0,0.0,0.0,0.0,0.0,0.0,0.0,0.0,0.0,0.0,0.0,0.0,0.0,-3.9982,-4.0247,-4.0413,-4.0389,-4.0463,-4.0502,-4.0502,-4.0372,-4.0317,-4.0341,-4.1517,-4.2343,-4.283,-4.2845,-4.3092,-4.3469,-4.3384,-4.3458,-4.3676,-4.4559,-4.4884,-4.4993,-4.5877,-4.6644,-4.7125,-4.6216,-4.638,-4.6819,-4.5888,-4.5586,-4.5586,-4.5568,-4.5626,-4.5645,-4.5587,-4.5664,-4.5703,-4.553,-4.5395,-4.5374,-4.5673,-4.5783,-4.6593,-4.95,-5.0373,-5.0818,-5.1626,-5.1837,-5.2165,-5.2993,-5.3225,-5.3302,-5.3377,-5.334,-5.3302,-5.33,-5.255,-5.1992,-5.1992,-5.1277,-5.0757,-5.0682,-5.0682,-5.1086,-5.2009,-5.203,-5.2415,-5.3358,-5.2622,-5.2305,-5.25,-5.1668,-5.1286,-5.1431,-5.301,-5.2964,-5.145,-5.2977,-5.3268,0.0,0.0,0.0,0.0,0.0,0.0,0.0,0.0,0.0,0.0,0.0,0.0,0.0,0.0,0.0,0.0,0.0,0.0,0.0,0.0,0.0,0.0,0.0,0.0,0.0,0.0,0.0,0.0,0.0,0.0,0.0,0.0,0.0,-4.0379,-4.04,-4.04,-4.0396,-4.046,-4.046,0.0,-4.0392,-4.0356,-4.0306,-4.0643,-4.133,-4.223,-4.1405,-4.1889,-4.3221,-4.2582,-4.2811,-4.3607,-4.4487,-4.4814,-4.4937,-4.5791,-4.6153,-4.6191,-4.5912,-4.5939,-4.6022,-4.5645,-4.5495,-4.5419,-4.538,-4.5379,-4.5379,-4.5379,-4.5398,-4.5398,-4.536,-4.5323,-4.5323,-4.5399,-4.5608,-4.5913,-4.6354,-4.8509,-5.0433,-5.0741,-5.1414,-5.1932,-5.2043,-5.2701,-5.3244,-5.3302,-5.3359,-5.3377,-5.3377,-5.2569,-5.1973,-5.1914,-5.1164,-5.0584,-5.0481,-5.0563,-5.0989,-5.1817,-5.1953,-5.2415,-5.3358,-5.3222,-5.347,-5.416,-5.3333,-5.3252,-5.3991,-5.4343,-5.3975,-5.3,-5.3387,-5.3475,0.0,0.0,0.0,0.0,0.0,0.0,0.0,0.0,0.0,0.0,0.0,0.0,0.0,0.0,0.0,0.0,0.0,0.0,0.0,0.0,0.0,0.0,0.0,0.0,0.0,0.0,0.0,0.0,0.0,0.0,0.0,-4.0394,-4.0396,-4.0449,-4.0449,-4.0447,-4.0463,-4.0473,-4.0476,-4.0449,-4.0447,-4.0411,-4.0358,-4.0341,-4.0684,-4.1215,-4.0771,-4.1119,-4.1983,-4.1613,-4.1781,-4.2352,-4.315,-4.3442,-4.3566,-4.4889,-4.5334,-4.5316,-4.5645,-4.5754,-4.5714,-4.5515,-4.5438,-4.54,-4.5338,-4.5297,-4.5297,-4.5297,-4.5297,-4.5297,-4.5297,-4.53,-4.5302,-4.5302,-4.5438,-4.5515,-4.5342,-4.6666,-4.8239,-4.937,-5.0101,-5.0542,-5.0521,-5.1334,-5.2011,-5.205,-5.2069,-5.2069,-5.2069,-5.1626,-5.1298,-5.1197,-5.0832,-5.0562,-5.0412,-5.0457,-5.0713,-5.1156,-5.1197,-5.147,-5.1991,-5.2011,-5.2473,-5.343,-5.2603,-5.2408,-5.2917,-5.3732,-5.3694,-5.2879,-5.3304,-5.3298,0.0,0.0,0.0,0.0,0.0,0.0,0.0,0.0,0.0,0.0,0.0,0.0,0.0,0.0,0.0,0.0,0.0,0.0,0.0,0.0,0.0,0.0,0.0,0.0,0.0,0.0,0.0,0.0,0.0,0.0,-4.0466,-4.0466,-4.0447,-4.0406,-4.0457,-4.0492,-4.0489,-4.0489,-4.0492,-4.0499,-4.0502,-4.0463,-4.0406,-4.0358,-4.0323,-4.0356,-4.0549,-4.063,-4.0662,-4.0765,-4.0828,-4.0916,-4.1695,-4.2034,-4.2318,-4.3969,-4.4654,-4.4838,-4.5465,-4.5668,-4.5635,-4.5458,-4.5399,-4.5398,-4.5317,-4.5297,-4.5297,-4.5297,-4.5297,-4.5297,-4.5297,-4.5297,-4.5297,-4.5297,-4.5302,-4.5304,-4.5303,-4.5298,-4.5846,-4.7665,-4.857,-4.9111,-4.9348,-4.9949,-5.047,-5.0624,-5.0603,-5.0582,-5.0582,-5.0582,-5.0521,-5.0435,-5.0519,-5.0521,-5.0412,-5.0412,-5.0435,-5.0478,-5.0435,-5.0435,-5.05,-5.05,-5.0932,-5.1813,-5.1257,-5.1022,-5.1106,-5.2674,-5.3003,-5.2172,-5.3041,-5.3,0.0,0.0,0.0,0.0,0.0,0.0,0.0,0.0,0.0,0.0,0.0,0.0,0.0,0.0,0.0,0.0,0.0,0.0,0.0,0.0,0.0,0.0,0.0,0.0,0.0,0.0,0.0,0.0,0.0,0.0,-4.0415,-4.0358,-4.0356,-4.0406,-4.0411,-4.0427,-4.0489,-4.0489,-4.0489,-4.0508,-4.0499,-4.0499,-4.0489,-4.0463,-4.0466,-4.0466,-4.0394,-4.0375,-4.0447,-4.0392,-4.0485,-4.072,-4.1577,-4.2323,-4.3052,-4.4056,-4.4832,-4.5376,-4.5493,-4.5531,-4.5513,-4.5419,-4.54,-4.5398,-4.5317,-4.5297,-4.5297,-4.5297,-4.5297,-4.5297,-4.5297,-4.5297,-4.5297,-4.5297,-4.5298,-4.5298,-4.5298,-4.5295,-4.5388,-4.5676,-4.7422,-4.9127,-5.0,-4.9704,-4.9576,-5.032,-5.0478,-5.0521,-5.0521,-5.0521,-5.05,-5.05,-5.05,-5.0478,-5.0412,-5.0412,-5.0412,-5.0412,-5.0412,-5.0435,-5.05,-5.05,-5.0581,-5.0797,-5.1374,-5.1722,-5.1875,-5.2781,-5.28,-5.1973,-5.2839,-5.2839,0.0,0.0,0.0,0.0,0.0,0.0,0.0,0.0,0.0,0.0,0.0,0.0,0.0,0.0,0.0,0.0,0.0,0.0,0.0,0.0,0.0,0.0,0.0,0.0,0.0,0.0,0.0,0.0,0.0,-4.0432,-4.0415,-4.036,-4.0586,-4.1116,-4.1311,-4.1423,-4.1453,-4.145,-4.1123,-4.0489,-4.0492,-4.0492,-4.0489,-4.0492,-4.0515,-4.0502,-4.0527,-4.0489,-4.0438,-4.0422,-4.045,-4.0564,-4.087,-4.1242,-4.1761,-4.3082,-4.4107,-4.488,-4.5341,-4.6128,-4.678,-4.5745,-4.5726,-4.6032,-4.5472,-4.5297,-4.5297,-4.5297,-4.5297,-4.5297,-4.5297,-4.5297,-4.5297,-4.5297,-4.5297,-4.5297,-4.5297,-4.5316,-4.5602,-4.6581,-4.7578,-4.8747,-5.0186,-5.0131,-4.9997,-5.0399,-5.0478,-5.05,-5.0457,-5.0478,-5.0478,-5.0412,-5.0416,-5.0435,-5.0348,-5.0348,-5.0348,-5.0348,-5.0348,-5.0348,-5.0371,-5.0393,-5.0457,-5.0542,-5.1369,-5.1854,-5.1953,-5.328,-5.3491,-5.2664,-5.353,-5.3492,0.0,0.0,0.0,0.0,0.0,0.0,0.0,0.0,0.0,0.0,0.0,0.0,0.0,0.0,0.0,0.0,0.0,0.0,0.0,0.0,0.0,0.0,0.0,0.0,0.0,0.0,0.0,0.0,0.0,-4.0362,-4.0381,-4.0362,-4.0684,-4.1313,-4.1598,-4.1827,-4.2071,-4.2299,-4.1893,-4.0835,-4.0835,-4.07,-4.0489,-4.0489,-4.0492,-4.0515,-4.0622,-4.0598,-4.05,-4.045,-4.045,-4.0469,-4.0341,-4.0478,-4.0895,-4.2122,-4.3328,-4.4363,-4.4976,-4.632,-4.7549,-4.6187,-4.634,-4.6915,-4.6202,-4.5988,-4.5988,-4.5988,-4.5988,-4.595,-4.5816,-4.5757,-4.5681,-4.5354,-4.5297,-4.5297,-4.5297,-4.5297,-4.5814,-4.7539,-4.7771,-4.825,-5.0131,-5.0284,-5.0208,-5.0418,-5.0457,-5.0416,-5.039,-5.0435,-5.0393,-5.0302,-5.0348,-5.0348,-5.0302,-5.0302,-5.0302,-5.0302,-5.0302,-5.0302,-5.0302,-5.0325,-5.0371,-5.05,-5.1369,-5.1834,-5.1914,-5.3433,-5.3837,-5.3222,-5.4087,-5.403,0.0,0.0,0.0,0.0,0.0,0.0,0.0,0.0,0.0,0.0,0.0,0.0,0.0,0.0,0.0,0.0,0.0,0.0,0.0,0.0,0.0,0.0,0.0,0.0,0.0,0.0,0.0,0.0,-4.0308,-4.0308,-4.031,-4.0308,-4.0326,-4.0364,-4.0382,-4.0837,-4.1711,-4.2607,-4.2604,-4.1739,-4.1739,-4.1296,-4.0489,-4.0489,-4.0489,-4.0508,-4.0515,-4.0518,-4.0482,-4.036,-4.0342,-4.0396,-4.0325,-4.086,-4.1642,-4.1738,-4.2793,-4.423,-4.4324,-4.5456,-4.6858,-4.6762,-4.7319,-4.801,-4.7894,-4.7854,-4.7854,-4.7854,-4.7854,-4.7719,-4.7141,-4.7026,-4.6719,-4.5566,-4.5297,-4.5297,-4.5297,-4.5298,-4.5795,-4.7474,-4.7382,-4.7728,-4.9943,-4.9694,-4.9446,-5.0187,-5.0302,-5.0302,-5.0302,-5.0302,-5.0302,-5.0302,-5.0302,-5.0302,-5.0302,-5.0302,-5.0302,-5.0302,-5.0302,-5.0302,-5.0302,-5.0348,-5.0435,-5.05,-5.1369,-5.1834,-5.1914,-5.2818,-5.3241,-5.3222,-5.4087,-5.403,0.0,0.0,0.0,0.0,0.0,0.0,0.0,0.0,0.0,0.0,0.0,0.0,0.0,0.0,0.0,0.0,0.0,0.0,0.0,0.0,0.0,0.0,0.0,0.0,0.0,0.0,0.0,0.0,0.0,-3.8034,-4.0196,-3.8263,-3.8336,-4.1034,-4.1129,-4.1395,-4.1959,-4.2285,-4.2703,-4.3137,-4.1646,-4.1107,-4.1316,-4.0758,-4.0489,-4.0489,-4.0492,-4.0495,-4.0502,-4.0449,-4.0449,-4.0449,-4.0449,-4.0639,-4.0979,-4.1502,-4.2462,-4.3496,-4.3459,-4.4938,-4.6704,-4.6148,-4.6897,-4.8028,-4.8028,-4.7988,-4.7988,-4.7988,-4.772,-4.7374,-4.7162,-4.6529,-4.5857,-4.5475,-4.532,-4.5301,-4.5301,-4.53,-4.5793,-4.7474,-4.7627,-4.8127,-4.9977,-5.0054,-4.9977,-5.0264,-5.0302,-5.0302,-5.0302,-5.0302,-5.0302,-5.0302,-5.0302,-5.0302,-5.0302,-5.0302,-5.0302,-5.0302,-5.0302,-5.0302,-5.0302,-5.0325,-5.039,-5.05,-5.0809,-5.1563,-5.2741,-5.3606,-5.403,-5.4049,-5.4357,-5.4337,0.0,0.0,0.0,0.0,0.0,0.0,0.0,0.0,0.0,0.0,0.0,0.0,0.0,0.0,0.0,0.0,0.0,0.0,0.0,0.0,0.0,0.0,0.0,0.0,0.0,0.0,0.0,0.0,0.0,0.0,-4.0177,-3.8188,-3.8263,-4.1073,-4.1436,-4.1759,-4.2059,-4.229,-4.2785,-4.3583,-4.178,-4.1242,-4.1777,-4.0893,-4.0489,-4.0489,-4.0489,-4.0492,-4.0499,-4.0502,-4.0502,-4.0502,-4.0485,-4.0655,-4.0921,-4.1193,-4.2019,-4.2996,-4.2708,-4.4054,-4.5917,-4.5629,-4.6685,-4.8144,-4.874,-4.8701,-4.8528,-4.8836,-4.8336,-4.7818,-4.8201,-4.7701,-4.6933,-4.6186,-4.5706,-4.5399,-4.5341,-4.532,-4.5851,-4.7704,-4.7914,-4.8334,-5.0015,-5.0302,-5.0302,-5.0302,-5.0302,-5.0302,-5.0302,-5.0302,-5.0302,-5.0302,-5.0302,-5.0302,-5.0302,-5.0302,-5.0302,-5.0302,-5.0302,-5.0302,-5.0302,-5.0348,-5.0393,-5.05,-5.0542,-5.1296,-5.2779,-5.3645,-5.4068,-5.4087,-5.4645,-5.4895,0.0,0.0,0.0,0.0,0.0,0.0,0.0,0.0,0.0,0.0,0.0,0.0,0.0,0.0,0.0,0.0,0.0,0.0,0.0,0.0,0.0,0.0,0.0,0.0,0.0,0.0,0.0,0.0,-4.0215,-4.0215,-4.0291,-4.031,-4.0291,-4.0309,-4.113,-4.1684,-4.1932,-4.2598,-4.2921,-4.2919,-4.2184,-4.1835,-4.1761,-4.0893,-4.0489,-4.0489,-4.0489,-4.0489,-4.0489,-4.0499,-4.0502,-4.0482,-4.0432,-4.0914,-4.1583,-4.0792,-4.1485,-4.2716,-4.2014,-4.284,-4.4381,-4.5264,-4.6684,-4.8337,-5.0106,-5.0029,-4.9529,-5.0413,-4.9855,-4.924,-5.0394,-5.0702,-5.0123,-4.7856,-4.6416,-4.5572,-4.5458,-4.5379,-4.5986,-4.8089,-4.8124,-4.8353,-5.0015,-5.0302,-5.0302,-5.0302,-5.0302,-5.0302,-5.0302,-5.0302,-5.0302,-5.0302,-5.0302,-5.0302,-5.0302,-5.0302,-5.0302,-5.0302,-5.0302,-5.0302,-5.0302,-5.0416,-5.05,-5.05,-5.0642,-5.1125,-5.1894,-5.276,-5.3203,-5.328,-5.4934,-5.5684,-1.2934,0.0,0.0,0.0,0.0,0.0,0.0,0.0,0.0,0.0,0.0,0.0,0.0,0.0,0.0,0.0,0.0,0.0,0.0,0.0,0.0,0.0,0.0,0.0,0.0,0.0,0.0,0.0,-3.8054,-3.7749,-4.0177,-4.031,-4.031,-4.0291,-4.0539,-4.0691,-4.0784,-4.0957,-4.107,-4.1126,-4.2119,-4.229,-4.1696,-4.0866,-4.0499,-4.0499,-4.0508,-4.0489,-4.0489,-4.0508,-4.0492,-4.0492,-4.0476,-4.0611,-4.0803,-4.0588,-4.0781,-4.113,-4.0931,-4.1668,-4.2921,-4.4227,-4.5303,-4.6398,-4.8201,-4.8566,-4.8528,-4.9221,-4.8894,-4.8721,-5.0298,-5.0683,-5.0529,-4.9894,-4.7626,-4.5745,-4.6283,-4.6511,-4.6526,-4.6271,-4.7403,-4.8802,-5.0073,-5.0302,-5.0302,-5.0302,-5.0302,-5.0302,-5.0302,-5.0302,-5.0302,-5.0302,-5.0302,-5.0302,-5.0302,-5.0302,-5.0302,-5.0302,-5.0302,-5.0302,-5.0302,-5.0325,-5.0371,-5.0435,-5.1135,-5.16,-5.1834,-5.2124,-5.2914,-5.4164,-5.5203,-5.5395,0.0,0.0,0.0,0.0,0.0,0.0,-1.4648,-1.8034,0.0,0.0,0.0,0.0,0.0,0.0,0.0,0.0,0.0,0.0,0.0,0.0,0.0,0.0,0.0,0.0,0.0,-3.888,-3.9509,-3.9547,-3.8209,-3.8246,-4.0215,-4.0345,-4.0345,-4.031,-4.0307,-4.0306,-4.029,-4.0293,-4.0323,-4.0372,-4.1424,-4.1898,-4.18,-4.0931,-4.0531,-4.0502,-4.0495,-4.0492,-4.0489,-4.0489,-4.0489,-4.0489,-4.0492,-4.0707,-4.0957,-4.0627,-4.0918,-4.1459,-4.113,-4.1615,-4.2541,-4.3195,-4.4288,-4.563,-4.7163,-4.7546,-4.7625,-4.8317,-4.7818,-4.7626,-5.0067,-5.0163,-4.9798,-5.0528,-4.8798,-4.6877,-4.6397,-4.6743,-4.6991,-4.6485,-4.7709,-4.9124,-5.013,-5.0302,-5.0302,-5.0325,-5.0325,-5.0302,-5.0325,-5.0325,-5.0302,-5.0302,-5.0302,-5.0302,-5.0302,-5.0302,-5.0302,-5.0302,-5.0325,-5.0325,-5.0325,-5.0412,-5.0457,-5.0478,-5.1346,-5.1984,-5.2351,-5.2758,-5.3683,-5.5011,-5.5472,-5.5453,0.0,0.0,0.0,0.0,0.0,0.0,-1.4014,-1.7713,-2.1482,0.0,0.0,0.0,0.0,0.0,0.0,0.0,0.0,0.0,0.0,0.0,0.0,0.0,0.0,0.0,0.0,-3.8745,-3.9583,-3.8477,-3.9583,-4.0327,-4.0346,-4.046,-4.0457,-4.0364,-4.0326,-4.0307,-4.0289,-4.0298,-4.0327,-4.0389,-4.0578,-4.1074,-4.1817,-4.0974,-4.0549,-4.0485,-4.0499,-4.0553,-4.0623,-4.0527,-4.0489,-4.0489,-4.0499,-4.0943,-4.1481,-4.0751,-4.1409,-4.2542,-4.1925,-4.2234,-4.2832,-4.2451,-4.3714,-4.5592,-4.6586,-4.674,-4.6761,-4.7741,-4.7108,-4.6858,-4.9913,-4.9259,-4.8279,-5.0086,-4.9681,-4.8334,-4.6205,-4.6551,-4.7415,-4.7811,-4.863,-4.9465,-5.0187,-5.0321,-5.0325,-5.0412,-5.0348,-5.0348,-5.0412,-5.0348,-5.0325,-5.0302,-5.0302,-5.0302,-5.0302,-5.0302,-5.0302,-5.0302,-5.0367,-5.0412,-5.0412,-5.054,-5.0582,-5.0582,-5.1486,-5.237,-5.3253,-5.4086,-5.4876,-5.5568,-5.5665,-5.5703,0.0,0.0,0.0,0.0,0.0,0.0,-1.5025,-1.5827,-1.7413,0.0,0.0,0.0,0.0,0.0,0.0,0.0,0.0,0.0,0.0,0.0,0.0,0.0,0.0,0.0,-3.682,-3.7863,-3.8262,-3.7819,-3.9441,-4.053,-4.0693,-4.0565,-4.0546,-4.0615,-4.041,-4.0314,-4.0293,-4.0301,-4.0513,-4.0943,-4.0984,-4.0935,-4.0784,-4.0588,-4.0458,-4.0342,-4.0504,-4.092,-4.1421,-4.0699,-4.0444,-4.0489,-4.0499,-4.0595,-4.0723,-4.0556,-4.0691,-4.1034,-4.1539,-4.223,-4.2981,-4.3522,-4.4441,-4.5361,-4.5568,-4.5604,-4.5913,-4.7547,-4.8816,-4.9875,-5.0548,-4.8414,-4.6647,-4.8817,-4.8778,-4.797,-4.6876,-4.728,-4.7876,-4.7972,-4.9099,-5.0167,-5.0409,-5.0428,-5.0412,-5.0478,-5.0478,-5.0478,-5.0478,-5.0478,-5.0457,-5.039,-5.039,-5.0367,-5.0302,-5.0302,-5.0325,-5.039,-5.039,-5.0435,-5.0478,-5.05,-5.0521,-5.0521,-5.2041,-5.3294,-5.422,-5.4414,-5.4587,-5.4741,-5.5395,-5.5703,0.0,0.0,0.0,-1.541,0.0,0.0,0.0,-1.5255,-1.5903,0.0,0.0,0.0,0.0,0.0,0.0,0.0,0.0,0.0,0.0,0.0,0.0,0.0,0.0,0.0,-3.6202,-3.8254,-3.9129,-3.8074,-3.9751,-4.0754,-4.0655,-4.0754,-4.0707,-4.05,-4.0637,-4.0696,-4.0694,-4.0703,-4.0839,-4.1093,-4.0955,-4.0854,-4.0752,-4.068,-4.0597,-4.05,-4.0549,-4.0781,-4.1116,-4.0603,-4.0413,-4.0463,-4.0413,-4.0447,-4.0495,-4.0427,-4.0696,-4.1097,-4.1099,-4.2063,-4.3445,-4.4403,-4.4958,-4.5301,-4.5298,-4.5317,-4.5625,-4.7124,-4.8221,-4.9221,-5.0394,-4.8567,-4.6896,-4.8586,-4.7912,-4.6912,-4.7049,-4.7569,-4.826,-4.9182,-4.9928,-5.0421,-5.0495,-5.0476,-5.0478,-5.0542,-5.0521,-5.0521,-5.0562,-5.0521,-5.05,-5.0457,-5.0457,-5.0435,-5.0393,-5.0393,-5.0412,-5.0412,-5.0435,-5.0478,-5.05,-5.05,-5.0692,-5.1094,-5.2024,-5.3142,-5.4449,-5.447,-5.4703,-5.5107,-5.5511,-5.5703,0.0,0.0,0.0,0.0,0.0,-1.581,0.0,0.0,0.0,-1.6829,0.0,0.0,0.0,0.0,0.0,0.0,0.0,0.0,0.0,0.0,0.0,0.0,0.0,0.0,0.0,-3.7906,-3.956,-3.8264,-3.9772,-4.0636,-4.0358,-4.083,-4.0898,-4.0474,-4.0878,-4.1092,-4.1106,-4.1104,-4.1089,-4.1102,-4.0882,-4.0859,-4.1022,-4.0665,-4.0585,-4.0674,-4.0386,-4.0472,-4.0824,-4.0504,-4.0494,-4.0628,-4.0401,-4.0379,-4.0466,-4.0356,-4.0799,-4.1391,-4.0739,-4.1644,-4.3331,-4.4825,-4.5282,-4.5297,-4.5297,-4.5298,-4.551,-4.649,-4.7126,-4.7933,-4.9721,-4.8913,-4.7835,-4.8643,-4.7181,-4.5855,-4.676,-4.7453,-4.8337,-4.9894,-5.0392,-5.0542,-5.054,-5.054,-5.0542,-5.0603,-5.0563,-5.0542,-5.0603,-5.0563,-5.0521,-5.0521,-5.0521,-5.0521,-5.05,-5.05,-5.0478,-5.0435,-5.0478,-5.0521,-5.0542,-5.0521,-5.0807,-5.1459,-5.1736,-5.2546,-5.3906,-5.4254,-5.4852,-5.5703,-5.5703,-5.5703,0.0,0.0,0.0,0.0,-1.849,0.0,0.0,0.0,-1.6586,-1.7433,0.0,0.0,0.0,0.0,0.0,0.0,0.0,0.0,0.0,0.0,0.0,0.0,0.0,0.0,0.0,-3.4302,-3.6656,-3.7288,-3.8673,-3.9602,-3.9777,-4.0616,-4.1071,-4.1006,-4.1071,-4.1091,-4.1103,-4.1104,-4.1089,-4.1102,-4.1077,-4.1069,-4.1059,-3.9975,-3.9917,-4.0655,-3.9805,-4.027,-4.1574,-4.0687,-4.0805,-4.147,-4.0686,-4.0398,-4.0396,-4.0389,-4.0485,-4.0619,-4.0528,-4.0645,-4.1355,-4.4327,-4.5282,-4.5297,-4.5297,-4.5297,-4.5337,-4.5472,-4.7047,-4.8643,-4.8375,-4.8548,-4.8701,-4.8298,-4.6874,-4.5624,-4.5759,-4.6626,-4.7568,-4.826,-4.9625,-5.0682,-5.068,-5.0621,-5.0603,-5.0663,-5.0683,-5.0683,-5.0702,-5.0683,-5.0643,-5.0603,-5.0582,-5.0563,-5.05,-5.05,-5.0521,-5.0582,-5.0582,-5.0623,-5.0663,-5.0623,-5.06,-5.0634,-5.1408,-5.1909,-5.2101,-5.3422,-5.4618,-5.5703,-5.5703,-5.5703,0.0,0.0,0.0,0.0,0.0,0.0,-1.9094,0.0,-1.7804,0.0,0.0,0.0,0.0,0.0,0.0,0.0,0.0,0.0,0.0,0.0,0.0,0.0,0.0,0.0,0.0,0.0,0.0,0.0,-3.5317,-3.7381,-3.9369,-3.9831,-3.9896,-3.9546,-3.9526,-3.9526,-3.9526,-4.0591,-4.1103,-4.1093,-4.1091,-4.0704,-3.9994,-4.0073,-4.0092,-4.0051,-3.985,-3.9961,-4.0236,-3.9623,-3.9318,-3.9185,-3.8842,-3.9393,-4.0327,-4.025,-4.0323,-4.0454,-4.0473,-4.0509,-4.0914,-4.3387,-4.4102,-4.4167,-4.4871,-4.4737,-4.457,-4.5544,-4.6244,-4.6885,-4.7717,-4.7738,-4.7509,-4.7338,-4.6359,-4.5495,-4.5495,-4.5917,-4.6666,-4.7856,-4.9509,-5.0489,-4.9717,-4.9698,-4.9987,-5.0606,-5.0201,-5.0047,-5.0625,-5.0702,-5.0702,-5.0663,-5.0643,-5.0643,-5.0623,-5.0623,-5.0623,-5.0603,-5.0603,-5.0833,-5.1333,-5.125,-5.1165,-5.1079,-5.1334,-5.1686,-5.2144,-5.2722,-5.3503,-5.4492,-5.4969,-5.5295,-1.8409,0.0,0.0,0.0,0.0,0.0,0.0,0.0,0.0,0.0,0.0,0.0,0.0,0.0,0.0,0.0,0.0,0.0,0.0,0.0,0.0,0.0,0.0,0.0,0.0,0.0,0.0,-2.9051,-3.1468,-3.4497,-3.8152,-3.8576,-3.8602,-3.8415,-3.8381,-3.8459,-3.8636,-3.9622,-4.0446,-4.1098,-4.0402,-3.9762,-3.9207,-3.9538,-3.9614,-3.9509,-3.9234,-3.9097,-3.908,-3.8556,-3.7961,-3.7412,-3.7451,-3.8403,-3.9795,-4.0005,-4.0177,-4.029,-4.0382,-4.0611,-4.1053,-4.2389,-4.3042,-4.3459,-4.4308,-4.4308,-4.4275,-4.5523,-4.5669,-4.5681,-4.6844,-4.6885,-4.66,-4.6278,-4.5783,-4.5361,-4.5323,-4.5477,-4.6033,-4.7549,-4.9392,-5.0234,-4.8771,-4.8828,-4.9273,-4.9835,-4.9275,-4.9081,-4.9816,-5.0024,-5.0138,-5.0219,-5.0138,-5.0138,-5.0238,-5.0238,-5.0274,-5.0418,-5.0689,-5.107,-5.1591,-5.1754,-5.182,-5.1745,-5.1597,-5.1687,-5.2047,-5.239,-5.2737,-5.3135,-5.4254,-5.4924,0.0,0.0,0.0,-2.4442,0.0,0.0,0.0,0.0,-2.0465,0.0,0.0,0.0,0.0,0.0,0.0,0.0,0.0,0.0,0.0,0.0,0.0,0.0,0.0,0.0,0.0,0.0,0.0,-2.5461,-2.7594,-3.0928,-3.5671,-3.6709,-3.7549,-3.8376,-3.8341,-3.8622,-3.9254,-3.816,-3.8799,-4.1065,-3.868,-3.8101,-3.9155,-3.7744,-3.7912,-3.9206,-3.7401,-3.7491,-3.8838,-3.7851,-3.743,-3.7392,-3.7412,-3.7809,-3.851,-3.9662,-4.0043,-4.0024,-4.0158,-4.0845,-4.1626,-4.1412,-4.2452,-4.3776,-4.3767,-4.4251,-4.49,-4.5005,-4.5627,-4.6096,-4.5376,-4.6132,-4.6713,-4.5314,-4.5123,-4.5258,-4.5144,-4.5373,-4.5908,-4.6925,-4.9054,-5.009,-4.8146,-4.8378,-4.8589,-4.7974,-4.7879,-4.7859,-4.7879,-4.83,-4.8682,-4.9022,-4.8751,-4.8701,-4.9041,-4.9064,-4.932,-4.9999,-5.0862,-5.1288,-5.1139,-5.1925,-5.2361,-5.2362,-5.2361,-5.1963,-5.1149,-5.251,-5.2728,-5.1931,-5.3879,-5.4806,0.0,0.0,-2.4672,-3.0149,0.0,0.0,0.0,0.0,0.0,0.0,0.0,0.0,0.0,0.0,0.0,0.0,0.0,0.0,0.0,0.0,0.0,0.0,0.0,0.0,0.0,0.0,0.0,-2.1883,-2.262,-2.4171,-2.6975,-3.2926,-3.5542,-3.4013,-3.567,-3.6668,-3.6852,-3.7006,-3.7521,-3.8325,-3.8103,-3.8121,-3.8344,-3.8329,-3.8569,-3.9026,-3.8688,-3.8626,-3.8728,-3.8215,-3.7687,-3.7197,-3.7197,-3.7329,-3.7577,-3.8111,-3.9068,-4.008,-4.0177,-4.0367,-4.0648,-4.1081,-4.1901,-4.2775,-4.3316,-4.3667,-4.3962,-4.4508,-4.4556,-4.453,-4.4891,-4.5299,-4.5536,-4.5125,-4.5014,-4.5036,-4.4976,-4.5058,-4.5235,-4.5581,-4.6302,-4.6645,-4.5994,-4.6062,-4.642,-4.7041,-4.7243,-4.7555,-4.8188,-4.8672,-4.8872,-4.8675,-4.8567,-4.8409,-4.8216,-4.85,-4.9136,-5.0193,-5.0695,-5.1187,-5.1755,-5.2567,-5.3059,-5.3127,-5.2906,-5.2648,-5.2287,-5.2663,-5.269,-5.236,-5.3422,-5.4123,-3.3525,-3.1543,0.0,-3.3181,-3.1703,0.0,-2.7301,0.0,0.0,0.0,0.0,0.0,0.0,0.0,0.0,0.0,0.0,0.0,0.0,-1.7117,0.0,0.0,0.0,0.0,0.0,0.0,-1.61,-1.8403,-1.8398,-1.9707,0.0,0.0,-3.2764,-3.1806,-3.4281,-3.5773,-3.6093,-3.6314,-3.6772,-3.7424,-3.7375,-3.753,-3.7906,-3.8066,-3.8357,-3.8747,-3.8761,-3.8697,-3.8525,-3.8056,-3.7568,-3.7099,-3.7099,-3.7291,-3.7544,-3.7392,-3.8277,-3.9559,-3.9622,-3.9772,-4.0049,-4.0539,-4.135,-4.2278,-4.2987,-4.3461,-4.3839,-4.4382,-4.403,-4.3674,-4.4638,-4.4662,-4.4535,-4.4934,-4.4957,-4.4877,-4.4743,-4.483,-4.4887,-4.4908,-4.4904,-4.4749,-4.429,-4.4214,-4.4699,-4.6225,-4.6553,-4.6918,-4.7636,-4.8134,-4.8338,-4.819,-4.8055,-4.7908,-4.7742,-4.7994,-4.8638,-4.9697,-5.0469,-5.1147,-5.1705,-5.2555,-5.3226,-5.3579,-5.2813,-5.2393,-5.2287,-5.2456,-5.2345,-5.2028,-5.2924,-5.3545]}]]